[[{"header":{"parameterUnit":"m.s-1","parameterCategory":1,"la1":30.6,"la2":28.766,"lo1":-90.7593,"lo2":-88.6598,"dy":0.0162,"dx":0.0183,"nx":116,"ny":114,"refTime":"2023-10-09T00:00:00:Z","depth":0,"parameterNumber":2,"parameterNumberName":"U-component_of_WINDS"},"data":[0.0,0.0,0.0,0.0,0.0,0.0,0.0,0.0,0.0,0.0,0.0,0.0,0.0,0.0,0.0,0.0,0.0,0.0,0.0,0.0,0.0,0.0,0.0,0.0,0.0,0.0,0.0,0.0,0.0,0.0,0.0,0.0,0.0,0.0,0.0,0.0,0.0,0.0,0.0,0.0,0.0,0.0,0.0,0.0,0.0,0.0,0.0,0.0,0.0,0.0,0.0,0.0,0.0,0.0,0.0,0.0,0.0,0.0,0.0,0.0,0.0,0.0,0.0,0.0,0.0,0.0,0.0,0.0,0.0,0.0,0.0,0.0,0.0,0.0,0.0,0.0,0.0,0.0,0.0,0.0,0.0,0.0,0.0,0.0,0.0,0.0,0.0,0.0,0.0,0.0,0.0,0.0,0.0,0.0,0.0,0.0,0.0,0.0,0.0,0.0,0.0,0.0,0.0,0.0,0.0,0.0,0.0,0.0,0.0,0.0,0.0,0.0,0.0,0.0,0.0,0.0,0.0,0.0,0.0,0.0,0.0,0.0,0.0,0.0,0.0,0.0,0.0,0.0,0.0,0.0,0.0,0.0,0.0,0.0,0.0,0.0,0.0,0.0,0.0,0.0,0.0,0.0,0.0,0.0,0.0,0.0,0.0,0.0,0.0,0.0,0.0,0.0,0.0,0.0,0.0,0.0,0.0,0.0,0.0,0.0,0.0,0.0,0.0,0.0,0.0,0.0,0.0,0.0,0.0,0.0,0.0,0.0,0.0,0.0,0.0,0.0,0.0,0.0,0.0,0.0,0.0,0.0,0.0,0.0,0.0,0.0,0.0,0.0,0.0,0.0,0.0,0.0,0.0,0.0,0.0,0.0,0.0,0.0,0.0,0.0,0.0,0.0,0.0,0.0,0.0,0.0,0.0,0.0,0.0,0.0,0.0,0.0,0.0,0.0,0.0,0.0,0.0,0.0,0.0,0.0,0.0,0.0,0.0,0.0,0.0,0.0,0.0,0.0,0.0,0.0,0.0,0.0,0.0,0.0,0.0,0.0,0.0,0.0,0.0,0.0,0.0,0.0,0.0,0.0,0.0,0.0,0.0,0.0,0.0,0.0,0.0,0.0,0.0,0.0,0.0,0.0,0.0,0.0,0.0,0.0,0.0,0.0,0.0,0.0,0.0,0.0,0.0,0.0,0.0,0.0,0.0,0.0,0.0,0.0,0.0,0.0,0.0,0.0,0.0,0.0,0.0,0.0,0.0,0.0,0.0,0.0,0.0,0.0,0.0,0.0,0.0,0.0,0.0,0.0,0.0,0.0,0.0,0.0,0.0,0.0,0.0,0.0,0.0,0.0,0.0,0.0,0.0,0.0,0.0,0.0,0.0,0.0,0.0,0.0,0.0,0.0,0.0,0.0,0.0,0.0,0.0,0.0,0.0,0.0,0.0,0.0,0.0,0.0,0.0,0.0,0.0,0.0,0.0,0.0,0.0,0.0,0.0,0.0,0.0,0.0,0.0,0.0,0.0,0.0,0.0,0.0,0.0,0.0,0.0,0.0,0.0,0.0,0.0,0.0,0.0,0.0,0.0,0.0,0.0,0.0,0.0,0.0,0.0,0.0,0.0,0.0,0.0,0.0,0.0,0.0,0.0,0.0,0.0,0.0,0.0,0.0,0.0,0.0,0.0,0.0,0.0,0.0,0.0,0.0,0.0,0.0,0.0,0.0,0.0,0.0,0.0,0.0,0.0,0.0,0.0,0.0,0.0,0.0,0.0,0.0,0.0,0.0,0.0,0.0,0.0,0.0,0.0,0.0,0.0,0.0,0.0,0.0,0.0,0.0,0.0,0.0,0.0,0.0,0.0,0.0,0.0,0.0,0.0,0.0,0.0,0.0,0.0,0.0,0.0,0.0,0.0,0.0,0.0,0.0,0.0,0.0,0.0,0.0,0.0,0.0,0.0,0.0,0.0,0.0,0.0,0.0,0.0,0.0,0.0,0.0,0.0,0.0,0.0,0.0,0.0,0.0,0.0,0.0,0.0,0.0,0.0,0.0,0.0,0.0,0.0,0.0,0.0,0.0,0.0,0.0,0.0,0.0,0.0,0.0,0.0,0.0,0.0,0.0,0.0,0.0,0.0,0.0,0.0,0.0,0.0,0.0,0.0,0.0,0.0,0.0,0.0,0.0,0.0,0.0,0.0,0.0,0.0,0.0,0.0,0.0,0.0,0.0,0.0,0.0,0.0,0.0,0.0,0.0,0.0,0.0,0.0,0.0,0.0,0.0,0.0,0.0,0.0,0.0,0.0,0.0,0.0,0.0,0.0,0.0,0.0,0.0,0.0,0.0,0.0,0.0,0.0,0.0,0.0,0.0,0.0,0.0,0.0,0.0,0.0,0.0,0.0,0.0,0.0,0.0,0.0,0.0,0.0,0.0,0.0,0.0,0.0,0.0,0.0,0.0,0.0,0.0,0.0,0.0,0.0,0.0,0.0,0.0,0.0,0.0,0.0,0.0,0.0,0.0,0.0,0.0,0.0,0.0,0.0,0.0,0.0,0.0,0.0,0.0,0.0,0.0,0.0,0.0,0.0,0.0,0.0,0.0,0.0,0.0,0.0,0.0,0.0,0.0,0.0,0.0,0.0,0.0,0.0,0.0,0.0,0.0,0.0,0.0,0.0,0.0,0.0,0.0,0.0,0.0,0.0,0.0,0.0,0.0,0.0,0.0,0.0,0.0,0.0,0.0,0.0,0.0,0.0,0.0,0.0,0.0,0.0,0.0,0.0,0.0,0.0,0.0,0.0,0.0,0.0,0.0,0.0,0.0,0.0,0.0,0.0,0.0,0.0,0.0,0.0,0.0,0.0,0.0,0.0,0.0,0.0,0.0,0.0,0.0,0.0,0.0,0.0,0.0,0.0,0.0,0.0,0.0,0.0,0.0,0.0,0.0,0.0,0.0,0.0,0.0,0.0,0.0,0.0,0.0,0.0,0.0,0.0,0.0,0.0,0.0,0.0,0.0,0.0,0.0,0.0,0.0,0.0,0.0,0.0,0.0,0.0,0.0,0.0,0.0,0.0,0.0,0.0,0.0,0.0,0.0,0.0,0.0,0.0,0.0,0.0,0.0,0.0,0.0,0.0,0.0,0.0,0.0,0.0,0.0,0.0,0.0,0.0,0.0,0.0,0.0,0.0,0.0,0.0,0.0,0.0,0.0,0.0,0.0,0.0,0.0,0.0,0.0,0.0,0.0,0.0,0.0,0.0,0.0,0.0,0.0,0.0,0.0,0.0,0.0,0.0,0.0,0.0,0.0,0.0,0.0,0.0,0.0,0.0,0.0,0.0,0.0,0.0,0.0,0.0,0.0,0.0,0.0,0.0,0.0,0.0,0.0,0.0,0.0,0.0,0.0,0.0,0.0,0.0,0.0,0.0,0.0,0.0,0.0,0.0,0.0,0.0,0.0,0.0,0.0,0.0,0.0,0.0,0.0,0.0,0.0,0.0,0.0,0.0,0.0,0.0,0.0,0.0,0.0,0.0,0.0,0.0,0.0,0.0,0.0,0.0,0.0,0.0,0.0,0.0,0.0,0.0,0.0,0.0,0.0,0.0,0.0,0.0,0.0,0.0,0.0,0.0,0.0,0.0,0.0,0.0,0.0,0.0,0.0,0.0,0.0,0.0,0.0,0.0,0.0,0.0,0.0,0.0,0.0,0.0,0.0,0.0,0.0,0.0,0.0,0.0,0.0,0.0,0.0,0.0,0.0,0.0,0.0,0.0,0.0,0.0,0.0,0.0,0.0,0.0,0.0,0.0,0.0,0.0,0.0,0.0,0.0,0.0,0.0,0.0,0.0,0.0,0.0,0.0,0.0,0.0,0.0,0.0,0.0,0.0,0.0,0.0,0.0,0.0,0.0,0.0,0.0,0.0,0.0,0.0,0.0,0.0,0.0,0.0,0.0,0.0,0.0,0.0,0.0,0.0,0.0,0.0,0.0,0.0,0.0,0.0,0.0,0.0,0.0,0.0,0.0,0.0,0.0,0.0,0.0,0.0,0.0,0.0,0.0,0.0,0.0,0.0,0.0,0.0,0.0,0.0,0.0,0.0,0.0,0.0,0.0,0.0,0.0,0.0,0.0,0.0,0.0,0.0,0.0,0.0,0.0,0.0,0.0,0.0,0.0,0.0,0.0,0.0,0.0,0.0,0.0,0.0,0.0,0.0,0.0,0.0,0.0,0.0,0.0,0.0,0.0,0.0,0.0,0.0,0.0,0.0,0.0,0.0,0.0,0.0,0.0,0.0,0.0,0.0,0.0,0.0,0.0,0.0,0.0,0.0,0.0,0.0,0.0,0.0,0.0,0.0,0.0,0.0,0.0,0.0,0.0,0.0,0.0,0.0,0.0,0.0,0.0,0.0,0.0,0.0,0.0,0.0,0.0,0.0,0.0,0.0,0.0,0.0,0.0,0.0,0.0,0.0,0.0,0.0,0.0,0.0,0.0,0.0,0.0,0.0,0.0,0.0,0.0,0.0,0.0,0.0,0.0,0.0,0.0,0.0,0.0,0.0,0.0,0.0,0.0,0.0,0.0,0.0,0.0,0.0,0.0,0.0,0.0,0.0,0.0,0.0,0.0,0.0,0.0,0.0,0.0,0.0,0.0,0.0,0.0,0.0,0.0,0.0,0.0,0.0,0.0,0.0,0.0,0.0,0.0,0.0,0.0,0.0,0.0,0.0,0.0,0.0,0.0,0.0,0.0,0.0,0.0,0.0,0.0,0.0,0.0,0.0,0.0,0.0,0.0,0.0,0.0,0.0,0.0,0.0,0.0,0.0,0.0,0.0,0.0,0.0,0.0,0.0,0.0,0.0,0.0,0.0,0.0,0.0,0.0,0.0,0.0,0.0,0.0,0.0,0.0,0.0,0.0,0.0,0.0,0.0,0.0,0.0,0.0,0.0,0.0,0.0,0.0,0.0,0.0,0.0,0.0,0.0,0.0,0.0,0.0,0.0,0.0,0.0,0.0,0.0,0.0,0.0,0.0,0.0,0.0,0.0,0.0,0.0,0.0,0.0,0.0,0.0,0.0,0.0,0.0,0.0,0.0,0.0,0.0,0.0,0.0,0.0,0.0,0.0,0.0,0.0,0.0,0.0,0.0,0.0,0.0,0.0,0.0,0.0,0.0,0.0,0.0,0.0,0.0,0.0,0.0,0.0,0.0,0.0,0.0,0.0,0.0,0.0,0.0,0.0,0.0,0.0,0.0,0.0,0.0,0.0,0.0,0.0,0.0,0.0,0.0,0.0,0.0,0.0,0.0,0.0,0.0,0.0,0.0,0.0,0.0,0.0,0.0,0.0,0.0,0.0,0.0,0.0,0.0,0.0,0.0,0.0,0.0,0.0,0.0,0.0,0.0,0.0,0.0,0.0,0.0,0.0,0.0,0.0,0.0,0.0,0.0,0.0,0.0,0.0,0.0,0.0,0.0,0.0,0.0,0.0,0.0,0.0,0.0,0.0,0.0,0.0,0.0,0.0,0.0,0.0,0.0,0.0,0.0,0.0,0.0,0.0,0.0,0.0,0.0,0.0,0.0,0.0,0.0,0.0,0.0,0.0,0.0,0.0,0.0,0.0,0.0,0.0,0.0,0.0,0.0,0.0,0.0,0.0,0.0,0.0,0.0,0.0,0.0,0.0,0.0,0.0,0.0,0.0,0.0,0.0,0.0,0.0,0.0,0.0,0.0,0.0,0.0,0.0,0.0,0.0,0.0,0.0,0.0,0.0,0.0,0.0,0.0,0.0,0.0,0.0,0.0,0.0,0.0,0.0,0.0,0.0,0.0,0.0,0.0,0.0,0.0,0.0,0.0,0.0,0.0,0.0,0.0,0.0,0.0,0.0,0.0,0.0,0.0,0.0,0.0,0.0,0.0,0.0,0.0,0.0,0.0,0.0,0.0,0.0,0.0,0.0,0.0,0.0,0.0,0.0,0.0,0.0,0.0,0.0,0.0,0.0,0.0,0.0,0.0,0.0,0.0,0.0,0.0,0.0,0.0,0.0,0.0,0.0,0.0,0.0,0.0,0.0,0.0,0.0,0.0,0.0,0.0,0.0,0.0,0.0,0.0,5.5724,0.0,0.0,0.0,0.0,0.0,0.0,0.0,0.0,0.0,0.0,0.0,0.0,0.0,0.0,0.0,0.0,0.0,0.0,0.0,0.0,0.0,0.0,0.0,0.0,0.0,0.0,0.0,0.0,0.0,0.0,0.0,0.0,0.0,0.0,0.0,0.0,0.0,0.0,0.0,5.7997,5.7997,5.7997,5.7997,5.7997,5.7997,0.0,0.0,0.0,0.0,0.0,0.0,0.0,0.0,0.0,0.0,0.0,0.0,0.0,0.0,0.0,0.0,0.0,0.0,0.0,0.0,0.0,0.0,0.0,0.0,0.0,0.0,0.0,0.0,0.0,0.0,0.0,0.0,0.0,0.0,0.0,0.0,0.0,0.0,0.0,0.0,0.0,0.0,0.0,0.0,0.0,0.0,0.0,0.0,0.0,0.0,0.0,0.0,0.0,0.0,0.0,0.0,0.0,0.0,0.0,0.0,0.0,0.0,0.0,0.0,0.0,0.0,0.0,0.0,0.0,0.0,0.0,5.4695,0.0,0.0,0.0,0.0,0.0,0.0,0.0,0.0,0.0,0.0,0.0,0.0,0.0,0.0,0.0,0.0,0.0,0.0,0.0,0.0,0.0,0.0,0.0,5.7997,5.7997,5.7997,5.7997,5.7997,0.0,0.0,0.0,0.0,0.0,0.0,0.0,5.7997,5.7997,5.7997,5.7997,5.7997,5.7997,5.7997,5.7997,5.7997,5.7997,0.0,0.0,0.0,0.0,0.0,0.0,0.0,0.0,0.0,0.0,0.0,0.0,0.0,0.0,0.0,0.0,0.0,0.0,0.0,0.0,0.0,0.0,0.0,0.0,0.0,0.0,0.0,0.0,0.0,0.0,0.0,0.0,0.0,0.0,0.0,0.0,0.0,0.0,0.0,0.0,0.0,0.0,0.0,0.0,0.0,0.0,0.0,0.0,0.0,0.0,0.0,0.0,0.0,0.0,0.0,0.0,0.0,0.0,0.0,0.0,0.0,0.0,0.0,5.5589,5.5504,5.4834,5.5564,5.5504,5.477,5.477,5.4695,5.4419,5.4419,0.0,0.0,0.0,0.0,0.0,0.0,0.0,0.0,0.0,0.0,0.0,0.0,0.0,0.0,0.0,0.0,0.0,0.0,0.0,0.0,0.0,5.7997,5.7997,5.7997,5.7997,5.7997,5.7997,0.0,0.0,0.0,0.0,0.0,5.7997,5.7997,5.7997,5.7997,5.7997,5.7997,5.7997,5.7997,5.7997,5.7997,5.7997,5.7997,5.7997,0.0,0.0,0.0,0.0,0.0,0.0,0.0,0.0,0.0,0.0,0.0,0.0,0.0,0.0,0.0,0.0,0.0,0.0,0.0,0.0,0.0,0.0,0.0,0.0,0.0,0.0,0.0,0.0,0.0,0.0,0.0,0.0,0.0,0.0,0.0,0.0,0.0,0.0,0.0,0.0,0.0,5.6616,5.5948,0.0,0.0,0.0,0.0,0.0,0.0,0.0,0.0,0.0,0.0,0.0,0.0,0.0,5.5951,5.6692,5.6702,5.6611,5.6482,5.6675,5.6322,5.5586,5.6387,5.6322,5.5517,5.5551,0.0,5.3685,5.3685,0.0,0.0,0.0,0.0,0.0,0.0,0.0,0.0,0.0,0.0,0.0,0.0,0.0,0.0,0.0,0.0,0.0,0.0,0.0,0.0,0.0,5.7997,5.7997,5.7997,5.7997,5.7997,5.7997,5.7997,0.0,0.0,0.0,5.7997,5.7997,5.7997,5.7997,5.7997,5.7997,5.7997,5.7997,5.7997,5.7997,5.7997,5.7997,5.7997,5.7997,5.7997,0.0,0.0,0.0,0.0,0.0,0.0,0.0,0.0,0.0,0.0,0.0,0.0,0.0,0.0,0.0,0.0,0.0,0.0,0.0,0.0,0.0,0.0,0.0,0.0,0.0,0.0,0.0,0.0,0.0,0.0,0.0,0.0,0.0,0.0,0.0,0.0,0.0,0.0,0.0,5.7726,5.7401,5.7029,5.6527,5.615,0.0,0.0,0.0,0.0,0.0,0.0,0.0,0.0,0.0,5.5697,5.6136,5.6309,5.6215,5.6198,5.6167,5.6167,5.6235,5.6065,5.5716,5.6065,5.6065,5.5716,5.5716,5.5344,5.4735,5.4735,5.4907,5.521,0.0,0.0,0.0,0.0,5.4735,5.4735,0.0,0.0,0.0,0.0,0.0,0.0,0.0,0.0,0.0,0.0,0.0,0.0,5.7997,5.7997,5.7997,5.7997,5.7997,5.7997,5.7997,5.7997,5.7997,0.0,5.7997,5.8107,5.829,5.851,5.851,5.8327,5.851,5.8621,5.8621,5.8621,5.8621,5.8621,5.8621,5.84,5.7997,5.7997,5.7997,5.7997,0.0,0.0,0.0,0.0,0.0,0.0,0.0,0.0,0.0,0.0,0.0,0.0,0.0,0.0,0.0,0.0,0.0,0.0,0.0,0.0,0.0,0.0,0.0,0.0,0.0,0.0,0.0,0.0,0.0,0.0,0.0,0.0,0.0,0.0,0.0,0.0,0.0,5.7821,5.7726,5.7726,5.6685,5.6095,0.0,0.0,0.0,0.0,0.0,0.0,5.6307,5.6641,5.6613,5.5962,5.6574,5.6576,5.5987,5.619,5.6258,5.6292,5.6435,5.6435,5.6258,5.6435,5.6469,5.6258,5.6258,5.6258,5.6258,5.5886,5.5716,5.5716,5.5716,5.5716,5.5716,5.5716,5.5716,5.5716,0.0,0.0,0.0,0.0,0.0,0.0,0.0,0.0,0.0,0.0,0.0,5.7997,5.7997,5.7997,5.7997,5.7997,5.7997,5.7997,5.7997,5.7997,5.7997,5.7997,5.7997,5.8364,5.9134,5.9905,5.9905,5.9171,5.9905,6.0272,6.0272,6.0272,6.0272,6.0272,6.0272,5.9428,5.7997,5.7997,5.7997,5.7997,5.7997,0.0,0.0,0.0,0.0,0.0,0.0,0.0,0.0,0.0,0.0,0.0,0.0,0.0,0.0,0.0,0.0,0.0,0.0,0.0,0.0,0.0,0.0,0.0,0.0,0.0,0.0,0.0,0.0,0.0,0.0,0.0,0.0,0.0,0.0,0.0,0.0,0.0,0.0,5.6964,5.6912,0.0,0.0,0.0,0.0,5.5869,5.6403,5.7137,5.7906,5.7234,5.6824,5.6729,5.6781,5.6803,5.6765,5.7442,5.778,5.778,5.8565,5.853,5.7853,5.8565,5.8496,5.778,5.778,5.778,5.7679,5.6292,5.5716,5.5716,5.5716,5.5716,5.5716,5.5716,5.5716,5.5716,0.0,0.0,0.0,0.0,0.0,0.0,0.0,0.0,5.7997,5.7997,5.7997,5.7997,5.7997,5.7997,5.7997,5.7997,5.7997,5.7997,5.7997,5.7997,5.7997,5.7997,5.851,5.9171,5.9942,6.0272,6.0272,5.9979,6.0272,6.0419,6.0419,6.0419,6.0419,6.0419,6.0419,6.0089,5.9501,5.8988,5.8767,5.8731,5.8217,5.7997,0.0,0.0,0.0,0.0,0.0,0.0,0.0,0.0,0.0,0.0,0.0,0.0,0.0,0.0,0.0,0.0,0.0,0.0,0.0,0.0,0.0,0.0,0.0,0.0,0.0,0.0,0.0,0.0,0.0,0.0,0.0,0.0,0.0,0.0,0.0,0.0,0.0,5.7546,5.767,0.0,5.7576,5.7198,5.7009,5.7253,5.7004,5.6971,5.7223,5.7974,5.8119,5.7498,5.8015,5.8048,5.7509,5.7746,5.7881,5.7881,5.8209,5.8209,5.7881,5.8209,5.8209,5.7881,5.7881,5.7881,5.7848,5.734,5.7103,5.7103,5.7103,5.7103,5.7103,5.7103,5.7103,5.7103,0.0,0.0,0.0,0.0,0.0,0.0,0.0,0.0,5.7997,5.7997,5.7997,5.7997,5.7997,5.7997,5.7997,5.7997,5.7997,5.7997,5.7997,5.7997,5.8107,5.84,5.9428,6.0126,6.0382,6.0933,6.108,6.0786,6.108,6.1227,6.1227,6.1227,6.1227,6.1227,6.1227,6.1227,6.1153,6.0346,5.9869,5.9575,5.9024,5.8657,5.84,0.0,0.0,0.0,0.0,0.0,0.0,0.0,0.0,0.0,0.0,0.0,0.0,0.0,0.0,0.0,0.0,0.0,0.0,0.0,0.0,0.0,0.0,0.0,0.0,0.0,0.0,0.0,0.0,0.0,0.0,0.0,0.0,0.0,0.0,0.0,5.7568,5.8339,5.7997,5.7953,5.8713,5.8129,5.7938,5.8485,5.7961,5.7731,5.8015,5.8515,5.8559,5.7954,5.8458,5.8458,5.7881,5.7881,5.7881,5.7881,5.7881,5.7881,5.7881,5.7881,5.7881,5.7881,5.7881,5.7881,5.7881,5.7881,5.7881,5.7881,5.7881,5.7881,5.7881,5.7881,5.7881,5.7881,0.0,0.0,0.0,0.0,0.0,0.0,0.0,5.7997,5.7997,5.7997,5.7997,5.7997,5.7997,5.7997,5.7997,5.7997,5.7997,5.7997,5.7997,5.8033,5.84,5.9245,6.0786,6.1263,6.0493,6.1998,6.2438,6.163,6.2438,6.2805,6.2805,6.2805,6.2805,6.2805,6.2805,6.2805,6.2768,6.1961,6.119,6.0493,6.0419,5.9942,5.9245,0.0,0.0,0.0,0.0,0.0,0.0,0.0,0.0,0.0,0.0,0.0,0.0,0.0,0.0,0.0,0.0,0.0,0.0,0.0,0.0,0.0,0.0,0.0,0.0,0.0,0.0,0.0,0.0,0.0,0.0,0.0,0.0,0.0,5.7127,5.7635,5.8388,5.9096,5.7882,5.7276,5.8048,5.8779,5.9264,5.9324,5.9219,5.9443,6.0273,5.8841,5.7954,5.7881,5.7881,5.7881,5.7881,5.7881,5.7881,5.7881,5.7881,5.7881,5.7881,5.7881,5.7881,5.7881,5.7881,5.7881,5.7881,5.7881,5.7881,5.7881,5.7881,5.7881,5.7881,5.7881,5.7881,5.7881,0.0,0.0,0.0,0.0,0.0,0.0,0.0,5.7997,5.7997,5.7997,5.7997,5.7997,5.7997,5.7997,5.7997,5.7997,5.7997,5.7997,5.7997,5.8547,5.9501,6.0896,6.1374,6.1777,6.2144,6.2585,6.2695,6.2475,6.2695,6.2805,6.2805,6.2805,6.2805,6.2805,6.2805,6.2805,6.2805,6.2585,6.2365,6.2034,6.086,6.0272,6.0089,0.0,0.0,0.0,0.0,0.0,0.0,0.0,0.0,0.0,0.0,0.0,0.0,0.0,0.0,0.0,0.0,0.0,0.0,0.0,0.0,0.0,0.0,0.0,0.0,0.0,0.0,0.0,0.0,0.0,0.0,0.0,0.0,5.9727,5.9496,5.8642,5.8367,5.9076,5.9833,5.988,5.894,5.9566,6.0078,6.0078,5.9434,5.9178,5.9443,5.9011,5.8494,5.7881,5.7881,5.7881,5.7881,5.7881,5.7881,5.7881,5.7881,5.7881,5.7881,5.7881,5.7881,5.7881,5.7881,5.7881,5.7881,5.7881,5.7881,5.7881,5.7881,5.7881,5.7881,5.7881,5.7881,5.7881,0.0,0.0,0.0,0.0,0.0,0.0,0.0,5.7997,5.7997,5.7997,5.7997,5.7997,5.7997,5.7997,5.7997,5.7997,5.7997,5.8143,5.8474,5.9575,6.0639,6.1557,6.1924,6.2328,6.2805,6.2805,6.2805,6.2805,6.2805,6.2805,6.2805,6.2805,6.2805,6.2805,6.2805,6.2805,6.2805,6.2805,6.2805,6.2732,6.1777,6.119,6.0896,6.0896,6.0676,6.0346,5.9869,5.9722,5.9648,5.9171,0.0,0.0,0.0,0.0,0.0,0.0,0.0,0.0,0.0,0.0,0.0,0.0,0.0,0.0,0.0,0.0,0.0,0.0,0.0,0.0,0.0,0.0,0.0,0.0,5.9817,6.0516,6.0872,5.9844,5.9228,5.9689,5.9929,5.9927,5.9634,5.9768,5.9832,5.9832,5.9377,5.9111,5.9111,5.8806,5.8388,5.7881,5.7881,5.7881,5.7881,5.7881,5.7881,5.7881,5.7881,5.7881,5.7881,5.7881,5.7881,5.7881,5.7881,5.7881,5.7881,5.7881,5.7881,0.0,0.0,0.0,0.0,0.0,5.7881,5.7881,0.0,0.0,0.0,0.0,0.0,0.0,0.0,5.7997,5.7997,5.7997,5.7997,5.7997,5.7997,5.7997,5.7997,5.7997,5.807,5.851,5.9428,6.0823,6.163,6.1741,6.2438,6.2805,6.2805,6.2805,6.2805,6.2805,6.2805,6.2805,6.2805,6.2805,6.2805,6.2805,6.2805,6.2805,6.2805,6.2805,6.2805,6.2805,6.2805,6.2365,6.1741,6.1741,6.13,6.0676,6.0566,6.0529,6.0529,6.0419,0.0,0.0,0.0,0.0,0.0,0.0,0.0,0.0,0.0,0.0,0.0,0.0,0.0,0.0,0.0,0.0,0.0,0.0,0.0,0.0,0.0,0.0,0.0,0.0,6.0392,6.058,6.1113,6.082,6.0519,6.0397,5.9279,5.8875,6.0023,5.9574,5.9245,5.9245,5.9178,5.9111,5.9245,0.0,0.0,0.0,0.0,5.7881,5.7881,5.7881,5.7881,5.7881,5.7881,5.7881,5.7881,5.7881,5.7881,5.7881,5.7881,5.7881,5.7881,5.7881,5.7881,5.7881,5.7881,5.7881,5.7881,5.7881,5.7881,5.7881,0.0,0.0,0.0,0.0,0.0,0.0,0.0,5.7997,5.7997,5.7997,5.7997,5.7997,5.7997,5.7997,5.7997,5.7997,5.8584,5.9575,6.1043,6.141,6.1887,6.2548,6.2732,6.2805,6.2805,6.2805,6.2805,6.2805,6.2805,6.2805,6.2805,6.2805,6.2805,6.2805,6.2805,6.2805,6.2805,6.2805,6.2805,6.2805,6.2805,6.2732,6.2585,6.2585,6.2475,6.2254,6.1594,6.1374,6.1263,6.0639,6.0419,6.0419,6.0419,6.0309,0.0,0.0,0.0,0.0,0.0,0.0,0.0,0.0,0.0,0.0,0.0,0.0,0.0,0.0,0.0,0.0,0.0,0.0,0.0,6.0427,6.0387,5.996,5.8772,6.0176,6.1113,6.0458,6.1229,6.0902,5.8564,5.9478,6.0149,6.0149,5.9509,5.9377,6.0086,5.9311,5.8564,5.7881,5.7881,5.7881,5.7881,5.7881,5.7881,5.7881,0.0,0.0,5.7881,5.7881,5.7881,5.7881,5.7881,5.7881,5.7881,5.7881,5.7881,5.7881,5.7881,5.7881,5.7881,5.7881,5.7881,5.7881,0.0,0.0,0.0,0.0,0.0,0.0,0.0,5.7997,5.7997,5.7997,5.7997,5.7997,5.7997,5.7997,5.7997,5.7997,5.9098,6.0309,6.152,6.1998,6.2401,6.2805,6.2805,6.2805,6.2805,6.2805,6.2805,6.2805,6.2805,6.2805,6.2805,6.2805,6.2805,6.2805,6.2805,6.2805,6.2805,6.2805,6.2805,6.2805,6.2805,6.2805,6.2805,6.2805,6.2805,6.2768,6.2365,6.2218,6.2144,6.1741,6.1594,6.1594,6.1594,6.1337,6.1006,0.0,0.0,0.0,0.0,0.0,0.0,0.0,0.0,0.0,0.0,0.0,0.0,0.0,0.0,6.2082,0.0,0.0,6.1322,6.0519,6.0397,6.0086,5.9279,5.9797,6.0176,5.9832,6.0484,6.03,5.8703,5.8875,5.9145,5.9145,5.8772,5.8703,5.9145,5.8772,5.8317,5.7881,5.7881,5.7881,5.7881,5.7881,5.7881,5.7881,5.7881,5.7881,5.7881,5.7881,5.7881,5.7881,5.7881,5.7881,5.7881,5.7881,5.7881,5.7881,5.7881,5.7881,5.7881,5.7881,5.7881,5.7881,0.0,0.0,0.0,0.0,0.0,0.0,0.0,5.7997,5.7997,5.7997,5.7997,5.7997,5.7997,5.7997,5.8143,5.8437,5.9795,6.097,6.1777,6.2438,6.2805,6.2805,6.2805,6.2805,6.2805,6.2805,6.2805,6.2805,6.2805,6.2805,6.2805,6.2805,6.2805,6.2805,6.2805,6.2805,6.2805,6.2805,6.2805,6.2805,6.2805,6.2805,6.2805,6.2805,6.2805,6.2805,6.2805,6.2805,6.2805,6.2805,6.2805,6.2805,6.2805,6.2365,6.1814,6.1814,6.1374,0.0,0.0,0.0,0.0,0.0,0.0,0.0,0.0,0.0,6.2805,6.2805,6.2805,6.2805,6.2805,6.2567,6.1969,6.082,6.0335,6.0149,6.0149,5.9704,5.9311,5.9111,5.9377,5.9474,5.9111,5.8703,5.8388,5.8388,5.8209,5.8137,5.8137,5.8273,5.8303,5.8118,5.8254,5.8321,5.8321,5.8321,5.8321,5.8321,5.8321,5.8321,5.8321,5.8321,5.8321,5.8321,5.8321,5.8321,5.8321,5.8321,5.8321,5.8321,5.8321,5.8321,5.8287,5.7983,5.7881,5.7881,0.0,0.0,0.0,0.0,0.0,0.0,0.0,0.0,5.7997,5.7997,5.7997,5.7997,5.7997,5.7997,5.8584,6.0015,6.0933,6.1814,6.2622,6.2768,6.2805,6.2805,6.2805,6.2805,6.2805,6.2805,6.2805,6.2805,6.2805,6.2805,6.2805,6.2805,6.2805,6.2805,6.2805,6.2805,6.2805,6.2805,6.2805,6.2805,6.2805,6.2805,6.2805,6.2805,6.2805,6.2805,6.2805,6.2805,6.2805,6.2805,6.2805,6.2805,6.2805,6.2768,6.2695,6.2695,6.2622,6.2548,6.2548,6.2548,6.2548,6.2658,6.2732,6.2805,0.0,0.0,6.2805,6.2805,6.2805,6.2805,6.2805,6.1604,6.082,6.1343,6.0238,5.9245,5.9245,5.9832,5.996,5.9178,6.0423,6.0725,5.9245,5.9704,6.0086,6.0086,5.9377,5.9011,5.9011,5.9667,5.9663,5.8896,5.9505,5.9844,5.9844,5.9844,5.9844,5.9844,5.9844,5.9844,5.9844,5.9844,5.9844,5.9844,5.9844,5.9844,5.9844,5.9844,5.9844,5.9844,5.9844,5.9844,5.9708,5.8389,5.7881,5.7881,0.0,0.0,0.0,0.0,0.0,0.0,0.0,0.0,0.0,5.7997,5.7997,5.7997,5.7997,5.8437,5.9171,6.0309,6.1153,6.1924,6.2768,6.2805,6.2805,6.2805,6.2805,6.2805,6.2805,6.2805,6.2805,6.2805,6.2805,6.2805,6.2805,6.2805,6.2805,6.2805,6.2805,6.2805,6.2805,6.2805,6.2805,6.2805,6.2805,6.2805,6.2805,6.2805,6.2805,6.2805,6.2805,6.2805,0.0,6.2805,6.2805,6.2805,6.2805,6.2805,6.2805,6.2805,6.2805,6.2805,6.2805,6.2805,0.0,0.0,6.2805,6.2805,6.2805,6.2805,6.2805,6.2805,6.2805,6.2805,6.2805,6.2271,6.1604,0.0,6.0335,5.9832,5.9832,5.9346,5.9145,5.9768,6.0086,5.9896,5.9178,5.9011,5.915,5.953,5.925,5.9242,5.9652,5.9993,6.0052,5.9641,5.9945,6.0114,6.0114,6.0114,6.0114,6.0114,6.0114,6.0114,6.0114,6.0114,6.0114,6.0114,6.0114,6.0114,6.0114,6.0114,6.0114,6.0114,6.0114,6.0114,5.9979,5.893,5.8558,5.849,0.0,0.0,0.0,0.0,0.0,0.0,0.0,0.0,0.0,0.0,5.7997,5.807,5.8327,5.9061,5.9869,6.0676,6.1484,6.2181,6.2768,6.2805,6.2805,6.2805,6.2805,6.2805,6.2805,6.2805,6.2805,6.2805,6.2805,6.2805,6.2805,6.2805,6.2805,6.2805,6.2805,6.2805,6.2805,6.2805,6.2805,6.2805,6.2805,6.2805,6.2805,6.2805,6.2805,6.2805,6.2805,6.2805,6.2805,6.2805,6.2805,6.2805,6.2805,6.2805,6.2805,6.2805,6.2805,6.2805,6.2805,0.0,0.0,6.2805,6.2805,6.2805,6.2805,6.2805,6.2805,6.2805,6.2805,6.2805,6.2805,6.2464,6.186,6.0879,6.0335,6.0023,6.0058,5.9011,5.8772,6.0211,5.9849,5.9627,5.9757,5.9012,5.8965,5.997,5.9565,5.9539,6.008,6.0317,6.0419,6.0419,6.0622,6.0723,6.0723,6.0723,6.0723,6.0723,6.0723,6.0723,6.0723,6.0723,6.0723,6.0723,6.0723,6.0723,6.0723,6.0723,6.0723,6.0723,6.0723,6.0723,6.0655,5.9911,5.9505,5.9235,0.0,0.0,0.0,0.0,0.0,0.0,0.0,0.0,0.0,0.0,0.0,0.0,0.0,5.9905,6.0676,6.1484,6.2291,6.2768,6.2805,6.2805,6.2805,6.2805,6.2805,6.2805,6.2805,6.2805,6.2805,6.2805,6.2805,6.2805,6.2805,6.2805,6.2805,6.2805,6.2805,6.2805,6.2805,6.2805,6.2805,6.2805,6.2805,6.2805,6.2805,6.2805,6.2805,6.2805,6.2805,6.2805,6.2805,6.2805,6.2805,6.2805,6.2805,6.2805,6.2805,6.2805,6.2805,6.2805,6.2805,0.0,6.2805,6.2805,6.2805,6.2805,6.2805,6.2805,6.2805,6.2805,6.2805,6.2805,6.2805,6.1492,6.07,6.14,6.0238,5.9145,5.9247,5.9145,5.9377,6.0273,6.0403,6.0625,0.0,6.0691,6.0872,6.2464,6.1045,6.008,6.0114,6.0858,6.1264,6.1264,6.1941,6.2313,6.2313,6.2313,6.2313,6.2313,6.2313,6.2313,6.2313,6.2313,6.2313,6.2313,6.2313,6.2313,6.2313,6.2313,6.2313,6.2313,6.2313,6.2313,6.2245,6.1501,6.0757,6.0047,0.0,0.0,0.0,0.0,0.0,0.0,0.0,0.0,0.0,0.0,0.0,0.0,0.0,0.0,0.0,0.0,6.2365,6.2805,6.2805,6.2805,6.2805,6.2805,6.2805,6.2805,6.2805,6.2805,6.2805,6.2805,6.2805,6.2805,6.2805,6.2805,6.2805,6.2805,6.2805,6.2805,6.2805,6.2805,6.2805,6.2805,6.2805,6.2805,6.2805,6.2805,6.2805,6.2805,0.0,6.2805,6.2805,6.2805,6.2805,6.2805,6.2805,6.2805,6.2805,6.2805,6.2805,6.2805,6.2805,0.0,6.2805,6.2805,6.2805,6.2805,6.2805,6.2805,6.2805,6.2805,6.2805,6.2805,6.2805,6.2324,6.1715,6.0938,6.0335,5.9768,5.9212,5.9111,5.9453,6.0241,6.0319,0.0,0.0,0.0,0.0,6.1765,6.1238,6.1095,6.1603,6.1873,6.2009,6.2009,6.2245,6.2381,6.2381,6.2381,6.2381,6.2381,6.2381,6.2381,6.2381,6.2381,6.2381,6.2381,6.2381,6.2381,6.2381,6.2381,6.2381,6.2381,6.2381,6.2381,6.2347,6.211,6.1839,6.1467,0.0,0.0,0.0,0.0,0.0,0.0,0.0,0.0,0.0,0.0,0.0,0.0,0.0,0.0,0.0,0.0,0.0,6.2805,6.2805,6.2805,6.2805,6.2805,6.2805,6.2805,6.2805,6.2805,6.2805,6.2805,6.2805,6.2805,6.2805,6.2805,6.2805,6.2805,6.2805,6.2805,6.2805,6.2805,6.2805,6.2805,6.2805,6.2805,6.2805,6.2805,6.2805,0.0,6.2805,6.2805,6.2805,6.2805,6.2805,6.2805,6.2805,6.2805,6.2805,6.2805,6.2805,6.2805,6.2805,6.2805,6.2805,6.2805,6.2805,6.2805,6.2805,6.2805,6.2805,6.2805,6.2567,6.2376,6.2376,6.1879,6.1229,6.0519,6.0397,6.0086,5.9245,5.9621,6.0035,6.0254,6.0774,6.1502,0.0,0.0,0.0,6.218,6.1902,6.1907,6.2347,6.2381,6.2381,6.2381,6.2381,6.2381,6.2381,6.2381,6.2381,6.2381,6.2381,6.2381,6.2381,6.2381,6.2381,6.2381,6.2381,6.2381,6.2381,6.2381,6.2381,6.2381,6.2381,6.2381,6.2381,6.2381,6.2381,6.2245,0.0,0.0,0.0,0.0,0.0,0.0,0.0,0.0,0.0,0.0,0.0,0.0,0.0,0.0,0.0,0.0,0.0,0.0,6.2805,6.2805,6.2805,6.2805,6.2805,6.2805,6.2805,6.2805,6.2805,6.2805,6.2805,6.2805,6.2805,6.2805,6.2805,6.2805,6.2805,6.2805,6.2805,6.2805,6.2805,6.2805,6.2805,6.2805,6.2805,6.2805,6.2805,6.2805,6.2805,6.2805,6.2805,6.2805,6.2805,6.2805,6.2805,6.2805,6.2805,6.2805,6.2805,6.2805,6.2805,6.2805,6.2805,6.2805,6.2805,6.2805,6.2805,6.2805,6.2805,6.2805,6.2129,6.1604,0.0,0.0,5.9509,6.0335,6.0432,6.0086,5.9245,6.0463,6.1119,0.0,0.0,0.0,0.0,0.0,0.0,6.3647,0.0,6.2381,6.2381,6.2381,6.2381,6.2381,6.2381,6.2381,6.2381,6.2381,6.2381,6.2381,6.2381,6.2381,6.2381,6.2381,6.2381,6.2381,6.2381,6.2381,6.2381,6.2381,6.2381,6.2381,6.2381,6.2381,6.2381,6.2381,6.2381,6.2381,0.0,0.0,0.0,0.0,0.0,0.0,0.0,0.0,0.0,0.0,0.0,0.0,0.0,0.0,0.0,0.0,0.0,0.0,6.2805,6.2805,6.2805,6.2805,6.2805,6.2805,6.2805,6.2805,6.2805,6.2805,6.2805,6.2805,6.2805,6.2805,6.2805,6.2805,6.2805,6.2805,6.2805,6.2805,6.2805,6.2805,6.2805,6.2805,6.2805,6.2805,6.2805,6.2805,6.2805,6.2805,6.2805,6.2805,6.2805,6.2805,6.2805,6.2805,6.2805,6.2805,6.2805,6.2805,6.2805,6.2805,6.2805,6.2805,6.2805,6.2805,6.2805,6.2805,6.2805,6.2805,6.2129,6.177,0.0,0.0,0.0,6.1229,6.076,0.0,5.9245,5.9972,0.0,6.0228,0.0,6.253,6.2438,6.26,0.0,0.0,6.2537,6.2381,6.2381,6.2381,6.2381,6.2381,6.2381,6.2381,6.2381,6.2381,6.2381,6.2381,6.2381,6.2381,6.2381,6.2381,6.2381,6.2381,6.2381,6.2381,6.2381,6.2381,6.2381,6.2381,6.2381,6.2381,6.2381,6.2381,6.2381,6.2381,0.0,0.0,0.0,0.0,0.0,0.0,0.0,0.0,0.0,0.0,0.0,0.0,0.0,0.0,0.0,0.0,0.0,0.0,0.0,6.2805,6.2805,6.2805,6.2805,6.2805,6.2805,6.2805,6.2805,6.2805,6.2805,6.2805,6.2805,6.2805,6.2805,6.2805,6.2805,6.2805,6.2805,6.2805,6.2805,0.0,0.0,6.2805,6.2805,6.2805,6.2805,6.2805,6.2805,6.2805,6.2805,0.0,0.0,6.2805,6.2805,6.2805,6.2805,6.2805,0.0,6.2805,6.2805,6.2805,6.2805,6.2805,6.2805,6.2805,6.2805,6.2805,6.2705,6.2324,6.1604,0.0,6.1135,0.0,0.0,0.0,0.0,0.0,5.9663,6.0324,6.077,0.0,6.1688,0.0,6.2425,6.2381,6.2381,0.0,6.2381,6.2381,6.2381,6.2381,6.2381,6.2381,6.2719,6.3024,6.3362,6.3362,6.3362,6.3362,6.3362,6.3362,6.3362,6.3362,6.3362,6.3362,0.0,6.3193,6.2888,6.2888,6.2685,6.2381,6.2381,6.2381,6.2381,6.2381,6.2381,6.2381,0.0,0.0,0.0,0.0,0.0,0.0,0.0,0.0,0.0,0.0,0.0,0.0,0.0,0.0,0.0,0.0,0.0,0.0,0.0,0.0,6.2805,6.2805,6.2805,6.2805,6.2805,6.2805,6.2805,6.2805,6.2805,6.2805,6.2805,6.2805,6.2805,6.2805,6.2805,6.2805,6.2805,6.2805,6.2805,6.2805,6.2805,6.2805,6.2805,0.0,6.2805,6.2805,6.2805,6.2805,6.2805,6.2805,6.2805,6.2805,6.2805,6.2805,6.2805,6.2805,6.2805,6.2805,6.2805,6.2805,6.2805,6.2805,6.2805,6.2805,6.2805,6.2805,6.2567,6.177,6.1055,6.0273,5.9443,5.8703,5.8458,5.9178,0.0,5.9388,6.0185,6.0843,6.1208,6.1274,6.1941,6.2381,6.2381,6.2381,6.2381,6.2381,6.2381,6.2381,6.2381,6.2482,6.2584,6.2685,6.3328,6.3971,6.458,6.4613,6.4613,6.4613,6.4613,6.4613,6.4613,6.4613,6.4613,6.4613,6.4613,6.4241,6.3666,6.3666,6.326,6.2685,6.2685,6.2618,6.255,6.255,6.2482,6.2381,0.0,0.0,0.0,0.0,0.0,0.0,0.0,0.0,0.0,0.0,5.7997,5.8621,0.0,0.0,0.0,0.0,0.0,0.0,0.0,0.0,0.0,6.2805,6.2805,6.2805,6.2805,6.2805,6.2805,6.2805,6.2805,6.2805,6.2805,6.2805,6.2805,6.2805,6.2805,6.2805,6.2805,6.2805,6.2805,6.2805,6.2805,6.2805,6.2805,6.2805,0.0,0.0,6.2805,6.2805,6.2805,6.2805,6.2805,6.2805,6.2805,6.2805,6.2805,6.2805,6.2805,6.2805,6.2805,6.2805,6.2805,6.2805,6.2805,6.2805,6.2805,6.2805,0.0,6.177,6.1492,6.1113,6.0335,6.0023,6.0023,6.0149,0.0,0.0,0.0,0.0,6.0536,0.0,0.0,0.0,0.0,0.0,0.0,0.0,0.0,6.2381,6.2381,6.299,6.3599,6.4208,6.4343,6.4478,6.4613,6.4613,6.4613,6.4613,6.4613,6.4613,6.4613,6.4613,6.4613,6.4613,6.4613,0.0,6.441,6.441,6.4343,6.4208,6.4208,6.3869,6.3328,6.3328,6.2922,6.2381,0.0,0.0,0.0,0.0,0.0,0.0,0.0,5.9501,5.9245,5.9245,5.9245,5.9538,6.0309,6.0786,6.1484,0.0,0.0,0.0,0.0,0.0,0.0,0.0,6.2805,6.2805,6.2805,6.2805,6.2805,6.2805,0.0,6.2805,6.2805,6.2805,6.2805,6.2805,6.2805,6.2805,6.2805,6.2805,6.2805,6.2805,6.2805,6.2805,6.2805,0.0,0.0,0.0,0.0,6.2805,6.2805,6.2805,6.2805,6.2805,6.2805,6.2805,6.2805,6.2805,6.2805,6.2805,6.2805,6.2805,6.2805,6.2805,6.2805,6.2805,6.2805,0.0,0.0,6.1113,6.0997,6.058,5.9346,5.9443,0.0,5.9704,0.0,0.0,0.0,0.0,0.0,0.0,0.0,0.0,0.0,0.0,0.0,0.0,0.0,6.255,6.2956,6.3666,6.441,6.5155,6.5155,6.5358,6.573,6.5764,6.5764,6.5764,6.5764,6.5764,6.5764,6.5764,6.5764,6.5764,6.5764,0.0,6.5155,6.5155,6.4952,6.4613,6.4613,6.4377,6.4072,6.4072,6.3632,6.2956,0.0,0.0,0.0,0.0,0.0,0.0,0.0,6.0529,6.0419,6.0419,6.0566,6.0676,6.0676,6.1227,6.1924,0.0,0.0,0.0,0.0,0.0,0.0,0.0,0.0,0.0,0.0,0.0,0.0,6.2805,6.2805,0.0,0.0,0.0,0.0,0.0,6.2805,6.2805,6.2805,6.2805,6.2805,0.0,0.0,6.2805,0.0,0.0,0.0,0.0,0.0,6.2805,6.2805,6.2805,6.2805,6.2805,6.2805,6.2805,6.2805,6.2805,6.2805,6.2805,6.2805,6.2805,6.2805,6.2805,6.2805,6.2805,6.2805,6.2324,0.0,6.058,6.064,6.0273,5.828,5.8703,5.9245,0.0,5.8424,5.8863,6.0836,0.0,6.0883,0.0,6.2381,0.0,0.0,0.0,0.0,0.0,0.0,0.0,6.37,6.4444,6.5155,6.5899,6.5933,6.6203,6.6812,6.6812,6.6812,6.6812,6.6812,6.6812,6.6812,6.6812,6.6812,6.6812,6.6812,0.0,0.0,6.5933,6.5595,6.5087,6.5087,6.4986,6.485,6.485,6.4377,6.3768,0.0,0.0,0.0,0.0,0.0,0.0,0.0,6.086,6.0419,6.0419,6.1043,6.1484,6.1484,6.1557,6.1924,0.0,0.0,0.0,0.0,0.0,0.0,0.0,0.0,0.0,0.0,0.0,0.0,6.2805,6.2805,0.0,0.0,0.0,0.0,0.0,0.0,6.2805,6.2805,6.2805,0.0,0.0,0.0,0.0,0.0,0.0,0.0,0.0,0.0,6.2805,6.2805,0.0,0.0,6.2805,6.2805,6.2805,6.2805,6.2805,0.0,0.0,6.2805,6.2805,6.2805,6.2805,6.2805,6.2805,6.2805,0.0,6.2271,6.07,6.1548,6.1659,5.8528,5.9212,5.9768,5.828,5.8564,5.9288,6.0068,6.0861,6.1555,6.229,0.0,0.0,0.0,0.0,0.0,0.0,0.0,0.0,6.4512,6.5189,6.5933,6.6677,6.6711,6.6745,6.6812,6.6812,6.6812,6.6812,6.6812,6.6812,6.6812,6.6812,6.6812,6.6812,6.6812,0.0,0.0,6.6711,6.6677,6.6609,6.6609,6.6203,6.5595,6.5595,6.5121,6.4512,0.0,0.0,0.0,0.0,0.0,0.0,6.2328,6.2071,6.1851,6.1851,6.2144,6.2328,6.2328,6.2328,6.2438,6.2768,0.0,0.0,0.0,0.0,0.0,0.0,0.0,0.0,0.0,0.0,6.2805,6.2805,6.2805,0.0,0.0,0.0,0.0,0.0,0.0,0.0,6.2805,6.2805,0.0,0.0,0.0,0.0,0.0,0.0,0.0,0.0,0.0,0.0,6.2805,0.0,0.0,0.0,6.2805,6.2805,0.0,0.0,6.2805,6.2805,6.2805,6.2805,6.2805,6.2805,6.2805,6.2805,6.2805,6.2464,6.1915,6.1229,6.1604,6.14,5.9113,5.9609,6.0023,5.8806,5.8494,5.8971,6.0621,6.0716,6.1075,6.229,0.0,0.0,0.0,0.0,0.0,0.0,0.0,0.0,6.5222,6.5967,6.6508,6.6812,6.6812,6.6812,6.6812,6.6812,6.6812,6.6812,6.6812,6.6812,6.6812,6.6812,6.6812,6.6812,6.6812,0.0,0.0,6.6812,6.6812,6.6812,6.6812,6.6643,6.6373,6.6373,6.5899,6.5256,0.0,0.0,0.0,0.0,0.0,6.2805,6.2805,6.2805,6.2805,6.2805,6.2805,6.2805,6.2805,6.2805,6.2805,6.2805,6.2805,0.0,0.0,0.0,0.0,0.0,0.0,0.0,0.0,0.0,6.2805,6.2805,6.2805,6.2805,0.0,0.0,0.0,0.0,0.0,0.0,0.0,0.0,0.0,0.0,0.0,0.0,0.0,0.0,0.0,0.0,0.0,0.0,0.0,0.0,0.0,6.2805,6.2805,6.2805,6.2805,6.2805,6.2805,6.2805,6.2805,6.2805,6.2805,6.2805,6.2805,6.2805,6.2805,6.2376,6.1915,6.1659,6.177,6.14,5.9543,5.9867,6.0023,5.8943,5.8424,5.8934,6.0765,6.0716,6.0959,0.0,0.0,0.0,0.0,0.0,0.0,0.0,0.0,0.0,6.5967,6.6542,6.6812,6.6812,6.6812,6.6812,6.6812,6.6812,6.6812,6.6812,6.6812,6.6812,6.6812,6.6812,6.6812,6.6812,6.6812,0.0,0.0,6.6812,6.6812,6.6812,6.6812,6.6812,6.6812,6.6812,6.6474,6.6034,0.0,0.0,0.0,0.0,0.0,0.0,6.2805,6.2805,6.2805,6.2805,6.2805,6.2805,6.2805,6.2805,6.2805,6.2805,6.2805,0.0,0.0,0.0,0.0,0.0,0.0,0.0,0.0,0.0,6.2805,6.2805,6.2805,6.2805,6.2805,6.2805,6.2805,6.2805,0.0,0.0,0.0,0.0,0.0,0.0,0.0,0.0,0.0,0.0,0.0,0.0,0.0,0.0,0.0,0.0,0.0,0.0,0.0,6.2805,6.2805,6.2805,6.2805,6.2805,6.2805,6.2805,6.2805,6.2805,6.2805,6.2805,6.2805,6.2805,6.2567,6.177,6.2219,6.2023,5.9539,5.9832,5.9832,5.8209,5.8564,5.9323,6.0028,6.0861,0.0,0.0,0.0,0.0,0.0,0.0,0.0,0.0,0.0,0.0,6.6779,6.6812,6.6812,6.6812,6.6812,6.6812,6.6812,6.6812,6.6812,6.6812,6.6812,6.6812,6.6812,6.6812,6.6812,6.6812,0.0,0.0,0.0,6.6812,6.6812,6.6812,6.6812,6.6812,6.6812,6.6812,6.6812,6.6812,0.0,0.0,0.0,0.0,0.0,0.0,0.0,6.2805,6.2805,6.2805,6.2805,6.2805,6.2805,6.2805,6.2805,6.2805,6.2805,0.0,0.0,0.0,0.0,0.0,0.0,0.0,0.0,0.0,6.2805,6.2805,6.2805,6.2805,6.2805,6.2805,6.2805,6.2805,6.2805,0.0,0.0,0.0,0.0,0.0,0.0,0.0,0.0,0.0,0.0,0.0,0.0,0.0,0.0,0.0,0.0,0.0,0.0,0.0,0.0,6.2805,6.2805,6.2805,6.2805,6.2805,6.2805,6.2805,6.2805,6.2805,6.2805,6.2805,6.2755,6.2464,6.2618,6.2376,6.1019,6.058,6.0023,5.8875,5.8494,5.8719,5.9953,0.0,0.0,0.0,0.0,0.0,0.0,0.0,0.0,0.0,0.0,0.0,6.6779,6.6812,6.6812,6.6812,6.6812,6.6812,6.6812,6.6812,6.6812,6.6812,6.6812,6.6812,6.6812,6.6812,6.6812,0.0,0.0,0.0,0.0,6.6812,6.6812,6.6812,6.6812,6.6812,6.6812,6.6812,6.6812,6.6812,0.0,0.0,0.0,0.0,0.0,0.0,0.0,6.2805,6.2805,6.2805,6.2805,6.2805,6.2805,6.2805,6.2805,6.2805,6.2805,0.0,0.0,0.0,0.0,0.0,0.0,0.0,0.0,6.2805,6.2805,6.2805,6.2805,6.2805,6.2805,6.2805,6.2805,6.2805,6.2805,0.0,0.0,0.0,0.0,0.0,0.0,0.0,6.2805,0.0,0.0,0.0,0.0,0.0,0.0,0.0,0.0,0.0,0.0,0.0,0.0,0.0,6.2805,6.2805,6.2805,6.2805,6.2805,6.2805,6.2805,6.2805,6.2805,6.2805,6.2805,6.2805,6.2805,6.2567,6.177,6.0938,6.0211,5.9704,5.8875,5.8971,6.0802,0.0,0.0,0.0,0.0,0.0,0.0,0.0,0.0,0.0,0.0,0.0,6.6779,6.6812,6.6812,6.6812,6.6812,6.6812,6.6812,6.6812,6.6812,6.6812,6.6812,6.6812,6.6812,6.6812,6.6812,0.0,0.0,0.0,0.0,6.6812,6.6812,6.6812,6.6812,6.6812,6.6812,6.6812,6.6812,6.6812,0.0,0.0,0.0,0.0,0.0,0.0,0.0,6.2805,6.2805,6.2805,6.2805,6.2805,6.2805,6.2805,6.2805,6.2805,0.0,0.0,0.0,0.0,0.0,0.0,0.0,0.0,6.2805,6.2805,6.2805,6.2805,6.2805,6.2805,6.2805,6.2805,6.2805,6.2805,6.2805,6.2805,0.0,0.0,0.0,0.0,0.0,0.0,0.0,0.0,0.0,0.0,0.0,0.0,0.0,0.0,0.0,0.0,0.0,0.0,0.0,0.0,0.0,0.0,0.0,6.2805,6.2805,6.2805,6.2805,6.2805,6.2805,6.2805,0.0,6.2805,6.2805,6.2567,6.1824,6.0997,6.0494,6.0494,5.9768,6.0032,6.2386,6.2118,0.0,0.0,0.0,0.0,0.0,0.0,0.0,0.0,0.0,0.0,6.6812,6.6812,6.6812,6.6812,6.6812,6.6812,6.6812,6.6812,6.6812,6.6812,6.6812,6.6812,6.6812,6.6812,6.6812,0.0,0.0,6.6812,0.0,6.6812,6.6812,6.6812,6.6812,6.6812,6.6812,6.6812,6.6812,6.6812,0.0,0.0,0.0,0.0,0.0,0.0,0.0,0.0,0.0,0.0,6.2805,6.2805,6.2805,6.2805,6.2805,0.0,0.0,0.0,0.0,0.0,0.0,0.0,0.0,0.0,6.2805,6.2805,6.2805,6.2805,6.2805,6.2805,6.2805,6.2805,6.2805,6.2805,6.2805,6.2805,0.0,0.0,0.0,0.0,0.0,0.0,0.0,0.0,0.0,0.0,6.2805,6.2805,0.0,0.0,0.0,0.0,0.0,0.0,0.0,0.0,6.2805,6.2805,6.2805,0.0,6.2805,6.2805,6.2805,6.2805,0.0,6.2805,0.0,0.0,0.0,0.0,6.2567,6.186,6.1286,6.1286,6.064,6.0678,6.245,0.0,0.0,0.0,0.0,0.0,0.0,0.0,0.0,0.0,0.0,6.6812,6.6812,6.6812,6.6812,6.6812,6.6812,6.6812,6.6812,6.6812,6.6812,6.6812,6.6812,6.6812,6.6812,6.6812,6.6812,0.0,0.0,6.6812,6.6812,6.6812,6.6812,6.6812,6.6812,6.6812,6.6812,6.6812,6.6812,6.6812,0.0,0.0,0.0,0.0,0.0,0.0,0.0,0.0,0.0,0.0,0.0,6.2805,6.2805,6.2805,0.0,0.0,0.0,0.0,0.0,0.0,0.0,0.0,0.0,6.2805,6.2805,6.2805,6.2805,6.2805,6.2805,6.2805,6.2805,6.2805,6.2805,6.2805,6.2805,6.2805,0.0,0.0,0.0,0.0,6.2805,0.0,0.0,0.0,0.0,0.0,6.2805,6.2805,0.0,6.2805,6.2805,6.2805,0.0,0.0,0.0,0.0,6.2805,6.2805,6.2805,6.2805,6.2805,6.2805,6.2805,6.2805,6.2805,6.2805,0.0,0.0,0.0,0.0,0.0,0.0,6.1715,6.2076,6.178,6.201,0.0,0.0,0.0,0.0,0.0,0.0,0.0,0.0,0.0,0.0,0.0,6.6812,6.6812,6.6812,6.6812,6.6812,6.6812,6.6812,6.6812,6.6812,6.6812,6.6812,6.6812,6.6812,6.6812,6.6812,6.6812,0.0,0.0,6.6812,6.6812,6.6812,6.6812,6.6812,6.6812,6.6812,6.6812,6.6812,6.6812,6.6812,0.0,0.0,0.0,0.0,0.0,0.0,0.0,0.0,0.0,0.0,0.0,0.0,0.0,0.0,0.0,0.0,0.0,0.0,0.0,0.0,0.0,0.0,0.0,6.2805,6.2805,6.2805,6.2805,6.2805,6.2805,6.2805,6.2805,6.2805,6.2805,6.2805,6.2805,6.2805,0.0,0.0,0.0,0.0,6.2805,0.0,0.0,0.0,0.0,0.0,0.0,0.0,0.0,6.2805,6.2805,6.2805,6.2805,0.0,0.0,0.0,0.0,0.0,6.2805,6.2805,6.2805,6.2805,6.2805,6.2805,6.2805,0.0,0.0,0.0,0.0,0.0,0.0,0.0,0.0,0.0,0.0,0.0,0.0,0.0,0.0,0.0,0.0,0.0,0.0,0.0,0.0,0.0,0.0,6.6946,6.6812,6.6812,6.6812,6.6812,6.6812,6.6812,6.6812,6.6812,6.6812,6.6812,6.6812,6.6812,6.6812,6.6812,6.6812,6.6812,0.0,0.0,6.6812,6.6812,6.6812,6.6812,6.6812,6.6812,6.6812,6.6812,6.6812,6.6812,0.0,0.0,0.0,0.0,0.0,0.0,0.0,0.0,0.0,0.0,0.0,0.0,0.0,0.0,0.0,0.0,0.0,0.0,0.0,0.0,0.0,6.2805,6.2805,6.2805,6.2805,6.2805,6.2805,6.2805,6.2805,6.2805,6.2805,6.2805,6.2805,6.2805,6.2805,6.2805,6.2805,0.0,0.0,0.0,0.0,0.0,0.0,0.0,0.0,0.0,0.0,0.0,0.0,6.2805,6.2805,6.2805,6.2805,0.0,0.0,0.0,0.0,0.0,6.2805,6.2805,6.2805,6.2805,6.2805,6.2805,6.2805,0.0,0.0,0.0,0.0,0.0,0.0,0.0,0.0,0.0,0.0,0.0,0.0,0.0,0.0,0.0,0.0,0.0,0.0,0.0,0.0,0.0,0.0,6.7662,6.6812,6.6812,6.6812,6.6812,6.6812,6.6812,6.6812,6.6812,6.6812,6.6812,6.6812,6.6812,6.6812,6.6812,6.6812,6.6812,0.0,6.6812,6.6812,6.6812,6.6812,6.6812,6.6812,6.6812,6.6812,6.6812,6.6812,6.6812,0.0,0.0,0.0,0.0,0.0,0.0,0.0,0.0,0.0,0.0,0.0,0.0,0.0,0.0,0.0,0.0,0.0,0.0,0.0,0.0,6.2805,6.2805,6.2805,6.2805,6.2805,6.2805,6.2805,6.2805,6.2805,6.2805,6.2805,6.2805,6.2805,6.2805,6.2805,6.2805,6.2805,6.2805,6.2805,6.2805,0.0,0.0,0.0,0.0,0.0,0.0,0.0,0.0,0.0,0.0,6.2805,6.2805,6.2805,0.0,0.0,0.0,0.0,0.0,6.2805,6.2805,6.2805,6.2805,6.2805,6.2805,6.2805,0.0,0.0,0.0,0.0,0.0,0.0,0.0,0.0,0.0,0.0,0.0,0.0,0.0,0.0,0.0,0.0,0.0,0.0,0.0,0.0,0.0,0.0,0.0,6.7582,6.7112,6.6812,6.6812,6.6812,6.6812,6.6812,6.6812,6.6812,6.6812,6.6812,6.6812,6.6812,6.6812,6.6812,6.6812,0.0,6.6812,6.6812,6.6812,6.6812,6.6812,6.6812,6.6812,6.6812,6.6812,6.6812,6.6812,0.0,0.0,0.0,0.0,0.0,0.0,0.0,0.0,0.0,0.0,0.0,0.0,0.0,0.0,0.0,0.0,0.0,0.0,0.0,0.0,6.2805,6.2805,6.2805,6.2805,6.2805,6.2805,6.2805,6.2805,6.2805,6.2805,6.2805,6.2805,6.2805,6.2805,6.2805,6.2805,6.2805,6.2805,6.2805,6.2805,0.0,0.0,0.0,0.0,0.0,0.0,0.0,0.0,0.0,0.0,0.0,0.0,0.0,0.0,0.0,6.2805,6.2805,6.2805,6.2805,6.2805,6.2805,6.2805,0.0,6.2805,0.0,0.0,0.0,0.0,0.0,0.0,0.0,0.0,0.0,0.0,0.0,0.0,0.0,0.0,0.0,0.0,0.0,0.0,0.0,0.0,0.0,0.0,0.0,0.0,6.8189,6.7291,6.6812,6.6812,6.6812,6.6812,6.6812,6.6812,6.6812,6.6812,6.6812,6.6812,6.6812,6.6812,6.6812,6.6812,6.6812,6.6812,6.6812,6.6812,6.6812,6.6812,6.6812,6.6812,6.6812,6.6812,6.6812,6.6812,0.0,0.0,0.0,0.0,0.0,0.0,0.0,0.0,0.0,0.0,0.0,0.0,0.0,0.0,0.0,0.0,0.0,0.0,0.0,0.0,6.2805,6.2805,6.2805,6.2805,6.2805,6.2805,6.2805,6.2805,6.2805,6.2805,6.2805,6.2805,6.2805,6.2805,6.2805,6.2805,6.2805,6.2805,6.2805,6.2805,6.2805,0.0,0.0,0.0,0.0,0.0,0.0,0.0,0.0,0.0,0.0,0.0,0.0,0.0,6.2805,6.2805,6.2805,6.2805,6.2805,6.2805,6.2805,6.2805,0.0,0.0,0.0,0.0,0.0,0.0,0.0,0.0,0.0,0.0,0.0,0.0,0.0,0.0,0.0,0.0,0.0,0.0,0.0,0.0,0.0,0.0,0.0,0.0,0.0,0.0,6.8266,6.7291,6.6812,6.6812,6.6812,6.6812,6.6812,6.6812,6.6812,6.6812,6.6812,6.6812,6.6812,6.6812,6.6812,6.6812,6.6812,6.6812,6.6812,6.6812,6.6812,6.6812,6.6812,6.6812,6.6812,6.6812,6.6812,6.6812,0.0,0.0,0.0,0.0,0.0,0.0,0.0,0.0,0.0,0.0,0.0,0.0,0.0,0.0,0.0,0.0,0.0,0.0,0.0,6.2805,6.2805,6.2805,6.2805,6.2805,6.2805,6.2805,6.2805,6.2805,6.2805,6.2805,6.2805,6.2805,6.2805,6.2805,6.2805,6.2805,6.2805,6.2805,6.2805,6.2805,6.2805,6.2805,0.0,0.0,0.0,0.0,0.0,0.0,0.0,0.0,6.2805,6.2805,6.2805,6.2805,6.2805,6.2805,6.2805,6.2805,6.2805,6.2805,0.0,0.0,0.0,0.0,0.0,0.0,0.0,0.0,0.0,0.0,0.0,0.0,0.0,0.0,0.0,0.0,0.0,0.0,0.0,0.0,0.0,0.0,0.0,0.0,0.0,0.0,0.0,0.0,6.9168,6.8833,6.8335,6.7708,6.7662,6.7662,6.7628,6.7078,6.6812,6.6812,6.6812,6.6812,6.6812,6.6812,6.6812,6.6812,6.6812,6.6812,6.6812,6.6812,6.6812,6.6812,6.6812,6.6812,6.6812,6.6812,6.6812,6.6812,0.0,0.0,0.0,0.0,0.0,0.0,0.0,0.0,0.0,0.0,0.0,0.0,0.0,0.0,0.0,0.0,0.0,0.0,6.2805,6.2805,6.2805,6.2805,6.2805,6.2805,6.2805,6.2805,6.2805,6.2805,6.2805,6.2805,6.2805,6.2805,6.2805,6.2805,6.2805,6.2805,6.2805,6.2805,6.2805,6.2805,6.2805,6.2805,0.0,0.0,0.0,0.0,0.0,0.0,0.0,0.0,6.2805,6.2805,6.2805,6.2805,6.2805,6.2805,6.2805,6.2805,6.2805,6.2805,6.2805,0.0,0.0,0.0,0.0,0.0,0.0,0.0,0.0,0.0,0.0,0.0,0.0,0.0,0.0,0.0,0.0,0.0,0.0,0.0,0.0,0.0,0.0,0.0,0.0,0.0,0.0,0.0,0.0,6.9849,6.9241,6.8189,6.8223,6.8102,6.7787,6.7078,6.6812,6.6812,6.6812,6.6812,6.6812,6.6812,6.6812,6.6812,6.6812,6.6812,6.6812,6.6812,6.6812,6.6812,6.6812,6.6812,6.6812,6.6812,6.6812,6.6812,0.0,0.0,0.0,0.0,0.0,0.0,0.0,0.0,0.0,0.0,0.0,0.0,0.0,0.0,0.0,0.0,0.0,0.0,6.2805,6.2805,6.2805,6.2805,6.2805,6.2805,6.2805,6.2805,6.2805,6.2805,6.2805,6.2805,6.2805,6.2805,6.2805,6.2805,6.2805,6.2805,6.2805,6.2805,6.2805,6.2805,6.2805,6.2805,6.2805,0.0,0.0,0.0,0.0,0.0,0.0,0.0,6.2805,6.2805,6.2805,6.2805,6.2805,6.2805,6.2805,6.2805,6.2805,6.2805,0.0,0.0,0.0,0.0,0.0,0.0,0.0,0.0,0.0,0.0,0.0,0.0,0.0,0.0,0.0,0.0,0.0,0.0,0.0,0.0,0.0,0.0,0.0,0.0,0.0,0.0,0.0,0.0,0.0,7.0264,6.9241,6.8266,6.8189,6.7787,6.6812,6.6812,6.6812,6.6812,6.6812,6.6812,6.6812,6.6812,6.6812,6.6812,6.6812,6.6812,6.6812,6.6812,6.6812,6.6812,6.6812,6.6812,6.6812,6.6812,6.6812,6.6812,0.0,0.0,0.0,0.0,0.0,0.0,0.0,0.0,0.0,0.0,0.0,0.0,0.0,0.0,0.0,0.0,0.0,0.0,6.2805,6.2805,6.2805,6.2805,6.2805,6.2805,6.2805,6.2805,6.2805,6.2805,6.2805,6.2805,6.2805,6.2805,6.2805,6.2805,6.2805,6.2805,6.2805,6.2805,6.2805,6.2805,6.2805,6.2805,6.2805,0.0,0.0,0.0,0.0,0.0,0.0,0.0,0.0,0.0,6.2805,6.2805,6.2805,6.2805,6.2805,6.2805,6.2805,6.2805,0.0,0.0,0.0,0.0,0.0,0.0,0.0,0.0,0.0,0.0,0.0,0.0,0.0,0.0,0.0,0.0,0.0,0.0,0.0,0.0,0.0,0.0,0.0,0.0,0.0,0.0,0.0,0.0,0.0,7.1448,7.1223,7.0297,6.9601,6.9095,6.8833,6.7454,6.6812,6.6812,6.6812,6.6812,6.6812,6.6812,6.6812,6.6812,6.6812,6.6812,6.6812,6.6812,6.6812,6.6812,6.6812,6.6812,6.6812,6.6812,6.6812,6.6812,0.0,0.0,0.0,0.0,0.0,0.0,0.0,0.0,0.0,0.0,0.0,0.0,0.0,0.0,0.0,0.0,0.0,0.0,0.0,6.2805,6.2805,6.2805,6.2805,6.2805,6.2805,6.2805,6.2805,6.2805,6.2805,6.2805,6.2805,6.2805,6.2805,6.2805,6.2805,6.2805,6.2805,6.2805,6.2805,6.2805,6.2805,6.2805,6.2805,0.0,0.0,0.0,0.0,0.0,0.0,0.0,0.0,0.0,6.2805,6.2805,6.2805,6.2805,6.2805,6.2805,6.2805,0.0,0.0,0.0,0.0,0.0,0.0,0.0,0.0,0.0,0.0,0.0,0.0,0.0,0.0,0.0,0.0,0.0,0.0,0.0,0.0,0.0,0.0,0.0,0.0,0.0,0.0,0.0,0.0,0.0,0.0,7.2226,7.2071,7.1159,7.0535,6.9883,6.9095,6.7945,6.7161,6.6812,6.6812,6.6812,6.6812,6.6812,6.6812,6.6812,6.6812,6.6812,6.6812,6.6812,6.6812,6.6812,6.6812,6.6812,6.6812,6.6812,6.6812,6.6812,0.0,0.0,0.0,0.0,0.0,0.0,0.0,0.0,0.0,0.0,0.0,0.0,0.0,0.0,0.0,0.0,0.0,0.0,0.0,0.0,6.2805,6.2805,6.2805,6.2805,6.2805,6.2805,6.2805,6.2805,6.2805,6.2805,6.2805,6.2805,6.2805,6.2805,6.2805,6.2805,6.2805,6.2805,6.2805,6.2805,6.2805,6.2805,6.2805,6.2805,0.0,0.0,0.0,0.0,0.0,0.0,0.0,0.0,6.2805,6.2805,6.2805,6.2805,6.2805,6.2805,0.0,0.0,0.0,0.0,0.0,0.0,0.0,0.0,0.0,0.0,0.0,0.0,0.0,0.0,0.0,0.0,0.0,0.0,0.0,0.0,0.0,0.0,0.0,0.0,0.0,0.0,0.0,0.0,0.0,0.0,0.0,7.2496,7.2071,7.1223,7.1095,7.016,6.8343,6.8146,6.7628,6.6812,6.6812,6.6812,6.6812,6.6812,6.6812,6.6812,6.6812,6.6812,6.6812,6.6812,6.6812,6.6812,6.6812,6.6812,6.6812,6.6812,6.6812,6.6812,0.0,0.0,0.0,0.0,0.0,0.0,0.0,0.0,0.0,0.0,0.0,0.0,0.0,0.0,0.0,0.0,0.0,0.0,0.0,0.0,6.2805,6.2805,6.2805,6.2805,6.2805,6.2805,6.2805,6.2805,6.2805,6.2805,6.2805,6.2805,6.2805,6.2805,6.2805,6.2805,6.2805,6.2805,6.2805,6.2805,6.2805,6.2805,6.2805,6.2805,6.2805,0.0,0.0,0.0,0.0,0.0,0.0,0.0,6.2805,6.2805,6.2805,6.2805,6.2805,6.2805,0.0,0.0,0.0,0.0,0.0,0.0,0.0,0.0,0.0,0.0,0.0,0.0,0.0,0.0,0.0,0.0,0.0,0.0,0.0,0.0,0.0,0.0,0.0,0.0,0.0,0.0,0.0,0.0,0.0,0.0,7.2496,7.2496,7.2438,7.2226,7.0734,6.9813,6.9386,6.7901,6.7029,0.0,6.6812,6.6812,6.6812,6.6812,6.6812,6.6812,6.6812,6.6812,6.6812,6.6812,6.6812,6.6812,6.6812,6.6812,6.6812,6.6812,6.6812,6.6812,0.0,0.0,0.0,0.0,0.0,0.0,0.0,0.0,0.0,0.0,0.0,0.0,0.0,0.0,0.0,0.0,0.0,0.0,0.0,0.0,6.2805,6.2805,6.2805,6.2805,6.2805,6.2805,6.2805,6.2805,6.2805,6.2805,6.2805,6.2805,6.2805,6.2805,6.2805,6.2805,6.2805,6.2805,6.2805,6.2805,6.2805,6.2805,6.2805,6.2805,6.2805,6.2805,6.2805,0.0,0.0,0.0,0.0,0.0,0.0,0.0,6.2805,6.2805,6.2805,6.2805,0.0,0.0,0.0,0.0,0.0,0.0,0.0,0.0,0.0,0.0,0.0,0.0,0.0,0.0,0.0,0.0,0.0,0.0,0.0,0.0,0.0,0.0,0.0,0.0,0.0,0.0,0.0,0.0,0.0,7.2496,7.2496,7.2496,7.2496,7.2496,7.1095,7.016,6.9708,6.8258,6.7209,6.6812,6.6812,6.6812,6.6812,6.6812,6.6812,6.6812,6.6812,6.6812,6.6812,6.6812,6.6812,6.6812,6.6812,6.6812,6.6812,6.6812,6.6812,6.6812,0.0,0.0,0.0,0.0,0.0,0.0,0.0,0.0,0.0,0.0,0.0,0.0,0.0,0.0,0.0,0.0,0.0,0.0,0.0,0.0,0.0,6.2805,6.2805,6.2805,6.2805,6.2805,6.2805,6.2805,6.2805,6.2805,6.2805,6.2805,6.2805,6.2805,6.2805,6.2805,6.2805,6.2805,6.2805,6.2805,6.2805,6.2805,6.2805,6.2805,6.2805,6.2805,6.2805,6.2805,6.2805,6.2805,0.0,0.0,0.0,0.0,6.2805,6.2805,6.2805,6.2805,0.0,0.0,0.0,0.0,0.0,0.0,0.0,0.0,0.0,0.0,0.0,0.0,0.0,0.0,0.0,0.0,0.0,0.0,0.0,0.0,0.0,0.0,0.0,0.0,0.0,0.0,0.0,0.0,0.0,7.2496,7.2496,7.2496,7.2496,7.2496,7.1573,7.0668,6.9708,6.8723,6.7708,6.6812,6.6812,6.6812,6.6812,6.6812,6.6812,6.6812,6.6812,6.6812,6.6812,6.6812,6.6812,6.6812,6.6812,6.6812,6.6812,6.6812,6.6812,6.6812,0.0,0.0,0.0,0.0,0.0,0.0,0.0,0.0,0.0,0.0,0.0,0.0,0.0,0.0,0.0,0.0,0.0,0.0,6.2805,0.0,0.0,6.2805,6.2805,6.2805,6.2805,6.2805,6.2805,6.2805,6.2805,0.0,0.0,0.0,0.0,6.2805,6.2805,6.2805,6.2805,6.2805,6.2805,6.2805,6.2805,6.2805,6.2805,6.2805,6.2805,6.2805,6.2805,6.2805,6.2805,6.2805,6.2805,0.0,0.0,0.0,6.2805,6.2805,6.2805,6.2805,0.0,0.0,0.0,0.0,0.0,0.0,0.0,0.0,0.0,0.0,0.0,0.0,0.0,0.0,0.0,0.0,0.0,0.0,0.0,0.0,0.0,0.0,0.0,0.0,0.0,0.0,0.0,0.0,7.2496,7.2496,7.2496,7.2496,7.2496,7.2496,7.1573,7.0668,6.9708,6.8723,6.7708,6.6812,6.6812,6.6812,6.6812,6.6812,6.6812,6.6812,6.6812,6.6812,6.6812,6.6812,6.6812,6.6812,6.6812,6.6812,6.6812,6.6812,6.6812,6.6812,0.0,0.0,0.0,0.0,0.0,0.0,0.0,0.0,0.0,0.0,0.0,0.0,0.0,0.0,0.0,6.2805,6.2805,6.2805,6.2805,6.2805,6.2805,6.2805,6.2805,6.2805,6.2805,6.2805,6.2805,6.2805,0.0,0.0,0.0,6.2805,6.2805,0.0,0.0,6.2805,6.2805,6.2805,6.2805,6.2805,6.2805,6.2805,6.2805,6.2805,6.2805,6.2805,6.2805,6.2805,6.2805,6.2805,6.2805,6.2805,6.2805,0.0,0.0,0.0,6.2805,0.0,0.0,0.0,0.0,0.0,0.0,0.0,0.0,0.0,0.0,0.0,0.0,0.0,0.0,0.0,0.0,0.0,0.0,0.0,0.0,0.0,0.0,0.0,0.0,0.0,0.0,0.0,0.0,0.0,7.2496,7.2496,7.2496,7.2496,7.2496,7.2496,7.1573,7.0668,6.9708,6.8723,6.7708,6.6812,6.6812,6.6812,6.6812,6.6812,6.6812,6.6812,6.6812,6.6812,6.6812,6.6812,6.6812,6.6812,6.6812,6.6812,6.6812,6.6812,6.6812,6.6812,0.0,0.0,0.0,0.0,0.0,0.0,0.0,0.0,0.0,0.0,0.0,0.0,0.0,0.0,0.0,0.0,6.2805,6.2805,6.2805,6.2805,6.2805,6.2805,6.2805,6.2805,6.2805,6.2805,6.2805,6.2805,0.0,0.0,6.2805,6.2805,6.2805,0.0,6.2805,6.2805,0.0,0.0,0.0,6.2805,6.2805,6.2805,6.2805,6.2805,6.2805,6.2805,6.2805,0.0,0.0,0.0,6.2805,6.2805,6.2805,6.2805,0.0,0.0,0.0,0.0,0.0,0.0,0.0,0.0,0.0,0.0,0.0,0.0,0.0,0.0,0.0,0.0,0.0,0.0,0.0,0.0,0.0,0.0,0.0,0.0,0.0,0.0,0.0,0.0,0.0,0.0,0.0,0.0,7.2496,7.2496,7.2496,7.2496,7.2496,7.2496,7.1794,7.1031,7.0022,6.8798,6.799,6.7535,6.7029,6.6946,6.7161,6.6862,6.6812,6.6812,6.6812,6.6812,6.6812,6.6812,6.6812,6.6812,6.6812,6.6812,6.6812,6.6812,6.6812,6.6812,0.0,0.0,0.0,0.0,0.0,0.0,0.0,0.0,0.0,0.0,0.0,0.0,6.2805,6.2805,6.2805,6.2805,6.2805,6.2805,6.2805,6.2805,6.2805,6.2805,6.2805,0.0,6.2805,6.2805,6.2805,0.0,0.0,0.0,6.2805,6.2805,6.2805,6.2805,6.2805,6.2805,6.2805,0.0,0.0,0.0,6.2805,6.2805,6.2805,6.2805,6.2805,6.2805,6.2805,0.0,0.0,0.0,0.0,6.2805,6.2805,6.2805,6.2805,0.0,0.0,0.0,0.0,0.0,0.0,0.0,0.0,0.0,0.0,0.0,0.0,0.0,0.0,0.0,0.0,0.0,0.0,0.0,0.0,0.0,0.0,0.0,0.0,0.0,0.0,0.0,0.0,0.0,0.0,0.0,7.2496,7.2496,7.2496,7.2496,7.2496,7.2496,7.2438,7.2011,7.1031,6.9133,6.8648,6.9565,6.7696,6.7291,6.8146,6.7243,6.6812,6.6812,6.6812,6.6812,6.6812,6.6812,6.6812,6.6812,6.6812,6.6812,6.6812,6.6812,6.6812,6.6812,0.0,0.0,0.0,0.0,0.0,0.0,0.0,0.0,0.0,0.0,0.0,0.0,0.0,6.2805,6.2805,6.2805,6.2805,6.2805,6.2805,6.2805,6.2805,6.2805,6.2805,6.2805,6.2805,6.2805,6.2805,0.0,0.0,6.2805,6.2805,6.2805,6.2805,6.2805,6.2805,6.2805,6.2805,6.2805,0.0,0.0,0.0,0.0,6.2805,6.2805,0.0,0.0,0.0,0.0,0.0,0.0,0.0,6.2805,6.2805,6.2805,6.2805,6.2805,6.2805,6.2805,6.2805,0.0,0.0,0.0,0.0,0.0,0.0,0.0,0.0,0.0,0.0,0.0,0.0,0.0,0.0,0.0,0.0,0.0,0.0,0.0,0.0,0.0,0.0,0.0,0.0,0.0,0.0,0.0,0.0,7.2496,7.2496,7.2496,7.2496,7.2496,7.2496,7.2071,7.1095,6.9813,6.9314,6.9708,6.8982,6.8833,6.9095,6.8146,6.7708,6.7628,6.7078,6.6812,6.6812,6.6812,6.6812,6.6812,6.6812,6.6812,6.6812,6.6812,6.6812,6.6812,0.0,0.0,0.0,0.0,0.0,0.0,0.0,0.0,0.0,6.2805,0.0,0.0,0.0,0.0,6.2805,6.2805,6.2805,6.2805,6.2805,6.2805,6.2805,6.2805,6.2805,6.2805,6.2805,6.2805,6.2805,0.0,0.0,0.0,0.0,6.2805,6.2805,6.2805,6.2805,6.2805,0.0,0.0,0.0,6.2805,0.0,0.0,6.2805,0.0,0.0,0.0,0.0,0.0,0.0,0.0,0.0,6.2805,6.2805,6.2805,6.2805,6.2805,6.2805,6.2805,6.2805,6.2805,0.0,0.0,0.0,0.0,0.0,0.0,0.0,0.0,0.0,0.0,0.0,0.0,0.0,0.0,0.0,0.0,0.0,0.0,0.0,0.0,0.0,0.0,0.0,0.0,0.0,0.0,0.0,0.0,7.2496,7.2496,7.2496,7.2496,7.2496,7.2226,7.1573,7.0668,7.0332,7.0601,6.9989,6.9849,7.0127,6.9168,6.8723,6.8648,6.8024,6.7373,6.6812,6.6812,6.6812,6.6812,6.6812,6.6812,6.6812,6.6812,6.6812,6.6812,0.0,0.0,0.0,0.0,0.0,0.0,0.0,0.0,6.2805,6.2805,0.0,0.0,0.0,0.0,0.0,6.2805,6.2805,6.2805,6.2805,6.2805,6.2805,6.2805,6.2805,6.2805,6.2805,6.2805,6.2805,6.2805,6.2805,6.2805,6.2805,0.0,6.2805,6.2805,6.2805,6.2805,6.2805,0.0,6.2805,6.2805,0.0,6.2805,6.2805,0.0,0.0,0.0,6.2805,6.2805,0.0,0.0,0.0,0.0,0.0,6.2805,6.2805,6.2805,6.2805,6.2805,0.0,0.0,0.0,0.0,0.0,0.0,0.0,0.0,0.0,0.0,0.0,0.0,0.0,0.0,0.0,0.0,0.0,0.0,0.0,0.0,0.0,0.0,0.0,0.0,0.0,0.0,0.0,0.0,7.2496,7.2496,7.2496,7.2496,7.2496,7.2496,7.2496,7.2496,7.2496,7.1573,7.1573,7.2496,7.0668,7.0264,7.1095,7.0196,6.9778,6.9778,6.9708,6.8607,6.6896,6.6896,6.6896,6.6896,6.6896,6.6896,6.6896,6.6896,6.6896,6.6896,0.0,0.0,0.0,0.0,0.0,6.2805,6.2805,6.2805,6.2805,0.0,0.0,0.0,6.2805,6.2805,6.2805,6.2805,6.2805,6.2805,6.2805,6.2805,6.2805,6.2805,6.2805,6.2805,6.2805,6.2805,6.2805,6.2805,6.2805,6.2805,6.2805,6.2805,6.2805,0.0,6.2805,6.2805,6.2805,6.2805,0.0,0.0,6.2805,6.2805,0.0,0.0,0.0,0.0,0.0,6.2805,0.0,0.0,6.2805,6.2805,0.0,0.0,6.2805,6.2805,6.2805,6.2805,6.2805,0.0,0.0,0.0,0.0,0.0,6.2805,6.4127,0.0,0.0,0.0,0.0,0.0,0.0,0.0,0.0,0.0,0.0,0.0,0.0,0.0,0.0,0.0,0.0,0.0,0.0,0.0,0.0,7.2496,7.2496,7.2496,7.2496,7.2496,7.2496,7.2496,7.2496,7.2496,7.2226,7.2226,7.2496,7.1951,7.1854,7.2071,7.1159,7.0734,7.0668,6.9989,6.9421,6.8908,6.8908,6.8908,6.8908,6.8908,6.8908,6.8908,6.8908,6.8908,6.8908,0.0,0.0,0.0,0.0,0.0,6.3408,6.3168,6.3317,6.3408,0.0,0.0,0.0,6.2805,6.2805,6.2805,6.2805,6.2805,6.2805,6.2805,6.2805,6.2805,6.2805,6.2805,6.2805,6.2805,6.2805,6.2805,6.2805,6.2805,6.2805,6.2805,6.2805,6.2805,6.2805,0.0,0.0,0.0,0.0,0.0,0.0,6.2805,0.0,0.0,6.2805,6.2805,0.0,0.0,0.0,6.2805,6.2805,6.2805,0.0,0.0,0.0,0.0,6.2805,6.2805,6.2805,6.2805,6.2805,0.0,0.0,0.0,0.0,6.3282,6.4383,0.0,0.0,0.0,0.0,0.0,0.0,0.0,0.0,0.0,0.0,0.0,0.0,0.0,0.0,0.0,0.0,0.0,7.1541,7.2165,7.2459,7.2496,7.2496,7.2496,7.2496,7.2496,7.2496,7.2496,7.2496,7.2496,7.2496,7.2496,7.2496,7.2496,7.2496,7.2496,7.1915,7.1635,7.1635,7.1095,7.0901,7.0901,7.0901,7.04,6.9708,6.9708,6.9708,6.9708,6.9708,6.9708,6.9708,0.0,0.0,6.4217,6.3766,6.4059,6.4217,6.3766,6.4059,6.4178,0.0,6.3543,6.3317,6.2855,6.2805,6.2805,6.2805,6.2805,6.2805,6.2805,6.2805,6.2805,6.2805,6.2805,6.2805,6.2805,6.2805,6.2805,6.2805,6.2805,6.2805,6.2805,6.2805,6.2805,6.2805,0.0,0.0,0.0,0.0,0.0,6.2805,6.2805,6.2805,0.0,0.0,6.2805,0.0,6.2805,6.2805,6.2805,6.2805,6.2805,0.0,0.0,0.0,0.0,0.0,6.2805,0.0,6.2805,6.2805,6.2805,0.0,0.0,0.0,6.3906,6.4714,6.5521,0.0,0.0,0.0,0.0,0.0,0.0,0.0,0.0,0.0,0.0,0.0,0.0,0.0,0.0,0.0,7.0,7.0844,7.1651,7.2459,7.2496,7.2496,7.2496,7.2496,7.2496,7.2496,7.2496,7.2496,7.2496,7.2496,7.2496,7.2496,7.2496,7.2496,7.2496,7.2496,7.2496,7.2496,7.2496,7.2496,7.2496,7.2496,7.1511,6.9989,6.9989,6.9989,6.9989,6.9989,6.9989,6.9989,6.437,6.437,6.437,6.4255,6.4332,6.4332,6.4255,6.4332,6.4178,6.3637,6.3215,6.2953,6.2805,6.2805,6.2805,6.2805,6.2805,6.2805,6.2805,6.2805,6.2805,6.2805,6.2805,6.2805,6.2805,6.2805,6.2805,6.2805,6.2805,6.2805,6.2805,6.2805,6.2805,6.2805,6.2805,0.0,0.0,0.0,0.0,6.2805,6.2805,0.0,6.2805,6.2805,6.2805,6.2805,6.2805,6.2805,6.2805,0.0,6.2805,6.2805,0.0,0.0,0.0,0.0,0.0,0.0,0.0,0.0,0.0,0.0,0.0,0.0,6.3906,6.4714,6.5521,0.0,0.0,0.0,0.0,0.0,0.0,0.0,0.0,0.0,0.0,0.0,0.0,0.0,0.0,0.0,7.0,7.0844,7.1651,7.2459,7.2496,7.2496,7.2496,7.2496,7.2496,7.2496,7.2496,7.2496,7.2496,7.2496,7.2496,7.2496,7.2496,7.2496,7.2496,7.2496,7.2496,7.2496,7.2496,7.2496,7.2496,7.2496,7.2285,7.1951,7.1951,7.1951,7.1951,7.1951,7.1951,7.1951,6.5137,6.5137,6.5073,6.4803,6.4731,6.4661,6.4407,6.437,6.4294,6.4019,6.3766,6.3498,6.3215,6.3215,6.3073,6.2805,6.2805,6.2805,6.2805,6.2805,6.2805,6.2805,6.2805,6.2805,6.2805,6.2805,6.2805,6.2805,6.2805,6.2805,6.2805,6.2805,6.2805,6.2805,6.2805,0.0,0.0,0.0,6.2805,6.2805,6.2805,0.0,6.2805,6.2805,6.2805,6.2805,6.2805,6.2805,6.2805,6.2805,6.2805,0.0,0.0,6.2805,6.2805,0.0,6.2805,6.2805,0.0,0.0,0.0,6.2805,0.0,0.0,0.0,6.5338,6.6145,0.0,0.0,0.0,0.0,0.0,0.0,0.0,0.0,0.0,0.0,0.0,0.0,0.0,0.0,0.0,6.9412,7.022,7.1211,7.2422,7.2496,7.2496,7.2496,7.2496,7.2496,7.2496,7.2496,7.2496,7.2496,7.2496,7.2496,7.2496,7.2496,7.2496,7.2496,7.2496,7.2496,7.2496,7.2496,7.2496,7.2496,7.2496,7.2496,7.2496,7.2496,7.2496,7.2496,7.2496,7.2496,7.2496,6.5897,6.5897,6.5781,6.5321,6.5261,6.5099,6.4769,6.4699,6.4664,6.4554,6.4444,6.4178,6.3637,6.3631,6.3363,6.2855,6.2805,6.2805,6.2805,0.0,6.2805,6.2805,6.2805,6.2805,6.2805,6.2805,6.2805,6.2805,6.2805,6.2805,6.2805,6.2805,6.2805,6.2805,6.2805,6.2805,0.0,0.0,0.0,6.2805,0.0,6.2805,6.2805,6.2805,6.2805,6.2805,6.2805,6.2805,6.2805,6.2805,0.0,6.2805,6.2805,6.2805,0.0,0.0,0.0,0.0,0.0,0.0,0.0,0.0,0.0,6.4347,0.0,0.0,0.0,0.0,0.0,0.0,0.0,0.0,0.0,0.0,0.0,0.0,0.0,0.0,0.0,0.0,0.0,0.0,6.8825,6.9779,7.0881,7.2165,7.2422,7.2496,7.2496,7.2496,7.2496,7.2496,7.2496,7.2496,7.2496,7.2496,7.2496,7.2496,7.2496,7.2496,7.2496,7.2496,7.2496,7.2496,7.2496,7.2496,7.2496,7.2496,7.2496,7.2496,7.2496,7.2496,7.2496,7.2496,7.2496,7.2496,6.5897,6.5897,6.5897,6.5808,6.5808,6.5781,6.5755,6.5755,6.5542,6.5099,6.4661,6.4178,0.0,0.0,0.0,0.0,0.0,0.0,6.2805,0.0,6.2805,6.2805,6.2805,6.2805,6.2805,6.2805,6.2805,6.2805,6.2805,6.2805,6.2805,6.2805,6.2805,6.2805,6.2805,0.0,0.0,0.0,6.2805,0.0,6.2805,6.2805,0.0,6.2805,6.2805,6.2805,6.2805,6.2805,6.2805,0.0,6.2805,6.2805,0.0,6.2805,6.2805,0.0,0.0,0.0,0.0,0.0,0.0,0.0,6.4016,0.0,0.0,0.0,0.0,0.0,0.0,0.0,0.0,0.0,0.0,0.0,0.0,0.0,0.0,0.0,0.0,6.7687,6.7687,6.8017,6.8825,7.0293,7.1248,7.1431,7.2092,7.2496,7.2496,7.2496,7.2496,7.2496,7.2496,7.2496,7.2496,7.2496,7.2496,7.2496,7.2496,7.2496,7.2496,7.2496,7.2496,7.2496,7.2496,7.2496,7.2496,7.2496,7.2496,7.2496,7.2496,7.2496,7.2496,7.2496,7.2496,7.2496,6.5897,6.5897,6.5897,6.5897,6.5663,6.5446,6.5446,6.5446,6.5261,6.4731,6.4765,6.4626,0.0,0.0,0.0,0.0,0.0,0.0,0.0,0.0,6.2805,6.2805,6.2805,0.0,6.2805,6.2805,6.2805,6.2805,6.2805,6.2805,6.2805,6.2805,6.2805,6.2805,6.2805,0.0,6.2805,0.0,0.0,0.0,0.0,0.0,0.0,6.2805,6.2805,6.2879,6.3392,6.3539,6.3613,0.0,6.4273,0.0,0.0,0.0,0.0,0.0,0.0,0.0,0.0,0.0,0.0,0.0,0.0,0.0,6.6329,0.0,6.7283,0.0,0.0,0.0,0.0,0.0,0.0,0.0,6.7467,0.0,0.0,0.0,6.7687,0.0,0.0,0.0,6.8825,6.9522,7.0293,7.1248,7.1615,7.2018,7.2496,7.2496,7.2496,7.2496,7.2496,7.2496,7.2496,7.2496,7.2496,7.2496,7.2496,7.2496,7.2496,7.2496,7.2496,7.2496,7.2496,7.2496,7.2496,7.2496,7.2496,7.2496,7.2496,7.2496,7.2496,7.2496,7.2496,7.2496,6.5897,0.0,0.0,0.0,6.5569,6.5321,6.5321,6.5321,6.5199,0.0,0.0,0.0,6.4626,6.459,0.0,0.0,0.0,6.3631,0.0,0.0,6.2805,0.0,0.0,0.0,0.0,6.2805,6.2805,6.2805,6.2805,6.2805,6.2805,6.2805,6.2805,6.2805,0.0,6.2805,6.2805,0.0,0.0,6.2842,6.3062,6.3282,6.3466,6.3246,6.3319,6.3576,6.42,6.442,6.453,6.5118,6.5301,0.0,6.5301,0.0,0.0,0.0,0.0,0.0,6.5301,0.0,0.0,0.0,0.0,0.0,0.0,0.0,0.0,0.0,0.0,0.0,0.0,0.0,6.7614,6.7393,0.0,6.7614,0.0,6.754,0.0,0.0,0.0,0.0,0.0,6.8788,6.9376,7.055,7.1064,7.1578,7.2165,7.2386,7.2496,7.2496,7.2496,7.2496,7.2496,7.2496,7.2496,7.2496,7.2496,7.2496,7.2496,7.2496,7.2496,7.2496,7.2496,7.2496,7.2496,7.2496,7.2496,7.2496,7.2496,7.2496,7.2496,7.2496,7.2496,7.2496,6.5897,6.5897,0.0,0.0,0.0,6.5872,6.5872,6.5872,0.0,0.0,0.0,0.0,0.0,0.0,0.0,0.0,0.0,6.3631,6.3631,0.0,6.2805,0.0,0.0,0.0,0.0,0.0,6.2805,6.2805,6.2805,6.2805,6.2805,6.2805,6.2805,6.2805,6.2805,6.2805,6.2805,6.2805,6.2805,6.2879,6.3723,6.453,6.5154,0.0,6.453,6.5228,6.5264,0.0,0.0,6.5301,6.5301,0.0,0.0,0.0,0.0,0.0,0.0,0.0,0.0,0.0,0.0,6.6256,0.0,0.0,0.0,0.0,6.7687,0.0,0.0,0.0,0.0,0.0,6.743,6.6659,6.7173,0.0,0.0,0.0,0.0,0.0,0.0,0.0,0.0,6.8458,6.8935,6.8972,7.044,7.1321,7.1358,7.2092,7.2496,7.2496,7.2496,7.2496,7.2496,7.2496,7.2496,7.2496,7.2496,7.2496,7.2496,7.2496,7.2496,7.2496,7.2496,7.2496,7.2496,7.2496,7.2496,7.2496,7.2496,7.2496,7.2496,7.2496,7.2496,7.2496,0.0,0.0,0.0,0.0,0.0,0.0,0.0,6.5897,0.0,0.0,0.0,0.0,0.0,0.0,6.5035,0.0,0.0,6.3975,6.3593,6.3408,0.0,0.0,0.0,6.3168,0.0,0.0,0.0,0.0,0.0,6.2805,6.2805,6.2805,6.2805,6.2805,0.0,6.2805,0.0,0.0,0.0,0.0,0.0,6.5375,6.5999,0.0,0.0,6.5375,6.5888,6.6109,0.0,6.6696,6.688,6.688,6.688,6.688,6.688,6.688,6.688,0.0,0.0,0.0,6.6953,6.721,0.0,0.0,0.0,0.0,0.0,0.0,0.0,0.0,0.0,6.7687,6.7614,6.732,6.7504,6.7577,0.0,0.0,0.0,0.0,0.0,0.0,0.0,0.0,6.8311,6.8862,6.9889,7.0734,7.1284,7.2055,7.2496,7.2496,7.2496,7.2496,7.2496,7.2496,7.2496,7.2496,7.2496,7.2496,7.2496,7.2496,7.2496,7.2496,7.2496,7.2496,7.2496,7.2496,7.2496,7.2496,7.2496,7.2496,7.2496,7.2496,7.2496,7.2496,6.5897,0.0,0.0,0.0,0.0,0.0,0.0,0.0,0.0,0.0,6.5388,0.0,6.5388,0.0,6.5388,0.0,6.4803,6.4483,6.4592,6.3786,0.0,6.3564,6.341,0.0,0.0,0.0,0.0,0.0,0.0,6.2965,6.2805,6.2805,6.2805,6.2805,0.0,6.3282,6.3319,0.0,6.453,0.0,0.0,6.6219,0.0,0.0,6.6145,6.6219,0.0,6.6916,6.699,6.7504,6.7687,6.7687,6.7687,6.7687,6.7687,6.7687,6.7687,6.7687,6.7687,6.7687,0.0,6.7687,6.7687,0.0,6.7687,0.0,0.0,0.0,0.0,0.0,0.0,0.0,6.7687,6.7687,6.7687,6.7687,0.0,6.7687,0.0,0.0,0.0,0.0,0.0,6.7687,6.7907,6.8421,6.9229,7.0036,7.0844,7.1651,7.2202,7.2496,7.2496,7.2496,7.2496,7.2496,7.2496,7.2496,7.2496,7.2496,7.2496,7.2496,7.2496,7.2496,7.2496,7.2496,7.2496,7.2496,7.2496,7.2496,7.2496,7.2496,7.2496,7.2496,7.2496,7.2496,0.0,0.0,0.0,0.0,6.5936,0.0,0.0,0.0,6.5974,0.0,6.6013,6.6013,6.6013,6.6013,6.6013,6.5987,6.5123,0.0,6.6331,6.4289,0.0,0.0,6.3733,6.3064,6.3015,0.0,0.0,0.0,0.0,0.0,6.2879,6.2879,6.2915,6.2989,6.3796,0.0,6.42,6.5007,6.5375,6.5485,6.6256,6.7026,6.7687,6.7687,6.7687,6.7687,6.7687,6.7687,6.7687,6.7687,6.7687,6.7687,6.7687,6.7687,6.7687,6.7687,6.7687,6.7687,6.7687,6.7687,6.7687,6.7687,6.7687,0.0,0.0,0.0,6.7687,0.0,0.0,0.0,0.0,0.0,6.7687,6.7687,6.7687,6.7687,6.7687,6.7687,6.7687,0.0,0.0,0.0,0.0,6.7687,6.7687,6.7687,6.8458,6.9229,0.0,7.0844,7.1651,7.2422,7.2496,7.2496,7.2496,7.2496,7.2496,7.2496,7.2496,7.2496,7.2496,7.2496,7.2496,7.2496,7.2496,7.2496,7.2496,7.2496,7.2496,7.2496,7.2496,7.2496,7.2496,7.2496,7.2496,7.2496,6.5897,6.5897,6.609,0.0,6.6282,6.5897,0.0,0.0,0.0,0.0,6.7359,6.7782,6.7782,6.7782,6.7599,6.7194,6.6935,0.0,0.0,0.0,0.0,6.6402,6.6371,6.6219,6.5857,6.5596,0.0,6.4382,0.0,0.0,6.3759,6.3759,6.409,6.4677,0.0,0.0,6.5044,6.5852,6.6549,6.71,6.7283,6.7504,0.0,0.0,6.7687,6.7687,6.7687,6.7687,6.7687,6.7687,6.7687,6.7687,6.7687,6.7687,6.7687,6.7687,6.7687,6.7687,6.7687,6.7687,6.7687,6.7687,6.7687,6.7687,0.0,0.0,0.0,0.0,0.0,0.0,0.0,0.0,0.0,6.7687,6.7687,6.7687,6.7687,0.0,0.0,6.7687,0.0,6.7687,6.7687,6.7687,6.7687,6.7687,6.8458,6.9009,6.9192,0.0,7.1394,7.1615,7.2202,7.2496,7.2496,7.2496,7.2496,7.2496,7.2496,7.2496,7.2496,7.2496,7.2496,7.2496,7.2496,7.2496,7.2496,7.2496,7.2496,7.2496,7.2496,7.2496,7.2496,7.2496,7.2496,7.2496,6.6974,0.0,0.0,6.759,0.0,0.0,6.6974,0.0,0.0,6.7667,6.809,0.0,6.8398,6.8398,6.8279,6.8004,6.7744,0.0,0.0,0.0,0.0,6.7766,6.746,6.7161,6.6938,6.6783,0.0,6.5426,0.0,0.0,6.4604,6.4604,6.4861,6.5338,0.0,6.5815,0.0,6.6659,6.7283,6.7687,6.7687,6.7687,0.0,6.7687,6.7687,6.7687,6.7687,6.7687,6.7687,6.7687,6.7687,6.7687,6.7687,6.7687,6.7687,6.7687,6.7687,6.7687,6.7687,6.7687,6.7687,6.7687,6.7687,6.7687,6.7687,6.7687,6.7687,0.0,6.7687,6.7687,0.0,0.0,0.0,6.7687,6.7687,6.7687,0.0,0.0,0.0,0.0,6.7687,6.7687,6.7687,6.7687,6.7687,6.7687,6.8128,6.8531,6.8898,0.0,7.0954,7.1321,7.2092,7.2496,7.2496,7.2496,7.2496,7.2496,7.2496,7.2496,7.2496,7.2496,7.2496,7.2496,7.2496,7.2496,7.2496,7.2496,7.2496,7.2496,7.2496,7.2496,7.2496,7.2496,7.2496,7.2496,0.0,0.0,0.0,0.0,0.0,0.0,0.0,6.8629,0.0,6.859,0.0,6.8744,6.8744,6.8744,6.8744,6.8744,0.0,6.8556,6.9756,6.8307,6.7952,6.9088,6.8063,6.7429,6.7429,6.7749,0.0,0.0,0.0,0.0,6.5485,6.5485,6.5521,6.5632,0.0,0.0,0.0,6.7393,6.7687,6.7687,6.7687,6.7687,6.7687,6.7797,6.7834,6.7871,6.7981,6.7871,6.7687,6.7687,6.7687,6.7687,6.7687,6.7687,6.7687,6.7687,6.7687,6.7687,6.7687,6.7687,6.7687,6.7687,6.7687,6.7687,6.7687,6.7687,6.7687,6.7687,6.7687,6.7687,0.0,0.0,0.0,6.7687,0.0,0.0,0.0,0.0,0.0,0.0,0.0,0.0,6.7687,6.7687,6.7687,6.7687,6.7687,6.8017,6.8715,0.0,7.0403,7.1138,7.2055,7.2496,7.2496,7.2496,7.2496,7.2496,7.2496,7.2496,7.2496,7.2496,7.2496,7.2496,7.2496,7.2496,7.2496,7.2496,7.2496,7.2496,7.2496,7.2496,7.2496,7.2496,7.2496,7.2496,0.0,0.0,0.0,0.0,0.0,6.9706,7.036,6.9898,6.9475,6.9475,7.0052,0.0,7.0475,7.0475,7.0475,7.0475,7.0382,0.0,0.0,0.0,0.0,7.0546,7.0335,7.02,7.02,6.984,6.9051,0.0,0.0,0.0,6.6292,6.6292,6.6623,6.7283,0.0,0.0,6.7504,6.7614,0.0,6.7687,6.7687,6.7687,6.776,6.8458,6.8678,6.8788,6.9449,6.8825,6.7687,6.7687,6.7687,6.7687,6.7687,6.7687,6.7687,6.7687,6.7687,6.7687,6.7687,6.7687,6.7687,6.7687,6.7687,6.7687,6.7687,6.7687,6.7687,6.7687,6.7687,6.7687,6.7687,0.0,0.0,0.0,0.0,0.0,0.0,0.0,0.0,0.0,0.0,6.7687,0.0,6.7687,6.7687,6.7687,6.7687,6.776,6.7907,0.0,7.0146,0.0,7.1725,7.2496,0.0,0.0,7.2496,7.2496,7.2496,7.2496,7.2496,7.2496,7.2496,7.2496,7.2496,7.2496,7.2496,7.2496,7.2496,7.2496,7.2496,7.2496,7.2496,7.2496,7.2496,7.2496,0.0,0.0,0.0,0.0,0.0,0.0,0.0,7.1629,0.0,7.0437,7.0667,7.1052,7.1514,7.1552,7.1745,7.2206,7.1822,7.1552,7.1552,7.1168,7.0898,7.0898,7.0898,0.0,7.0898,7.0652,7.0037,6.9131,0.0,0.0,6.7506,6.7221,6.732,6.7687,0.0,6.7863,0.0,0.0,0.0,6.8311,6.8311,6.8568,6.8972,6.9376,6.9522,6.9559,6.9963,6.9596,6.8935,6.8935,6.8935,6.8935,6.8935,6.8935,6.8935,6.8935,6.8935,6.8935,6.8935,6.8935,6.8935,6.8935,6.8935,6.8935,6.8935,6.8605,6.8311,6.8311,6.7981,6.7687,6.7687,6.7687,0.0,0.0,0.0,0.0,0.0,0.0,0.0,0.0,0.0,0.0,0.0,0.0,0.0,0.0,0.0,0.0,0.0,0.0,7.011,0.0,0.0,0.0,7.2496,0.0,7.2496,7.2496,7.2496,7.2496,7.2496,7.2496,7.2496,7.2496,7.2496,7.2496,7.2496,7.2496,7.2496,7.2496,7.2496,7.2496,7.2496,7.2496,7.2496,7.2496,0.0,7.1437,0.0,0.0,7.2014,0.0,7.2476,7.3053,7.3014,7.1629,7.1437,7.1706,7.2399,7.2476,7.2745,7.3437,7.286,7.2476,7.2476,7.1822,7.1437,7.1437,7.1437,7.1437,7.1437,7.1283,7.092,0.0,0.0,0.0,0.0,6.8259,6.7982,0.0,0.0,0.0,0.0,0.0,6.8568,6.9155,6.9155,6.9522,7.011,7.0293,7.0367,7.0367,7.055,7.0624,7.0624,7.0624,7.0367,7.011,7.011,7.011,7.011,7.011,7.011,7.011,7.011,7.011,7.011,7.011,7.011,7.011,7.011,6.9596,6.9155,6.9155,6.8641,6.8164,6.7981,6.7944,0.0,0.0,0.0,0.0,0.0,0.0,0.0,0.0,0.0,0.0,6.7687,0.0,0.0,0.0,0.0,0.0,6.7687,0.0,0.0,0.0,0.0,7.2349,7.2496,0.0,7.2496,7.2496,7.2496,7.2496,7.2496,7.2496,7.2496,7.2496,7.2496,7.2496,7.2496,7.2496,7.2496,7.2496,7.2496,7.2496,7.2496,7.2496,7.2496,7.2496,0.0,0.0,0.0,0.0,0.0,0.0,0.0,7.3437,7.3437,7.3283,7.3283,7.3283,7.336,7.3399,7.3399,7.3514,7.3437,7.3399,7.3399,7.3322,7.3283,7.3283,7.3283,7.3283,7.3283,7.2476,7.1842,0.0,0.0,0.0,0.0,6.919,6.8891,0.0,0.0,0.0,0.0,6.9614,6.9926,7.0,7.0,7.0036,7.0183,7.0917,7.1211,7.1284,7.2018,7.2275,7.2275,7.2275,7.1321,7.011,7.011,7.011,7.011,7.011,7.011,7.011,7.011,7.011,7.011,7.011,7.011,7.011,7.011,7.0036,7.0,7.0,6.9926,6.9633,6.8935,6.8788,6.8568,0.0,0.0,0.0,0.0,0.0,0.0,0.0,0.0,0.0,0.0,6.7687,0.0,0.0,6.7687,0.0,0.0,0.0,0.0,7.0073,7.0954,7.1762,7.2496,7.2496,7.2496,7.2496,7.2496,7.2496,7.2496,7.2496,7.2496,7.2496,7.2496,7.2496,7.2496,7.2496,7.2496,7.2496,7.2496,7.2496,7.2496,7.2496,7.2496,7.2496,0.0,0.0,0.0,0.0,0.0,0.0,0.0,7.4668,7.5014,7.5014,7.413,7.3668,7.4168,7.4207,7.4437,7.4938,7.4514,7.4207,7.4207,7.3783,7.3514,7.3514,7.3514,7.3514,7.3514,7.3168,7.2851,0.0,0.0,0.0,0.0,0.0,0.0,0.0,0.0,7.0841,7.0639,7.066,7.0676,7.0844,7.0844,7.1101,7.1578,7.1908,7.2018,7.2055,7.2386,7.2496,7.2496,7.2496,7.2055,7.1541,7.1541,7.1541,7.1541,7.1541,7.1541,7.1541,7.1541,7.1541,7.1541,7.1541,7.1541,7.1541,7.1541,7.1174,7.0844,7.0844,7.044,7.0,6.9669,6.9633,6.9522,6.9192,0.0,0.0,0.0,0.0,0.0,0.0,0.0,6.7687,0.0,6.7687,0.0,0.0,0.0,0.0,0.0,0.0,0.0,7.0073,0.0,7.2165,7.2496,7.2496,7.2496,7.2496,7.2496,7.2496,7.2496,7.2496,7.2496,7.2496,7.2496,7.2496,7.2496,7.2496,7.2496,7.2496,7.2496,7.2496,7.2496,7.2496,7.2496,7.2496,7.4245,0.0,7.4245,0.0,7.4707,7.5091,7.5091,7.5592,7.6015,7.6015,7.4976,7.4437,7.5014,7.5091,7.5322,7.5938,7.5438,7.5091,7.5091,7.4553,7.4245,7.4245,7.4245,0.0,7.4245,7.3976,7.386,7.386,7.3207,0.0,0.0,0.0,0.0,0.0,7.2472,7.2308,7.21,7.1818,7.1798,7.1858,7.1708,7.1982,7.2496,7.2496,7.2496,7.2496,7.2496,7.2496,7.2496,7.2496,7.2496,7.2496,7.2496,7.2496,7.2496,7.2496,7.2496,7.2496,7.2496,7.2496,7.2496,7.2496,7.2496,7.2496,7.2496,7.2055,7.1651,7.1651,7.1211,7.0734,7.0513,7.044,7.0367,7.0146,0.0,0.0,0.0,6.8568,0.0,0.0,6.7834,6.7687,6.7687,6.7687,0.0,0.0,0.0,0.0,0.0,0.0,0.0,0.0,0.0,0.0,7.2496,7.2496,7.2496,7.2496,7.2496,7.2496,7.2496,7.2496,7.2496,7.2496,7.2496,7.2496,7.2496,7.2496,7.2496,7.2496,7.2496,7.2496,7.2496,7.2496,7.2496,7.2496,7.5976,7.5976,7.5976,7.5976,7.5976,7.5976,7.5976,7.5976,7.6015,7.6015,7.5976,7.5976,7.5976,7.5976,7.5976,7.6015,7.5976,7.5976,7.5976,7.5976,7.5976,0.0,0.0,7.5976,7.5976,7.513,7.4707,7.4707,0.0,0.0,7.3514,0.0,7.3154,7.2647,7.3489,7.3574,7.2967,7.3276,7.3354,7.3341,7.2705,7.2496,7.2496,7.2496,7.2496,7.2496,7.2496,7.2496,7.2496,7.2496,7.2496,7.2496,7.2496,7.2496,7.2496,7.2496,7.2496,7.2496,7.2496,7.2496,7.2496,7.2496,7.2496,7.2496,7.2496,7.2496,7.2496,7.2496,7.2496,7.2239,7.1431,7.1321,7.1027,7.022,0.0,0.0,0.0,0.0,0.0,6.8898,6.8164,6.7687,6.7687,6.7687,0.0,0.0,0.0,0.0,0.0,0.0,0.0,7.0073,7.0881,0.0,7.2496,7.2496,7.2496,7.2496,7.2496,7.2496,7.2496,7.2496,7.2496,7.2496,7.2496,7.2496,7.2496,7.2496,7.2496,7.2496,7.2496,7.2496,7.2496,7.2496,7.2496,7.2496,7.6015,7.6015,7.6015,7.6015,7.6015,7.6015,7.6015,7.6015,7.6015,7.6015,7.6015,7.6015,7.6015,7.6015,7.6015,0.0,7.6015,7.6015,0.0,7.6015,7.6015,7.6015,7.6015,7.6015,7.6015,7.5745,7.5592,7.5592,0.0,0.0,0.0,7.5207,7.511,7.4912,7.5219,7.4996,7.441,7.4099,7.3794,7.3341,7.2705,7.2496,7.2496,7.2496,7.2496,7.2496,7.2496,7.2496,7.2496,7.2496,7.2496,7.2496,7.2496,7.2496,7.2496,7.2496,7.2496,7.2496,7.2496,7.2496,7.2496,7.2496,7.2496,7.2496,7.2496,7.2496,7.2496,7.2496,7.2496,7.2422,7.2165,7.2129,7.2055,7.1798,7.1284,0.0,7.0917,0.0,6.9706,6.9706,6.9486,6.9339,6.9339,6.9339,0.0,0.0,0.0,0.0,0.0,0.0,0.0,0.0,7.1725,0.0,7.2496,7.2496,7.2496,7.2496,7.2496,7.2496,7.2496,7.2496,7.2496,7.2496,7.2496,7.2496,7.2496,7.2496,7.2496,7.2496,7.2496,7.2496,7.2496,7.2496,7.2496,7.2496,7.6938,7.6938,7.6938,7.6938,7.6938,7.6938,7.6938,7.6938,7.6938,7.6938,7.6938,7.6938,7.6938,7.6938,0.0,7.6053,7.6015,7.6015,7.6015,7.6015,7.6015,7.6015,7.6015,7.6015,7.6015,7.6015,0.0,7.6015,7.6015,7.6015,7.6015,7.6015,7.6015,7.6015,7.6015,7.5787,7.5379,7.4629,7.4072,7.3651,7.2816,7.2496,7.2496,7.2496,7.2496,7.2496,7.2496,7.2496,7.2496,7.2496,7.2496,7.2496,7.2496,7.2496,7.2496,7.2496,7.2496,7.2496,7.2496,7.2496,7.2496,7.2496,7.2496,7.2496,7.2496,7.2496,7.2496,7.2496,7.2496,7.2496,7.2496,7.2496,7.2496,7.2496,7.2092,7.1762,7.1762,0.0,7.055,0.0,0.0,0.0,0.0,7.011,6.9889,0.0,0.0,0.0,0.0,0.0,7.0477,7.1284,7.2092,7.2496,7.2496,7.2496,7.2496,7.2496,7.2496,7.2496,7.2496,7.2496,7.2496,7.2496,7.2496,7.2496,7.2496,7.2496,7.2496,7.2496,7.2496,7.2496,7.2496,7.2496,7.2496,7.2496,7.8477,7.8477,0.0,0.0,7.8477,0.0,7.8477,7.8477,7.8477,7.8477,7.8477,7.8477,7.8477,7.8477,7.7861,7.6322,0.0,0.0,0.0,7.6092,7.6053,7.6015,7.6015,7.6015,7.6015,7.6015,7.6015,7.6015,7.6015,7.6015,7.6015,7.6015,7.6015,7.6015,7.6015,7.6015,7.5917,7.4749,7.4293,7.4206,7.2997,7.2496,7.2496,7.2496,7.2496,7.2496,7.2496,7.2496,7.2496,7.2496,7.2496,7.2496,7.2496,7.2496,7.2496,7.2496,7.2496,7.2496,7.2496,7.2496,7.2496,7.2496,7.2496,7.2496,7.2496,7.2496,7.2496,7.2496,7.2496,7.2496,7.2496,7.2496,7.2496,7.2496,7.2496,7.2496,7.2496,7.1872,7.1394,0.0,0.0,0.0,7.0257,7.0257,7.022,0.0,0.0,0.0,0.0,0.0,7.055,7.1358,7.2129,7.2496,7.2496,7.2496,7.2496,7.2496,7.2496,7.2496,7.2496,7.2496,7.2496,7.2496,7.2496,7.2496,7.2496,7.2496,7.2496,7.2496,7.2496,7.2496,7.2496,7.2496,7.2496,7.2496,0.0,0.0,7.8477,7.8477,7.8477,7.8477,7.8477,7.8477,7.8477,7.8477,7.8477,7.8477,7.8477,7.8477,7.8323,7.7938,7.79,7.763,7.7015,7.6976,7.6707,7.6015,7.6015,7.6015,7.6015,7.6015,7.6015,7.6015,7.6015,7.6015,7.6015,7.6015,7.6015,7.6015,7.6015,7.6015,7.5917,7.4749,7.4293,7.4206,7.2997,7.2496,7.2496,7.2496,7.2496,7.2496,7.2496,7.2496,7.2496,7.2496,7.2496,7.2496,7.2496,7.2496,7.2496,7.2496,7.2496,7.2496,7.2496,7.2496,7.2496,7.2496,7.2496,7.2496,7.2496,7.2496,7.2496,7.2496,7.2496,7.2496,7.2496,7.2496,7.2496,7.2496,7.2496,7.2496,7.2496,7.2349,7.2239,0.0,7.2055,7.1945,7.1945,7.1945,7.1688,0.0,0.0,7.1101,7.1321,7.1138,7.1394,7.2202,7.2422,7.2496,7.2496,7.2496,7.2496,7.2496,7.2496,7.2496,7.2496,7.2496,7.2496,7.2496,7.2496,7.2496,7.2496,7.2496,7.2496,7.2496,7.2496,7.2496,7.2496,7.2496,7.2496,7.2496,7.9669,7.9669,7.9669,7.9669,7.9669,7.9669,7.9669,7.9669,7.9669,7.9669,7.9669,7.9669,7.9669,7.9669,7.9669,7.9669,7.8938,7.8284,7.7861,7.7861,7.763,7.7169,7.713,7.6976,7.6592,7.6592,7.6399,7.6015,7.6015,7.6015,7.6015,7.6015,7.6015,7.6015,7.6015,7.6015,7.5917,7.4749,7.4293,7.4206,7.2997,7.2496,7.2496,7.2496,7.2496,7.2496,7.2496,7.2496,7.2496,7.2496,7.2496,7.2496,7.2496,7.2496,7.2496,7.2496,7.2496,7.2496,7.2496,7.2496,7.2496,7.2496,7.2496,7.2496,7.2496,7.2496,7.2496,7.2496,7.2496,7.2496,7.2496,7.2496,7.2496,7.2496,7.2496,7.2496,7.2496,7.2496,7.2496,7.2496,7.2496,7.2496,7.2496,7.2496,7.2312,7.1872,7.1872,0.0,7.1872,7.1872,7.2055,7.2496,7.2496,7.2496,7.2496,7.2496,7.2496,7.2496,7.2496,7.2496,7.2496,7.2496,7.2496,7.2496,7.2496,7.2496,7.2496,7.2496,7.2496,7.2496,7.2496,7.2496,7.2496,7.2496,7.2496,7.2496,8.1093,8.1093,8.1093,8.1093,8.1093,8.1093,8.1093,8.1093,8.1093,8.1093,8.1093,8.1093,8.1093,8.1093,8.1093,8.1093,7.9746,7.8823,7.8707,7.8707,7.8631,7.8515,7.8477,7.8169,7.7476,7.7476,7.713,7.6361,7.6361,7.6322,7.6207,7.6207,7.613,7.6015,7.6015,7.6015,7.5917,7.4749,7.4293,7.4206,7.2997,7.2496,7.2496,7.2496,7.2496,7.2496,7.2496,7.2496,7.2496,7.2496,7.2496,7.2496,7.2496,7.2496,7.2496,7.2496,7.2496,7.2496,7.2496,7.2496,7.2496,7.2496,7.2496,7.2496,7.2496,7.2496,7.2496,7.2496,7.2496,7.2496,7.2496,7.2496,7.2496,7.2496,7.2496,7.2496,7.2496,0.0,7.2496,7.2496,7.2496,7.2496,7.2496,7.2496,7.2496,7.2496,7.2496,7.2496,7.2496,7.2496,7.2496,7.2496,7.2496,7.2496,7.2496,7.2496,7.2496,7.2496,7.2496,7.2496,7.2496,7.2496,7.2496,7.2496,7.2496,7.2496,7.2496,7.2496,7.2496,7.2496,7.2496,7.2496,7.2496,7.2496,7.2496,7.2496,8.1093,8.1093,8.1093,8.1093,8.1093,8.1093,8.1093,8.1093,8.1093,8.1093,8.1093,8.1093,8.1093,8.1093,8.1093,8.1093,8.0862,8.0362,7.9669,7.9592,7.9285,7.8515,7.8477,7.8438,7.8323,7.8284,7.8246,7.8092,7.8092,7.7746,7.7092,7.7092,7.6707,7.6015,7.6015,7.6015,7.5917,7.4749,7.4293,7.4206,7.2997,7.2496,7.2496,7.2496,7.2496,7.2496,7.2496,7.2496,7.2496,7.2496,7.2496,7.2496,7.2496,7.2496,7.2496,7.2496,7.2496,7.2496,7.2496,7.2496,7.2496,7.2496,7.2496,7.2496,7.2496,7.2496,7.2496,7.2496,7.2496,7.2496,7.2496,7.2496,7.2496,7.2496,7.2496,7.2496,7.2496,0.0,7.2496,7.2496,7.2496,7.2496,7.2496,7.2496,7.2496,7.2496,7.2496,7.2496,7.2496,7.2496,7.2496,7.2496,7.2496,7.2496,7.2496,7.2496,7.2496,7.2496,7.2496,7.2496,7.2496,7.2496,7.2496,7.2496,7.2496,7.2496,7.2496,7.2496,7.2496,7.2496,7.2496,7.2496,7.2496,7.2496,7.2496,7.2496,8.1093,8.1093,8.1093,8.1093,8.1093,8.1093,8.1093,8.1093,8.1093,8.1093,8.1093,8.1093,8.1093,8.1093,8.1093,8.1093,8.1093,8.0939,8.0516,8.0516,8.0323,7.99,7.99,7.9669,7.9208,7.8746,7.8477,7.8477,7.8477,7.8284,7.7938,7.7938,7.7707,7.7361,7.7361,7.7361,7.7293,7.6502,7.5914,7.5525,7.4681,7.4145,7.378,7.378,7.378,7.378,7.378,7.378,7.3744,7.3303,7.3156,7.3083,7.2642,7.2496,7.2496,7.2496,7.2496,7.2496,7.2496,7.2496,7.2496,7.2496,7.2496,7.2496,7.2496,7.2496,7.2496,7.2496,7.2496,7.2496,7.2496,7.2496,7.2496,7.2496,7.2496,7.2496,7.2496,7.2496,7.2496,7.2496,7.2496,7.2496,7.2496,7.2496,7.2496,7.2496,7.2496,7.2496,7.2496,7.2496,7.2496,7.2496,7.2496,7.2496,7.2496,7.2496,7.2496,7.2496,7.2496,7.2496,7.2496,7.2496,7.2496,7.2496,7.2496,7.2496,7.2496,7.2496,7.2496,7.2496,7.2496,7.2496,7.2496,7.2496,7.2496,7.2496,8.1093,8.1093,8.1093,8.1093,8.1093,8.1093,8.1093,8.1093,8.1093,8.1093,8.1093,8.1093,8.1093,8.1093,8.1093,8.1093,8.1093,8.1093,8.1093,8.1093,8.1093,8.1093,8.1093,8.0785,8.0131,7.9438,7.9092,7.9092,7.9092,7.8977,7.8784,7.8784,7.8669,7.8477,7.8477,7.8477,7.8446,7.7903,7.7336,7.6663,7.6119,7.5495,7.4918,7.4918,7.4918,7.4918,7.4918,7.4918,7.4808,7.4184,7.3964,7.3854,7.3266,7.2936,7.2789,7.2789,7.2642,7.2496,7.2496,7.2496,7.2496,7.2496,7.2496,7.2496,7.2496,7.2496,7.2496,7.2496,7.2496,7.2496,7.2496,7.2496,7.2496,7.2496,0.0,7.2496,7.2496,7.2496,7.2496,7.2496,7.2496,7.2496,7.2496,7.2496,7.2496,7.2496,7.2496,7.2496,7.2496,7.2496,7.2496,7.2496,7.2496,7.2496,7.2496,7.2496,7.2496,7.2496,7.2496,7.2496,7.2496,7.2496,7.2496,7.2496,7.2496,7.2496,7.2496,7.2496,7.2496,7.2496,7.2496,7.2496,7.2496,7.2496,7.2496,7.2496,8.1093,8.1093,8.1093,8.1093,8.1093,8.1093,8.1093,8.1093,8.1093,8.1093,8.1093,8.1093,8.1093,8.1093,8.1093,8.1093,8.1093,8.1093,8.1093,8.1093,8.1093,8.1093,8.1093,8.1054,8.1016,8.0939,8.09,8.09,8.09,8.0516,7.9708,7.9708,7.9285,7.8477,7.8477,7.8477,7.8446,7.7903,7.7336,7.6663,7.6119,7.5495,7.4918,7.4918,7.4918,7.4918,7.4918,7.4918,7.4918,7.4845,7.4808,7.4808,7.4735,7.4221,7.3597,7.3597,7.3083,7.2496,7.2496,7.2496,7.2496,7.2496,7.2496,7.2496,7.2496,7.2496,7.2496,7.2496,7.2496,7.2496,7.2496,7.2496,7.2496,7.2496,0.0,0.0,7.2496,7.2496,7.2496,7.2496,7.2496,7.2496,7.2496,7.2496,7.2496,7.2496,7.2496,7.2496,7.2496,7.2496,7.2496,7.2496,7.2496,7.2496,7.2496,7.2496,7.2496,7.2496,7.2496,7.2496,7.2496,7.2496,7.2496,7.2496,7.2496,7.2496,7.2496,7.2496,7.2496,7.2496,7.2496,7.2496,7.2496,7.2496,7.2496,7.2496,8.1208,8.1093,8.1093,8.1093,8.1093,8.1093,8.1093,8.1093,8.1093,8.1093,8.1093,8.1093,8.1093,8.1093,8.1093,8.1093,8.1093,8.1093,8.1093,8.1093,8.1093,8.1093,8.1093,8.1093,8.1093,8.1093,8.1093,8.1093,8.1093,8.0939,8.0592,8.0592,8.0439,8.0092,8.0092,8.0092,8.0092,7.9895,7.9435,7.8777,7.8566,7.8116,7.7513,7.7162,7.727,7.7461,7.667,7.6921,7.7386,7.6117,7.5933,7.6069,7.5206,7.4698,7.4368,7.3854,7.312,7.2496,7.2496,7.2496,7.2496,7.2496,7.2496,7.2496,7.2496,7.2496,7.2496,7.2496,7.2496,7.2496,7.2496,7.2496,7.2496,7.2496,0.0,7.2496,7.2496,7.2496,7.2496,7.2496,7.2496,7.2496,7.2496,7.2496,7.2496,7.2496,7.2496,7.2496,7.2496,7.2496,7.2496,7.2496,7.2496,7.2496,7.2496,7.2496,7.2496,7.2496,7.2496,7.2496,7.2496,7.2496,7.2496,7.2496,7.2496,7.2496,7.2496,7.2496,7.2496,7.2496,7.2496,7.2496,7.2496,7.2496,7.2496,7.2496,8.1593,8.1285,8.1093,8.1093,8.1093,8.1093,8.1093,8.1093,8.1093,8.1093,8.1093,8.1093,8.1093,8.1093,8.1093,8.1093,8.1093,8.1093,8.1093,8.1093,8.1093,8.1093,8.1093,8.1093,8.1093,8.1093,8.1093,8.1093,8.1093,8.1093,8.1093,8.1093,8.1093,8.1093,8.1093,8.1093,8.1093,8.1093,8.0716,8.0125,8.0125,7.9765,7.9152,7.8754,7.8853,7.9058,7.7979,7.8163,7.8641,7.7045,7.6918,7.727,7.6037,7.5506,7.5065,7.4001,7.3303,7.2826,7.2569,7.2496,7.2496,7.2496,7.2496,7.2496,7.2496,7.2496,7.2496,7.2496,7.2496,7.2496,7.2496,7.2496,7.2496,7.2496,7.2496,7.2496,7.2496,7.2496,7.2496,7.2496,7.2496,7.2496,7.2496,7.2496,7.2496,7.2496,7.2496,7.2496,7.2496,7.2496,7.2496,7.2496,7.2496,7.2496,7.2496,7.2496,7.2496,7.2496,7.2496,7.2496,7.2496,7.2496,7.2496,7.2496,7.2496,7.2496,7.2496,7.2496,7.2496,7.2496,7.2496,7.2496,7.2496,7.2496,7.2496,7.2496,8.2324,8.167,8.1093,8.1093,8.1093,8.1093,8.1093,8.1093,8.1093,8.1093,8.1093,8.1093,8.1093,8.1093,8.1093,8.1093,8.1093,8.1093,8.1093,8.1093,8.1093,8.1093,8.1093,8.1093,8.1093,8.1093,8.1093,8.1093,8.1093,8.1093,8.1093,8.1093,8.1093,8.1093,8.1093,8.1093,8.1093,8.1093,8.0716,8.0125,8.0125,7.9765,7.9198,7.9198,7.9198,7.9152,7.8536,7.8309,7.82,7.757,7.7768,7.82,7.751,7.6754,7.5799,7.4184,7.3707,7.3523,7.2716,7.2496,7.2496,7.2496,7.2496,7.2496,7.2496,7.2496,7.2496,7.2496,7.2496,7.2496,7.2496,7.2496,7.2496,7.2496,7.2496,7.2496,7.2496,7.2496,7.2496,7.2496,7.2496,7.2496,7.2496,7.2496,7.2496,7.2496,7.2496,7.2496,7.2496,7.2496,7.2496,7.2496,7.2496,7.2496,7.2496,7.2496,7.2496,7.2496,7.2496,7.2496,7.2496,7.2496,7.2496,7.2496,7.2496,7.2496,7.2496,7.2496,7.2496,7.2496,7.2496,7.2496,7.2496,7.2496,7.2496,7.2496,8.3324,8.2516,8.1939,8.1939,8.1477,8.1093,8.1093,8.1093,8.1093,8.1093,8.1093,8.1093,8.1093,8.1093,8.1093,8.1093,8.1093,8.1093,8.1093,8.1093,8.1093,8.1093,8.1093,8.1093,8.1093,8.1093,8.1093,8.1093,8.1093,8.1093,8.1093,8.1093,8.1093,8.1093,8.1093,8.1093,8.1093,8.1093,8.0991,8.0783,8.0783,8.0716,8.0463,8.0046,8.0125,8.039,7.929,7.9507,8.0124,7.901,7.9058,7.938,7.8325,7.746,7.6625,7.5684,7.4588,7.3634,7.3413,7.2936,7.2496,7.2496,7.2496,7.2496,7.2496,7.2496,7.2496,7.2496,7.2496,7.2496,7.2496,7.2496,7.2496,7.2496,7.2496,7.2496,7.2496,7.2496,7.2496,7.2496,7.2496,7.2496,7.2496,7.2496,7.2496,7.2496,7.2496,7.2496,7.2496,7.2496,7.2496,7.2496,7.2496,7.2496,7.2496,7.2496,7.2496,7.2496,7.2496,7.2496,7.2496,7.2496,7.2496,7.2496,7.2496,7.2496,7.2496,7.2496,7.2496,7.2496,7.2496,7.2496,7.2496,7.2496,7.2496,7.2496,8.4209,8.3401,8.2708,8.2362,8.19,8.1477,8.1131,8.1093,8.1093,8.1093,8.1093,8.1093,8.1093,8.1093,8.1093,8.1093,8.1093,8.1093,8.1093,8.1093,8.1093,8.1093,8.1093,8.1093,8.1093,8.1093,8.1093,8.1093,8.1093,8.1093,8.1093,8.1093,8.1093,8.1093,8.1093,8.1093,8.1093,8.1093,8.1093,8.1093,8.1093,8.1093,8.1061,8.0643,8.075,8.0959,7.9929,8.0046,8.0573,7.9513,7.929,7.929,7.8804,7.799,7.7069,7.6287,7.5175,7.4111,7.378,7.312,7.2496,7.2496,7.2496,7.2496,7.2496,7.2496,7.2496,7.2496,7.2496,7.2496,7.2496,7.2496,7.2496,7.2496,7.2496,7.2496,7.2496,7.2496,7.2496,7.2496,7.2496,7.2496,7.2496,7.2496,7.2496,7.2496,7.2496,7.2496,7.2496,7.2496,7.2496,7.2496,7.2496,7.2496,7.2496,7.2496,7.2496,7.2496,7.2496,7.2496,7.2496,7.2496,7.2496,7.2496,7.2496,7.2496,7.2496,7.2496,7.2496,7.2496,7.2496,7.2496,7.2496,7.2496,7.2496,7.2496,8.5016,8.4324,8.3478,8.267,8.2401,8.2054,8.1323,8.1131,8.1093,8.1093,8.1093,8.1093,8.1093,8.1093,8.1093,8.1093,8.1093,8.1093,8.1093,8.1093,8.1093,8.1093,8.1093,8.1093,8.1093,8.1093,8.1093,8.1093,8.1093,8.1093,8.1093,8.1093,8.1093,8.1093,8.1093,8.1093,8.1093,8.1093,8.1093,8.1093,8.1093,8.1093,8.1093,8.1093,8.1093,8.0991,8.0427,8.0201,8.0125,7.9556,7.901,7.8639,7.9105,7.8447,7.7303,7.6507,7.5639,7.4735,7.4001,7.3156,7.2496,7.2496,7.2496,7.2496,7.2496,7.2496,7.2496,7.2496,7.2496,7.2496,7.2496,7.2496,7.2496,7.2496,7.2496,7.2496,7.2496,7.2496,7.2496,7.2496,7.2496,7.2496,7.2496,7.2496,7.2496,7.2496,7.2496,7.2496,7.2496,7.2496,7.2496,7.2496,7.2496,7.2496,7.2496,7.2496,7.2496,7.2496,7.2496,7.2496,7.2496,7.2496,7.2496,7.2496,7.2496,7.2496,7.2496,7.2496,7.2496,7.2496,7.2496,7.2496,7.2496,7.2496,7.2496,7.2496,8.5863,8.517,8.4555,8.4362,8.3208,8.2247,8.2054,8.1516,8.1093,8.1093,8.1093,8.1093,8.1093,8.1093,8.1093,8.1093,8.1093,8.1093,8.1093,8.1093,8.1093,8.1093,8.1093,8.1093,8.1093,8.1093,8.1093,8.1093,8.1093,8.1093,8.1093,8.1093,8.1093,8.1093,8.1093,8.1093,8.1093,8.1093,8.1093,8.1093,8.1093,8.1093,8.1093,8.1093,8.1093,8.1093,8.0959,8.0888,8.0855,8.0716,8.0573,8.0427,8.0046,7.938,7.8629,7.8031,7.6417,7.4882,7.4698,7.3597,7.2496,7.2496,7.2496,7.2496,7.2496,7.2496,7.2496,7.2496,7.2496,7.2496,7.2496,7.2496,7.2496,7.2496,7.2496,7.2496,7.2496,7.2496,7.2496,7.2496,7.2496,7.2496,7.2496,7.2496,7.2496,7.2496,7.2496,7.2496,7.2496,7.2496,7.2496,7.2496,7.2496,7.2496,7.2496,7.2496,7.2496,7.2496,7.2496,7.2496,7.2496,7.2496,7.2496,7.2496,7.2496,7.2496,7.2496,7.2496,7.2496,7.2496,7.2496,7.2496,7.2496,7.2496,7.2496,7.2496,8.6094,8.5747,8.5363,8.4978,8.417,8.3247,8.2439,8.1939,8.1516,8.1131,8.1093,8.1093,8.1093,8.1093,8.1093,8.1093,8.1093,8.1093,8.1093,8.1093,8.1093,8.1093,8.1093,8.1093,8.1093,8.1093,8.1093,8.1093,8.1093,8.1093,8.1093,8.1093,8.1093,8.1093,8.1093,8.1093,8.1093,8.1093,8.1093,8.1093,8.1093,8.1093,8.1093,8.1093,8.1093,8.1093,8.1093,8.1093,8.1061,8.075,8.0427,8.0086,7.9425,7.8816,7.8218,7.7903,7.6685,7.5395,7.5028,7.4001,7.2973,7.2606,7.2496,7.2496,7.2496,7.2496,7.2496,7.2496,7.2496,7.2496,7.2496,7.2496,7.2496,7.2496,7.2496,7.2496,7.2496,7.2496,7.2496,7.2496,7.2496,7.2496,7.2496,7.2496,7.2496,7.2496,7.2496,7.2496,7.2496,7.2496,7.2496,7.2496,7.2496,7.2496,7.2496,7.2496,7.2496,7.2496,7.2496,7.2496,7.2496,7.2496,7.2496,7.2496,7.2496,7.2496,7.2496,7.2496,7.2496,7.2496,7.2496,7.2496,7.2496,7.2496,7.2496,7.2496,8.6094,8.6094,8.5901,8.5209,8.4978,8.4401,8.2978,8.2477,8.2054,8.14,8.1208,8.1093,8.1093,8.1093,8.1093,8.1093,8.1093,8.1093,8.1093,8.1093,8.1093,8.1093,8.1093,8.1093,8.1093,8.1093,8.1093,8.1093,8.1093,8.1093,8.1093,8.1093,8.1093,8.1093,8.1093,8.1093,8.1093,8.1093,8.1093,8.1093,8.1093,8.1093,8.1093,8.1093,8.1093,8.1093,8.1093,8.1093,8.0991,8.0315,7.9765,7.9244,7.8653,7.7979,7.745,7.745,7.6838,7.5909,7.5139,7.4331,7.3487,7.2716,7.2496,7.2496,7.2496,7.2496,7.2496,7.2496,7.2496,7.2496,7.2496,7.2496,7.2496,7.2496,7.2496,7.2496,7.2496,7.2496,7.2496,7.2496,7.2496,7.2496,7.2496,7.2496,7.2496,7.2496,7.2496,7.2496,7.2496,7.2496,7.2496,7.2496,7.2496,7.2496,7.2496,7.2496,7.2496,7.2496,7.2496,7.2496,7.2496,7.2496,7.2496,7.2496,7.2496,7.2496,7.2496,7.2496,7.2496,7.2496,7.2496,7.2496,7.2496,7.2496,7.2496,7.2496,8.6094,8.6094,8.6055,8.5978,8.5363,8.4824,8.4593,8.3285,8.2247,8.2131,8.1516,8.1093,8.1093,8.1093,8.1093,8.1093,8.1093,8.1093,8.1093,8.1093,8.1093,8.1093,8.1093,8.1093,8.1093,8.1093,8.1093,8.1093,8.1093,8.1093,8.1093,8.1093,8.1093,8.1093,8.1093,8.1093,8.1093,8.1093,8.1093,8.1093,8.1093,8.1093,8.1093,8.1093,8.1093,8.1093,8.1093,8.1093,8.0991,8.0315,8.0048,7.9888,7.929,7.8653,7.8146,7.8146,7.7176,7.5909,7.5139,7.4331,7.3487,7.2716,7.2496,7.2496,7.2496,7.2496,7.2496,7.2496,7.2496,7.2496,7.2496,7.2496,7.2496,7.2496,7.2496,7.2496,7.2496,7.2496,7.2496,7.2496,7.2496,7.2496,7.2496,7.2496,7.2496,7.2496,7.2496,7.2496,7.2496,7.2496,7.2496,7.2496,7.2496,7.2496,7.2496,7.2496,7.2496,7.2496,7.2496,7.2496,7.2496,7.2496,7.2496,7.2496,7.2496,7.2496,7.2496,7.2496,7.2496,7.2496,7.2496,7.2496,7.2496,7.2496,7.2496,7.2496,8.6094,8.6094,8.6094,8.6094,8.5824,8.544,8.4978,8.4247,8.3401,8.2439,8.1977,8.1593,8.1131,8.1093,8.1093,8.1093,8.1093,8.1093,8.1093,8.1093,8.1093,8.1093,8.1093,8.1093,8.1093,8.1093,8.1093,8.1093,8.1093,8.1093,8.1093,8.1093,8.1093,8.1093,8.1093,8.1093,8.1093,8.1093,8.1093,8.1093,8.1093,8.1093,8.1093,8.1093,8.1093,8.1093,8.1093,8.1093,8.0959,7.9929,7.96,7.9469,7.8902,7.8536,7.8309,7.8309,7.7868,7.7012,7.5331,7.4661,7.4074,7.2826,7.2496,7.2496,7.2496,7.2496,7.2496,7.2496,7.2496,7.2496,7.2496,7.2496,7.2496,7.2496,7.2496,7.2496,7.2496,7.2496,7.2496,7.2496,7.2496,7.2496,7.2496,7.2496,7.2496,7.2496,7.2496,7.2496,7.2496,7.2496,7.2496,7.2496,7.2496,7.2496,7.2496,7.2496,7.2496,7.2496,7.2496,7.2496,7.2496,7.2496,7.2496,7.2496,7.2496,7.2496,7.2496,7.2496,7.2496,7.2496,7.2496,7.2496,7.2496,7.2496,7.2496,7.2496]},{"header":{"parameterUnit":"m.s-1","parameterCategory":1,"la1":30.6,"la2":28.766,"lo1":-90.7593,"lo2":-88.6598,"dy":0.0162,"dx":0.0183,"nx":116,"ny":114,"refTime":"2023-10-09T00:00:00:Z","depth":0,"parameterNumber":3,"parameterNumberName":"V-component_of_WINDS"},"data":[0.0,0.0,0.0,0.0,0.0,0.0,0.0,0.0,0.0,0.0,0.0,0.0,0.0,0.0,0.0,0.0,0.0,0.0,0.0,0.0,0.0,0.0,0.0,0.0,0.0,0.0,0.0,0.0,0.0,0.0,0.0,0.0,0.0,0.0,0.0,0.0,0.0,0.0,0.0,0.0,0.0,0.0,0.0,0.0,0.0,0.0,0.0,0.0,0.0,0.0,0.0,0.0,0.0,0.0,0.0,0.0,0.0,0.0,0.0,0.0,0.0,0.0,0.0,0.0,0.0,0.0,0.0,0.0,0.0,0.0,0.0,0.0,0.0,0.0,0.0,0.0,0.0,0.0,0.0,0.0,0.0,0.0,0.0,0.0,0.0,0.0,0.0,0.0,0.0,0.0,0.0,0.0,0.0,0.0,0.0,0.0,0.0,0.0,0.0,0.0,0.0,0.0,0.0,0.0,0.0,0.0,0.0,0.0,0.0,0.0,0.0,0.0,0.0,0.0,0.0,0.0,0.0,0.0,0.0,0.0,0.0,0.0,0.0,0.0,0.0,0.0,0.0,0.0,0.0,0.0,0.0,0.0,0.0,0.0,0.0,0.0,0.0,0.0,0.0,0.0,0.0,0.0,0.0,0.0,0.0,0.0,0.0,0.0,0.0,0.0,0.0,0.0,0.0,0.0,0.0,0.0,0.0,0.0,0.0,0.0,0.0,0.0,0.0,0.0,0.0,0.0,0.0,0.0,0.0,0.0,0.0,0.0,0.0,0.0,0.0,0.0,0.0,0.0,0.0,0.0,0.0,0.0,0.0,0.0,0.0,0.0,0.0,0.0,0.0,0.0,0.0,0.0,0.0,0.0,0.0,0.0,0.0,0.0,0.0,0.0,0.0,0.0,0.0,0.0,0.0,0.0,0.0,0.0,0.0,0.0,0.0,0.0,0.0,0.0,0.0,0.0,0.0,0.0,0.0,0.0,0.0,0.0,0.0,0.0,0.0,0.0,0.0,0.0,0.0,0.0,0.0,0.0,0.0,0.0,0.0,0.0,0.0,0.0,0.0,0.0,0.0,0.0,0.0,0.0,0.0,0.0,0.0,0.0,0.0,0.0,0.0,0.0,0.0,0.0,0.0,0.0,0.0,0.0,0.0,0.0,0.0,0.0,0.0,0.0,0.0,0.0,0.0,0.0,0.0,0.0,0.0,0.0,0.0,0.0,0.0,0.0,0.0,0.0,0.0,0.0,0.0,0.0,0.0,0.0,0.0,0.0,0.0,0.0,0.0,0.0,0.0,0.0,0.0,0.0,0.0,0.0,0.0,0.0,0.0,0.0,0.0,0.0,0.0,0.0,0.0,0.0,0.0,0.0,0.0,0.0,0.0,0.0,0.0,0.0,0.0,0.0,0.0,0.0,0.0,0.0,0.0,0.0,0.0,0.0,0.0,0.0,0.0,0.0,0.0,0.0,0.0,0.0,0.0,0.0,0.0,0.0,0.0,0.0,0.0,0.0,0.0,0.0,0.0,0.0,0.0,0.0,0.0,0.0,0.0,0.0,0.0,0.0,0.0,0.0,0.0,0.0,0.0,0.0,0.0,0.0,0.0,0.0,0.0,0.0,0.0,0.0,0.0,0.0,0.0,0.0,0.0,0.0,0.0,0.0,0.0,0.0,0.0,0.0,0.0,0.0,0.0,0.0,0.0,0.0,0.0,0.0,0.0,0.0,0.0,0.0,0.0,0.0,0.0,0.0,0.0,0.0,0.0,0.0,0.0,0.0,0.0,0.0,0.0,0.0,0.0,0.0,0.0,0.0,0.0,0.0,0.0,0.0,0.0,0.0,0.0,0.0,0.0,0.0,0.0,0.0,0.0,0.0,0.0,0.0,0.0,0.0,0.0,0.0,0.0,0.0,0.0,0.0,0.0,0.0,0.0,0.0,0.0,0.0,0.0,0.0,0.0,0.0,0.0,0.0,0.0,0.0,0.0,0.0,0.0,0.0,0.0,0.0,0.0,0.0,0.0,0.0,0.0,0.0,0.0,0.0,0.0,0.0,0.0,0.0,0.0,0.0,0.0,0.0,0.0,0.0,0.0,0.0,0.0,0.0,0.0,0.0,0.0,0.0,0.0,0.0,0.0,0.0,0.0,0.0,0.0,0.0,0.0,0.0,0.0,0.0,0.0,0.0,0.0,0.0,0.0,0.0,0.0,0.0,0.0,0.0,0.0,0.0,0.0,0.0,0.0,0.0,0.0,0.0,0.0,0.0,0.0,0.0,0.0,0.0,0.0,0.0,0.0,0.0,0.0,0.0,0.0,0.0,0.0,0.0,0.0,0.0,0.0,0.0,0.0,0.0,0.0,0.0,0.0,0.0,0.0,0.0,0.0,0.0,0.0,0.0,0.0,0.0,0.0,0.0,0.0,0.0,0.0,0.0,0.0,0.0,0.0,0.0,0.0,0.0,0.0,0.0,0.0,0.0,0.0,0.0,0.0,0.0,0.0,0.0,0.0,0.0,0.0,0.0,0.0,0.0,0.0,0.0,0.0,0.0,0.0,0.0,0.0,0.0,0.0,0.0,0.0,0.0,0.0,0.0,0.0,0.0,0.0,0.0,0.0,0.0,0.0,0.0,0.0,0.0,0.0,0.0,0.0,0.0,0.0,0.0,0.0,0.0,0.0,0.0,0.0,0.0,0.0,0.0,0.0,0.0,0.0,0.0,0.0,0.0,0.0,0.0,0.0,0.0,0.0,0.0,0.0,0.0,0.0,0.0,0.0,0.0,0.0,0.0,0.0,0.0,0.0,0.0,0.0,0.0,0.0,0.0,0.0,0.0,0.0,0.0,0.0,0.0,0.0,0.0,0.0,0.0,0.0,0.0,0.0,0.0,0.0,0.0,0.0,0.0,0.0,0.0,0.0,0.0,0.0,0.0,0.0,0.0,0.0,0.0,0.0,0.0,0.0,0.0,0.0,0.0,0.0,0.0,0.0,0.0,0.0,0.0,0.0,0.0,0.0,0.0,0.0,0.0,0.0,0.0,0.0,0.0,0.0,0.0,0.0,0.0,0.0,0.0,0.0,0.0,0.0,0.0,0.0,0.0,0.0,0.0,0.0,0.0,0.0,0.0,0.0,0.0,0.0,0.0,0.0,0.0,0.0,0.0,0.0,0.0,0.0,0.0,0.0,0.0,0.0,0.0,0.0,0.0,0.0,0.0,0.0,0.0,0.0,0.0,0.0,0.0,0.0,0.0,0.0,0.0,0.0,0.0,0.0,0.0,0.0,0.0,0.0,0.0,0.0,0.0,0.0,0.0,0.0,0.0,0.0,0.0,0.0,0.0,0.0,0.0,0.0,0.0,0.0,0.0,0.0,0.0,0.0,0.0,0.0,0.0,0.0,0.0,0.0,0.0,0.0,0.0,0.0,0.0,0.0,0.0,0.0,0.0,0.0,0.0,0.0,0.0,0.0,0.0,0.0,0.0,0.0,0.0,0.0,0.0,0.0,0.0,0.0,0.0,0.0,0.0,0.0,0.0,0.0,0.0,0.0,0.0,0.0,0.0,0.0,0.0,0.0,0.0,0.0,0.0,0.0,0.0,0.0,0.0,0.0,0.0,0.0,0.0,0.0,0.0,0.0,0.0,0.0,0.0,0.0,0.0,0.0,0.0,0.0,0.0,0.0,0.0,0.0,0.0,0.0,0.0,0.0,0.0,0.0,0.0,0.0,0.0,0.0,0.0,0.0,0.0,0.0,0.0,0.0,0.0,0.0,0.0,0.0,0.0,0.0,0.0,0.0,0.0,0.0,0.0,0.0,0.0,0.0,0.0,0.0,0.0,0.0,0.0,0.0,0.0,0.0,0.0,0.0,0.0,0.0,0.0,0.0,0.0,0.0,0.0,0.0,0.0,0.0,0.0,0.0,0.0,0.0,0.0,0.0,0.0,0.0,0.0,0.0,0.0,0.0,0.0,0.0,0.0,0.0,0.0,0.0,0.0,0.0,0.0,0.0,0.0,0.0,0.0,0.0,0.0,0.0,0.0,0.0,0.0,0.0,0.0,0.0,0.0,0.0,0.0,0.0,0.0,0.0,0.0,0.0,0.0,0.0,0.0,0.0,0.0,0.0,0.0,0.0,0.0,0.0,0.0,0.0,0.0,0.0,0.0,0.0,0.0,0.0,0.0,0.0,0.0,0.0,0.0,0.0,0.0,0.0,0.0,0.0,0.0,0.0,0.0,0.0,0.0,0.0,0.0,0.0,0.0,0.0,0.0,0.0,0.0,0.0,0.0,0.0,0.0,0.0,0.0,0.0,0.0,0.0,0.0,0.0,0.0,0.0,0.0,0.0,0.0,0.0,0.0,0.0,0.0,0.0,0.0,0.0,0.0,0.0,0.0,0.0,0.0,0.0,0.0,0.0,0.0,0.0,0.0,0.0,0.0,0.0,0.0,0.0,0.0,0.0,0.0,0.0,0.0,0.0,0.0,0.0,0.0,0.0,0.0,0.0,0.0,0.0,0.0,0.0,0.0,0.0,0.0,0.0,0.0,0.0,0.0,0.0,0.0,0.0,0.0,0.0,0.0,0.0,0.0,0.0,0.0,0.0,0.0,0.0,0.0,0.0,0.0,0.0,0.0,0.0,0.0,0.0,0.0,0.0,0.0,0.0,0.0,0.0,0.0,0.0,0.0,0.0,0.0,0.0,0.0,0.0,0.0,0.0,0.0,0.0,0.0,0.0,0.0,0.0,0.0,0.0,0.0,0.0,0.0,0.0,0.0,0.0,0.0,0.0,0.0,0.0,0.0,0.0,0.0,0.0,0.0,0.0,0.0,0.0,0.0,0.0,0.0,0.0,0.0,0.0,0.0,0.0,0.0,0.0,0.0,0.0,0.0,0.0,0.0,0.0,0.0,0.0,0.0,0.0,0.0,0.0,0.0,0.0,0.0,0.0,0.0,0.0,0.0,0.0,0.0,0.0,0.0,0.0,0.0,0.0,0.0,0.0,0.0,0.0,0.0,0.0,0.0,0.0,0.0,0.0,0.0,0.0,0.0,0.0,0.0,0.0,0.0,0.0,0.0,0.0,0.0,0.0,0.0,0.0,0.0,0.0,0.0,0.0,0.0,0.0,0.0,0.0,0.0,0.0,0.0,0.0,0.0,0.0,0.0,0.0,0.0,0.0,0.0,0.0,0.0,0.0,0.0,0.0,0.0,0.0,0.0,0.0,0.0,0.0,0.0,0.0,0.0,0.0,0.0,0.0,0.0,0.0,0.0,0.0,0.0,0.0,0.0,0.0,0.0,0.0,0.0,0.0,0.0,0.0,0.0,0.0,0.0,0.0,0.0,0.0,0.0,0.0,0.0,0.0,0.0,0.0,0.0,0.0,0.0,0.0,0.0,0.0,0.0,0.0,0.0,0.0,0.0,0.0,0.0,0.0,0.0,0.0,0.0,0.0,0.0,0.0,0.0,0.0,0.0,0.0,0.0,0.0,0.0,0.0,0.0,0.0,0.0,0.0,0.0,0.0,0.0,0.0,0.0,0.0,0.0,0.0,0.0,0.0,0.0,0.0,0.0,0.0,0.0,0.0,0.0,0.0,0.0,0.0,0.0,0.0,0.0,0.0,0.0,0.0,0.0,0.0,0.0,0.0,0.0,0.0,0.0,0.0,0.0,0.0,0.0,0.0,0.0,0.0,0.0,0.0,0.0,0.0,0.0,0.0,0.0,0.0,0.0,0.0,0.0,0.0,0.0,0.0,0.0,0.0,0.0,0.0,0.0,0.0,0.0,0.0,0.0,0.0,0.0,0.0,0.0,0.0,0.0,0.0,0.0,0.0,0.0,0.0,0.0,0.0,0.0,0.0,0.0,0.0,0.0,0.0,0.0,0.0,0.0,0.0,0.0,0.0,0.0,0.0,0.0,0.0,0.0,0.0,0.0,0.0,0.0,0.0,0.0,0.0,0.0,0.0,0.0,0.0,0.0,0.0,0.0,0.0,0.0,0.0,0.0,0.0,0.0,0.0,0.0,0.0,0.0,0.0,0.0,0.0,0.0,0.0,0.0,0.0,0.0,0.0,0.0,0.0,0.0,0.0,0.0,0.0,0.0,0.0,0.0,0.0,0.0,-2.5984,0.0,0.0,0.0,0.0,0.0,0.0,0.0,0.0,0.0,0.0,0.0,0.0,0.0,0.0,0.0,0.0,0.0,0.0,0.0,0.0,0.0,0.0,0.0,0.0,0.0,0.0,0.0,0.0,0.0,0.0,0.0,0.0,0.0,0.0,0.0,0.0,0.0,0.0,0.0,-2.1109,-2.1109,-2.1109,-2.1109,-2.1109,-2.1109,0.0,0.0,0.0,0.0,0.0,0.0,0.0,0.0,0.0,0.0,0.0,0.0,0.0,0.0,0.0,0.0,0.0,0.0,0.0,0.0,0.0,0.0,0.0,0.0,0.0,0.0,0.0,0.0,0.0,0.0,0.0,0.0,0.0,0.0,0.0,0.0,0.0,0.0,0.0,0.0,0.0,0.0,0.0,0.0,0.0,0.0,0.0,0.0,0.0,0.0,0.0,0.0,0.0,0.0,0.0,0.0,0.0,0.0,0.0,0.0,0.0,0.0,0.0,0.0,0.0,0.0,0.0,0.0,0.0,0.0,0.0,-2.817,0.0,0.0,0.0,0.0,0.0,0.0,0.0,0.0,0.0,0.0,0.0,0.0,0.0,0.0,0.0,0.0,0.0,0.0,0.0,0.0,0.0,0.0,0.0,-2.1109,-2.1109,-2.1109,-2.1109,-2.1109,0.0,0.0,0.0,0.0,0.0,0.0,0.0,-2.1109,-2.1109,-2.1109,-2.1109,-2.1109,-2.1109,-2.1109,-2.1109,-2.1109,-2.1109,0.0,0.0,0.0,0.0,0.0,0.0,0.0,0.0,0.0,0.0,0.0,0.0,0.0,0.0,0.0,0.0,0.0,0.0,0.0,0.0,0.0,0.0,0.0,0.0,0.0,0.0,0.0,0.0,0.0,0.0,0.0,0.0,0.0,0.0,0.0,0.0,0.0,0.0,0.0,0.0,0.0,0.0,0.0,0.0,0.0,0.0,0.0,0.0,0.0,0.0,0.0,0.0,0.0,0.0,0.0,0.0,0.0,0.0,0.0,0.0,0.0,0.0,0.0,-2.7263,-2.7522,-2.9002,-2.7401,-2.7522,-2.9122,-2.9122,-2.8929,-2.8783,-2.8783,0.0,0.0,0.0,0.0,0.0,0.0,0.0,0.0,0.0,0.0,0.0,0.0,0.0,0.0,0.0,0.0,0.0,0.0,0.0,0.0,0.0,-2.1109,-2.1109,-2.1109,-2.1109,-2.1109,-2.1109,0.0,0.0,0.0,0.0,0.0,-2.1109,-2.1109,-2.1109,-2.1109,-2.1109,-2.1109,-2.1109,-2.1109,-2.1109,-2.1109,-2.1109,-2.1109,-2.1109,0.0,0.0,0.0,0.0,0.0,0.0,0.0,0.0,0.0,0.0,0.0,0.0,0.0,0.0,0.0,0.0,0.0,0.0,0.0,0.0,0.0,0.0,0.0,0.0,0.0,0.0,0.0,0.0,0.0,0.0,0.0,0.0,0.0,0.0,0.0,0.0,0.0,0.0,0.0,0.0,0.0,-2.4178,-2.5497,0.0,0.0,0.0,0.0,0.0,0.0,0.0,0.0,0.0,0.0,0.0,0.0,0.0,-2.8201,-2.6587,-2.8271,-2.9313,-2.956,-2.9189,-2.9947,-3.1609,-2.9824,-2.9947,-3.1731,-3.175,0.0,-3.0528,-3.0528,0.0,0.0,0.0,0.0,0.0,0.0,0.0,0.0,0.0,0.0,0.0,0.0,0.0,0.0,0.0,0.0,0.0,0.0,0.0,0.0,0.0,-2.1109,-2.1109,-2.1109,-2.1109,-2.1109,-2.1109,-2.1109,0.0,0.0,0.0,-2.1109,-2.1109,-2.1109,-2.1109,-2.1109,-2.1109,-2.1109,-2.1109,-2.1109,-2.1109,-2.1109,-2.1109,-2.1109,-2.1109,-2.1109,0.0,0.0,0.0,0.0,0.0,0.0,0.0,0.0,0.0,0.0,0.0,0.0,0.0,0.0,0.0,0.0,0.0,0.0,0.0,0.0,0.0,0.0,0.0,0.0,0.0,0.0,0.0,0.0,0.0,0.0,0.0,0.0,0.0,0.0,0.0,0.0,0.0,0.0,0.0,-2.1727,-2.2466,-2.3186,-2.4286,-2.5146,0.0,0.0,0.0,0.0,0.0,0.0,0.0,0.0,0.0,-2.9459,-2.9379,-2.9469,-2.9733,-3.0672,-3.1134,-3.1134,-3.1011,-3.1398,-3.2168,-3.1398,-3.1398,-3.2168,-3.2168,-3.1953,-3.1601,-3.1601,-3.1223,-3.0604,0.0,0.0,0.0,0.0,-3.1601,-3.1601,0.0,0.0,0.0,0.0,0.0,0.0,0.0,0.0,0.0,0.0,0.0,0.0,-2.1109,-2.1109,-2.1109,-2.1109,-2.1109,-2.1109,-2.1109,-2.1109,-2.1109,0.0,-2.1109,-2.1149,-2.1216,-2.1296,-2.1296,-2.1229,-2.1296,-2.1336,-2.1336,-2.1336,-2.1336,-2.1336,-2.1336,-2.1256,-2.1109,-2.1109,-2.1109,-2.1109,0.0,0.0,0.0,0.0,0.0,0.0,0.0,0.0,0.0,0.0,0.0,0.0,0.0,0.0,0.0,0.0,0.0,0.0,0.0,0.0,0.0,0.0,0.0,0.0,0.0,0.0,0.0,0.0,0.0,0.0,0.0,0.0,0.0,0.0,0.0,0.0,0.0,-2.1475,-2.1727,-2.1727,-2.3915,-2.5269,0.0,0.0,0.0,0.0,0.0,0.0,-2.8535,-2.7779,-2.8535,-3.1501,-3.0717,-3.1039,-3.2324,-3.2441,-3.248,-3.25,-3.2092,-3.2092,-3.248,-3.2092,-3.2111,-3.248,-3.248,-3.248,-3.248,-3.2266,-3.2168,-3.2168,-3.2168,-3.2168,-3.2168,-3.2168,-3.2168,-3.2168,0.0,0.0,0.0,0.0,0.0,0.0,0.0,0.0,0.0,0.0,0.0,-2.1109,-2.1109,-2.1109,-2.1109,-2.1109,-2.1109,-2.1109,-2.1109,-2.1109,-2.1109,-2.1109,-2.1109,-2.1243,-2.1523,-2.1804,-2.1804,-2.1537,-2.1804,-2.1937,-2.1937,-2.1937,-2.1937,-2.1937,-2.1937,-2.163,-2.1109,-2.1109,-2.1109,-2.1109,-2.1109,0.0,0.0,0.0,0.0,0.0,0.0,0.0,0.0,0.0,0.0,0.0,0.0,0.0,0.0,0.0,0.0,0.0,0.0,0.0,0.0,0.0,0.0,0.0,0.0,0.0,0.0,0.0,0.0,0.0,0.0,0.0,0.0,0.0,0.0,0.0,0.0,0.0,0.0,-2.345,-2.3574,0.0,0.0,0.0,0.0,-2.862,-2.9205,-2.8799,-2.731,-2.8692,-2.9581,-2.9847,-3.1637,-3.263,-3.2773,-3.3164,-3.3359,-3.3359,-3.1633,-3.1779,-3.3233,-3.1633,-3.1761,-3.3359,-3.3359,-3.3359,-3.3301,-3.25,-3.2168,-3.2168,-3.2168,-3.2168,-3.2168,-3.2168,-3.2168,-3.2168,0.0,0.0,0.0,0.0,0.0,0.0,0.0,0.0,-2.1109,-2.1109,-2.1109,-2.1109,-2.1109,-2.1109,-2.1109,-2.1109,-2.1109,-2.1109,-2.1109,-2.1109,-2.1109,-2.1109,-2.1296,-2.1537,-2.1817,-2.1937,-2.1937,-2.183,-2.1937,-2.1991,-2.1991,-2.1991,-2.1991,-2.1991,-2.1991,-2.1871,-2.1657,-2.147,-2.139,-2.1376,-2.1189,-2.1109,0.0,0.0,0.0,0.0,0.0,0.0,0.0,0.0,0.0,0.0,0.0,0.0,0.0,0.0,0.0,0.0,0.0,0.0,0.0,0.0,0.0,0.0,0.0,0.0,0.0,0.0,0.0,0.0,0.0,0.0,0.0,0.0,0.0,0.0,0.0,0.0,0.0,-2.3983,-2.3888,0.0,-2.5785,-2.7435,-2.8268,-2.777,-2.8888,-2.9974,-3.0747,-2.9221,-2.9454,-3.2036,-3.1664,-3.2011,-3.3203,-3.334,-3.3418,-3.3418,-3.2765,-3.2765,-3.3418,-3.2765,-3.2765,-3.3418,-3.3418,-3.3418,-3.3398,-3.3105,-3.2969,-3.2969,-3.2969,-3.2969,-3.2969,-3.2969,-3.2969,-3.2969,0.0,0.0,0.0,0.0,0.0,0.0,0.0,0.0,-2.1109,-2.1109,-2.1109,-2.1109,-2.1109,-2.1109,-2.1109,-2.1109,-2.1109,-2.1109,-2.1109,-2.1109,-2.1149,-2.1256,-2.163,-2.1884,-2.1977,-2.2178,-2.2231,-2.2124,-2.2231,-2.2285,-2.2285,-2.2285,-2.2285,-2.2285,-2.2285,-2.2285,-2.2258,-2.1964,-2.179,-2.1683,-2.1483,-2.1349,-2.1256,0.0,0.0,0.0,0.0,0.0,0.0,0.0,0.0,0.0,0.0,0.0,0.0,0.0,0.0,0.0,0.0,0.0,0.0,0.0,0.0,0.0,0.0,0.0,0.0,0.0,0.0,0.0,0.0,0.0,0.0,0.0,0.0,0.0,0.0,0.0,-2.4733,-2.4314,-2.5218,-2.5802,-2.5529,-2.7571,-2.8415,-2.7272,-2.8898,-3.0374,-3.1172,-3.0137,-3.0646,-3.3292,-3.2237,-3.2237,-3.3418,-3.3418,-3.3418,-3.3418,-3.3418,-3.3418,-3.3418,-3.3418,-3.3418,-3.3418,-3.3418,-3.3418,-3.3418,-3.3418,-3.3418,-3.3418,-3.3418,-3.3418,-3.3418,-3.3418,-3.3418,-3.3418,0.0,0.0,0.0,0.0,0.0,0.0,0.0,-2.1109,-2.1109,-2.1109,-2.1109,-2.1109,-2.1109,-2.1109,-2.1109,-2.1109,-2.1109,-2.1109,-2.1109,-2.1122,-2.1256,-2.1563,-2.2124,-2.2298,-2.2017,-2.2565,-2.2726,-2.2432,-2.2726,-2.2859,-2.2859,-2.2859,-2.2859,-2.2859,-2.2859,-2.2859,-2.2846,-2.2552,-2.2271,-2.2017,-2.1991,-2.1817,-2.1563,0.0,0.0,0.0,0.0,0.0,0.0,0.0,0.0,0.0,0.0,0.0,0.0,0.0,0.0,0.0,0.0,0.0,0.0,0.0,0.0,0.0,0.0,0.0,0.0,0.0,0.0,0.0,0.0,0.0,0.0,0.0,0.0,0.0,-2.6487,-2.6876,-2.6455,-2.4933,-2.7453,-2.887,-2.7377,-2.7565,-2.7635,-2.7506,-2.9526,-3.0125,-2.8427,-3.1451,-3.3292,-3.3418,-3.3418,-3.3418,-3.3418,-3.3418,-3.3418,-3.3418,-3.3418,-3.3418,-3.3418,-3.3418,-3.3418,-3.3418,-3.3418,-3.3418,-3.3418,-3.3418,-3.3418,-3.3418,-3.3418,-3.3418,-3.3418,-3.3418,-3.3418,-3.3418,0.0,0.0,0.0,0.0,0.0,0.0,0.0,-2.1109,-2.1109,-2.1109,-2.1109,-2.1109,-2.1109,-2.1109,-2.1109,-2.1109,-2.1109,-2.1109,-2.1109,-2.1309,-2.1657,-2.2164,-2.2338,-2.2485,-2.2619,-2.2779,-2.2819,-2.2739,-2.2819,-2.2859,-2.2859,-2.2859,-2.2859,-2.2859,-2.2859,-2.2859,-2.2859,-2.2779,-2.2699,-2.2579,-2.2151,-2.1937,-2.1871,0.0,0.0,0.0,0.0,0.0,0.0,0.0,0.0,0.0,0.0,0.0,0.0,0.0,0.0,0.0,0.0,0.0,0.0,0.0,0.0,0.0,0.0,0.0,0.0,0.0,0.0,0.0,0.0,0.0,0.0,0.0,0.0,-2.5046,-2.3436,-2.5498,-2.7062,-2.6923,-2.5397,-2.5882,-2.9386,-2.8731,-2.8015,-2.8015,-2.9795,-3.0642,-3.0125,-3.1047,-3.2091,-3.3418,-3.3418,-3.3418,-3.3418,-3.3418,-3.3418,-3.3418,-3.3418,-3.3418,-3.3418,-3.3418,-3.3418,-3.3418,-3.3418,-3.3418,-3.3418,-3.3418,-3.3418,-3.3418,-3.3418,-3.3418,-3.3418,-3.3418,-3.3418,-3.3418,0.0,0.0,0.0,0.0,0.0,0.0,0.0,-2.1109,-2.1109,-2.1109,-2.1109,-2.1109,-2.1109,-2.1109,-2.1109,-2.1109,-2.1109,-2.1162,-2.1283,-2.1683,-2.2071,-2.2405,-2.2539,-2.2686,-2.2859,-2.2859,-2.2859,-2.2859,-2.2859,-2.2859,-2.2859,-2.2859,-2.2859,-2.2859,-2.2859,-2.2859,-2.2859,-2.2859,-2.2859,-2.2832,-2.2485,-2.2271,-2.2164,-2.2164,-2.2084,-2.1964,-2.179,-2.1737,-2.171,-2.1537,0.0,0.0,0.0,0.0,0.0,0.0,0.0,0.0,0.0,0.0,0.0,0.0,0.0,0.0,0.0,0.0,0.0,0.0,0.0,0.0,0.0,0.0,0.0,0.0,-2.632,-2.5687,-2.3672,-2.5866,-2.7619,-2.7833,-2.7311,-2.7785,-2.957,-2.9474,-2.9344,-2.9344,-3.0254,-3.0771,-3.0771,-3.1433,-3.2365,-3.3418,-3.3418,-3.3418,-3.3418,-3.3418,-3.3418,-3.3418,-3.3418,-3.3418,-3.3418,-3.3418,-3.3418,-3.3418,-3.3418,-3.3418,-3.3418,-3.3418,-3.3418,0.0,0.0,0.0,0.0,0.0,-3.3418,-3.3418,0.0,0.0,0.0,0.0,0.0,0.0,0.0,-2.1109,-2.1109,-2.1109,-2.1109,-2.1109,-2.1109,-2.1109,-2.1109,-2.1109,-2.1136,-2.1296,-2.163,-2.2138,-2.2432,-2.2472,-2.2726,-2.2859,-2.2859,-2.2859,-2.2859,-2.2859,-2.2859,-2.2859,-2.2859,-2.2859,-2.2859,-2.2859,-2.2859,-2.2859,-2.2859,-2.2859,-2.2859,-2.2859,-2.2859,-2.2699,-2.2472,-2.2472,-2.2311,-2.2084,-2.2044,-2.2031,-2.2031,-2.1991,0.0,0.0,0.0,0.0,0.0,0.0,0.0,0.0,0.0,0.0,0.0,0.0,0.0,0.0,0.0,0.0,0.0,0.0,0.0,0.0,0.0,0.0,0.0,0.0,-2.7046,-2.7768,-2.6573,-2.7238,-2.79,-2.8163,-3.0531,-3.1304,-2.8952,-2.9865,-3.0513,-3.0513,-3.0642,-3.0771,-3.0513,0.0,0.0,0.0,0.0,-3.3418,-3.3418,-3.3418,-3.3418,-3.3418,-3.3418,-3.3418,-3.3418,-3.3418,-3.3418,-3.3418,-3.3418,-3.3418,-3.3418,-3.3418,-3.3418,-3.3418,-3.3418,-3.3418,-3.3418,-3.3418,-3.3418,-3.3418,0.0,0.0,0.0,0.0,0.0,0.0,0.0,-2.1109,-2.1109,-2.1109,-2.1109,-2.1109,-2.1109,-2.1109,-2.1109,-2.1109,-2.1323,-2.1683,-2.2218,-2.2352,-2.2525,-2.2766,-2.2832,-2.2859,-2.2859,-2.2859,-2.2859,-2.2859,-2.2859,-2.2859,-2.2859,-2.2859,-2.2859,-2.2859,-2.2859,-2.2859,-2.2859,-2.2859,-2.2859,-2.2859,-2.2859,-2.2832,-2.2779,-2.2779,-2.2739,-2.2659,-2.2418,-2.2338,-2.2298,-2.2071,-2.1991,-2.1991,-2.1991,-2.1951,0.0,0.0,0.0,0.0,0.0,0.0,0.0,0.0,0.0,0.0,0.0,0.0,0.0,0.0,0.0,0.0,0.0,0.0,0.0,-2.7538,-2.7999,-2.9083,-3.1579,-2.8541,-2.6573,-2.8032,-2.6306,-2.6956,-3.1963,-3.0142,-2.8689,-2.8689,-2.9995,-3.0254,-2.8821,-3.0384,-3.1963,-3.3418,-3.3418,-3.3418,-3.3418,-3.3418,-3.3418,-3.3418,0.0,0.0,-3.3418,-3.3418,-3.3418,-3.3418,-3.3418,-3.3418,-3.3418,-3.3418,-3.3418,-3.3418,-3.3418,-3.3418,-3.3418,-3.3418,-3.3418,-3.3418,0.0,0.0,0.0,0.0,0.0,0.0,0.0,-2.1109,-2.1109,-2.1109,-2.1109,-2.1109,-2.1109,-2.1109,-2.1109,-2.1109,-2.151,-2.1951,-2.2392,-2.2565,-2.2712,-2.2859,-2.2859,-2.2859,-2.2859,-2.2859,-2.2859,-2.2859,-2.2859,-2.2859,-2.2859,-2.2859,-2.2859,-2.2859,-2.2859,-2.2859,-2.2859,-2.2859,-2.2859,-2.2859,-2.2859,-2.2859,-2.2859,-2.2859,-2.2859,-2.2846,-2.2699,-2.2645,-2.2619,-2.2472,-2.2418,-2.2418,-2.2418,-2.2325,-2.2205,0.0,0.0,0.0,0.0,0.0,0.0,0.0,0.0,0.0,0.0,0.0,0.0,0.0,0.0,-2.2903,0.0,0.0,-2.6188,-2.79,-2.8163,-2.8821,-3.0531,-2.9327,-2.8541,-2.9344,-2.7883,-2.8279,-3.1707,-3.1304,-3.0789,-3.0789,-3.1579,-3.1707,-3.0789,-3.1579,-3.2492,-3.3418,-3.3418,-3.3418,-3.3418,-3.3418,-3.3418,-3.3418,-3.3418,-3.3418,-3.3418,-3.3418,-3.3418,-3.3418,-3.3418,-3.3418,-3.3418,-3.3418,-3.3418,-3.3418,-3.3418,-3.3418,-3.3418,-3.3418,-3.3418,-3.3418,0.0,0.0,0.0,0.0,0.0,0.0,0.0,-2.1109,-2.1109,-2.1109,-2.1109,-2.1109,-2.1109,-2.1109,-2.1162,-2.1269,-2.1764,-2.2191,-2.2485,-2.2726,-2.2859,-2.2859,-2.2859,-2.2859,-2.2859,-2.2859,-2.2859,-2.2859,-2.2859,-2.2859,-2.2859,-2.2859,-2.2859,-2.2859,-2.2859,-2.2859,-2.2859,-2.2859,-2.2859,-2.2859,-2.2859,-2.2859,-2.2859,-2.2859,-2.2859,-2.2859,-2.2859,-2.2859,-2.2859,-2.2859,-2.2859,-2.2859,-2.2859,-2.2699,-2.2498,-2.2498,-2.2338,0.0,0.0,0.0,0.0,0.0,0.0,0.0,0.0,0.0,-2.2859,-2.2859,-2.2859,-2.2859,-2.2859,-2.3393,-2.4723,-2.7238,-2.8295,-2.8689,-2.8689,-2.9605,-3.0384,-3.0771,-3.0254,-2.9977,-3.0771,-3.1707,-3.2365,-3.2365,-3.2765,-3.2892,-3.2892,-3.2969,-3.3154,-3.3555,-3.3633,-3.3672,-3.3672,-3.3672,-3.3672,-3.3672,-3.3672,-3.3672,-3.3672,-3.3672,-3.3672,-3.3672,-3.3672,-3.3672,-3.3672,-3.3672,-3.3672,-3.3672,-3.3672,-3.3672,-3.3652,-3.3476,-3.3418,-3.3418,0.0,0.0,0.0,0.0,0.0,0.0,0.0,0.0,-2.1109,-2.1109,-2.1109,-2.1109,-2.1109,-2.1109,-2.1323,-2.1844,-2.2178,-2.2498,-2.2792,-2.2846,-2.2859,-2.2859,-2.2859,-2.2859,-2.2859,-2.2859,-2.2859,-2.2859,-2.2859,-2.2859,-2.2859,-2.2859,-2.2859,-2.2859,-2.2859,-2.2859,-2.2859,-2.2859,-2.2859,-2.2859,-2.2859,-2.2859,-2.2859,-2.2859,-2.2859,-2.2859,-2.2859,-2.2859,-2.2859,-2.2859,-2.2859,-2.2859,-2.2859,-2.2846,-2.2819,-2.2819,-2.2792,-2.2766,-2.2766,-2.2766,-2.2766,-2.2806,-2.2832,-2.2859,0.0,0.0,-2.2859,-2.2859,-2.2859,-2.2859,-2.2859,-2.5517,-2.7238,-2.6039,-2.841,-3.0513,-3.0513,-2.9344,-2.9083,-3.0642,-2.8015,-2.7354,-3.0513,-2.9605,-2.8821,-2.8821,-3.0254,-3.1047,-3.1047,-3.1393,-3.2395,-3.4004,-3.4355,-3.4551,-3.4551,-3.4551,-3.4551,-3.4551,-3.4551,-3.4551,-3.4551,-3.4551,-3.4551,-3.4551,-3.4551,-3.4551,-3.4551,-3.4551,-3.4551,-3.4551,-3.4551,-3.4551,-3.4473,-3.3711,-3.3418,-3.3418,0.0,0.0,0.0,0.0,0.0,0.0,0.0,0.0,0.0,-2.1109,-2.1109,-2.1109,-2.1109,-2.1269,-2.1537,-2.1951,-2.2258,-2.2539,-2.2846,-2.2859,-2.2859,-2.2859,-2.2859,-2.2859,-2.2859,-2.2859,-2.2859,-2.2859,-2.2859,-2.2859,-2.2859,-2.2859,-2.2859,-2.2859,-2.2859,-2.2859,-2.2859,-2.2859,-2.2859,-2.2859,-2.2859,-2.2859,-2.2859,-2.2859,-2.2859,-2.2859,-2.2859,-2.2859,0.0,-2.2859,-2.2859,-2.2859,-2.2859,-2.2859,-2.2859,-2.2859,-2.2859,-2.2859,-2.2859,-2.2859,0.0,0.0,-2.2859,-2.2859,-2.2859,-2.2859,-2.2859,-2.2859,-2.2859,-2.2859,-2.2859,-2.406,-2.5517,0.0,-2.8295,-2.9344,-2.9344,-3.0401,-3.0789,-2.9474,-2.8821,-2.9213,-3.0642,-3.1047,-3.1285,-3.1653,-3.2337,-3.2838,-3.3065,-3.3255,-3.3631,-3.4434,-3.4609,-3.4707,-3.4707,-3.4707,-3.4707,-3.4707,-3.4707,-3.4707,-3.4707,-3.4707,-3.4707,-3.4707,-3.4707,-3.4707,-3.4707,-3.4707,-3.4707,-3.4707,-3.4707,-3.4707,-3.4629,-3.4023,-3.3809,-3.3769,0.0,0.0,0.0,0.0,0.0,0.0,0.0,0.0,0.0,0.0,-2.1109,-2.1136,-2.1229,-2.1496,-2.179,-2.2084,-2.2378,-2.2632,-2.2846,-2.2859,-2.2859,-2.2859,-2.2859,-2.2859,-2.2859,-2.2859,-2.2859,-2.2859,-2.2859,-2.2859,-2.2859,-2.2859,-2.2859,-2.2859,-2.2859,-2.2859,-2.2859,-2.2859,-2.2859,-2.2859,-2.2859,-2.2859,-2.2859,-2.2859,-2.2859,-2.2859,-2.2859,-2.2859,-2.2859,-2.2859,-2.2859,-2.2859,-2.2859,-2.2859,-2.2859,-2.2859,-2.2859,-2.2859,-2.2859,0.0,0.0,-2.2859,-2.2859,-2.2859,-2.2859,-2.2859,-2.2859,-2.2859,-2.2859,-2.2859,-2.2859,-2.3665,-2.4993,-2.7105,-2.8295,-2.8952,-2.8969,-3.1047,-3.1579,-2.8558,-2.9839,-3.071,-3.0283,-3.1874,-3.2853,-3.273,-3.37,-3.4375,-3.4687,-3.4824,-3.4883,-3.4883,-3.5,-3.5059,-3.5059,-3.5059,-3.5059,-3.5059,-3.5059,-3.5059,-3.5059,-3.5059,-3.5059,-3.5059,-3.5059,-3.5059,-3.5059,-3.5059,-3.5059,-3.5059,-3.5059,-3.5059,-3.5019,-3.459,-3.4355,-3.4199,0.0,0.0,0.0,0.0,0.0,0.0,0.0,0.0,0.0,0.0,0.0,0.0,0.0,-2.1804,-2.2084,-2.2378,-2.2672,-2.2846,-2.2859,-2.2859,-2.2859,-2.2859,-2.2859,-2.2859,-2.2859,-2.2859,-2.2859,-2.2859,-2.2859,-2.2859,-2.2859,-2.2859,-2.2859,-2.2859,-2.2859,-2.2859,-2.2859,-2.2859,-2.2859,-2.2859,-2.2859,-2.2859,-2.2859,-2.2859,-2.2859,-2.2859,-2.2859,-2.2859,-2.2859,-2.2859,-2.2859,-2.2859,-2.2859,-2.2859,-2.2859,-2.2859,-2.2859,-2.2859,-2.2859,0.0,-2.2859,-2.2859,-2.2859,-2.2859,-2.2859,-2.2859,-2.2859,-2.2859,-2.2859,-2.2859,-2.2859,-2.5786,-2.7503,-2.5905,-2.841,-3.0789,-3.0678,-3.0789,-3.0254,-2.8427,-2.9952,-3.0557,0.0,-3.0425,-3.0849,-2.946,-3.2629,-3.4687,-3.4707,-3.5137,-3.5371,-3.5371,-3.5762,-3.5976,-3.5976,-3.5976,-3.5976,-3.5976,-3.5976,-3.5976,-3.5976,-3.5976,-3.5976,-3.5976,-3.5976,-3.5976,-3.5976,-3.5976,-3.5976,-3.5976,-3.5976,-3.5976,-3.5937,-3.5508,-3.5078,-3.4668,0.0,0.0,0.0,0.0,0.0,0.0,0.0,0.0,0.0,0.0,0.0,0.0,0.0,0.0,0.0,0.0,-2.2699,-2.2859,-2.2859,-2.2859,-2.2859,-2.2859,-2.2859,-2.2859,-2.2859,-2.2859,-2.2859,-2.2859,-2.2859,-2.2859,-2.2859,-2.2859,-2.2859,-2.2859,-2.2859,-2.2859,-2.2859,-2.2859,-2.2859,-2.2859,-2.2859,-2.2859,-2.2859,-2.2859,-2.2859,-2.2859,0.0,-2.2859,-2.2859,-2.2859,-2.2859,-2.2859,-2.2859,-2.2859,-2.2859,-2.2859,-2.2859,-2.2859,-2.2859,0.0,-2.2859,-2.2859,-2.2859,-2.2859,-2.2859,-2.2859,-2.2859,-2.2859,-2.2859,-2.2859,-2.2859,-2.3924,-2.5248,-2.6972,-2.8295,-2.9474,-3.066,-3.0771,-3.062,-3.0364,-3.09,0.0,0.0,0.0,0.0,-3.3188,-3.4471,-3.5273,-3.5566,-3.5723,-3.5801,-3.5801,-3.5937,-3.6016,-3.6016,-3.6016,-3.6016,-3.6016,-3.6016,-3.6016,-3.6016,-3.6016,-3.6016,-3.6016,-3.6016,-3.6016,-3.6016,-3.6016,-3.6016,-3.6016,-3.6016,-3.6016,-3.5996,-3.5859,-3.5703,-3.5488,0.0,0.0,0.0,0.0,0.0,0.0,0.0,0.0,0.0,0.0,0.0,0.0,0.0,0.0,0.0,0.0,0.0,-2.2859,-2.2859,-2.2859,-2.2859,-2.2859,-2.2859,-2.2859,-2.2859,-2.2859,-2.2859,-2.2859,-2.2859,-2.2859,-2.2859,-2.2859,-2.2859,-2.2859,-2.2859,-2.2859,-2.2859,-2.2859,-2.2859,-2.2859,-2.2859,-2.2859,-2.2859,-2.2859,-2.2859,0.0,-2.2859,-2.2859,-2.2859,-2.2859,-2.2859,-2.2859,-2.2859,-2.2859,-2.2859,-2.2859,-2.2859,-2.2859,-2.2859,-2.2859,-2.2859,-2.2859,-2.2859,-2.2859,-2.2859,-2.2859,-2.2859,-2.2859,-2.3393,-2.3788,-2.3788,-2.4844,-2.6306,-2.79,-2.8163,-2.8821,-3.0513,-3.0378,-3.0425,-3.1366,-3.1637,-3.2016,0.0,0.0,0.0,-3.4467,-3.5201,-3.5742,-3.5996,-3.6016,-3.6016,-3.6016,-3.6016,-3.6016,-3.6016,-3.6016,-3.6016,-3.6016,-3.6016,-3.6016,-3.6016,-3.6016,-3.6016,-3.6016,-3.6016,-3.6016,-3.6016,-3.6016,-3.6016,-3.6016,-3.6016,-3.6016,-3.6016,-3.6016,-3.6016,-3.5937,0.0,0.0,0.0,0.0,0.0,0.0,0.0,0.0,0.0,0.0,0.0,0.0,0.0,0.0,0.0,0.0,0.0,0.0,-2.2859,-2.2859,-2.2859,-2.2859,-2.2859,-2.2859,-2.2859,-2.2859,-2.2859,-2.2859,-2.2859,-2.2859,-2.2859,-2.2859,-2.2859,-2.2859,-2.2859,-2.2859,-2.2859,-2.2859,-2.2859,-2.2859,-2.2859,-2.2859,-2.2859,-2.2859,-2.2859,-2.2859,-2.2859,-2.2859,-2.2859,-2.2859,-2.2859,-2.2859,-2.2859,-2.2859,-2.2859,-2.2859,-2.2859,-2.2859,-2.2859,-2.2859,-2.2859,-2.2859,-2.2859,-2.2859,-2.2859,-2.2859,-2.2859,-2.2859,-2.4317,-2.5517,0.0,0.0,-2.9995,-2.8295,-2.818,-2.8821,-3.0513,-2.9653,-2.9645,0.0,0.0,0.0,0.0,0.0,0.0,-3.3309,0.0,-3.6016,-3.6016,-3.6016,-3.6016,-3.6016,-3.6016,-3.6016,-3.6016,-3.6016,-3.6016,-3.6016,-3.6016,-3.6016,-3.6016,-3.6016,-3.6016,-3.6016,-3.6016,-3.6016,-3.6016,-3.6016,-3.6016,-3.6016,-3.6016,-3.6016,-3.6016,-3.6016,-3.6016,-3.6016,0.0,0.0,0.0,0.0,0.0,0.0,0.0,0.0,0.0,0.0,0.0,0.0,0.0,0.0,0.0,0.0,0.0,0.0,-2.2859,-2.2859,-2.2859,-2.2859,-2.2859,-2.2859,-2.2859,-2.2859,-2.2859,-2.2859,-2.2859,-2.2859,-2.2859,-2.2859,-2.2859,-2.2859,-2.2859,-2.2859,-2.2859,-2.2859,-2.2859,-2.2859,-2.2859,-2.2859,-2.2859,-2.2859,-2.2859,-2.2859,-2.2859,-2.2859,-2.2859,-2.2859,-2.2859,-2.2859,-2.2859,-2.2859,-2.2859,-2.2859,-2.2859,-2.2859,-2.2859,-2.2859,-2.2859,-2.2859,-2.2859,-2.2859,-2.2859,-2.2859,-2.2859,-2.2859,-2.4317,-2.5113,0.0,0.0,0.0,-2.6306,-2.737,0.0,-3.0513,-3.0722,0.0,-3.3557,0.0,-3.3248,-3.4967,-3.5237,0.0,0.0,-3.5743,-3.6016,-3.6016,-3.6016,-3.6016,-3.6016,-3.6016,-3.6016,-3.6016,-3.6016,-3.6016,-3.6016,-3.6016,-3.6016,-3.6016,-3.6016,-3.6016,-3.6016,-3.6016,-3.6016,-3.6016,-3.6016,-3.6016,-3.6016,-3.6016,-3.6016,-3.6016,-3.6016,-3.6016,-3.6016,0.0,0.0,0.0,0.0,0.0,0.0,0.0,0.0,0.0,0.0,0.0,0.0,0.0,0.0,0.0,0.0,0.0,0.0,0.0,-2.2859,-2.2859,-2.2859,-2.2859,-2.2859,-2.2859,-2.2859,-2.2859,-2.2859,-2.2859,-2.2859,-2.2859,-2.2859,-2.2859,-2.2859,-2.2859,-2.2859,-2.2859,-2.2859,-2.2859,0.0,0.0,-2.2859,-2.2859,-2.2859,-2.2859,-2.2859,-2.2859,-2.2859,-2.2859,0.0,0.0,-2.2859,-2.2859,-2.2859,-2.2859,-2.2859,0.0,-2.2859,-2.2859,-2.2859,-2.2859,-2.2859,-2.2859,-2.2859,-2.2859,-2.2859,-2.3133,-2.3924,-2.5517,0.0,-2.6424,0.0,0.0,0.0,0.0,0.0,-3.0894,-3.1402,-3.2482,0.0,-3.4547,0.0,-3.586,-3.6016,-3.6016,0.0,-3.6016,-3.6016,-3.6016,-3.6016,-3.6016,-3.6016,-3.6211,-3.6387,-3.6582,-3.6582,-3.6582,-3.6582,-3.6582,-3.6582,-3.6582,-3.6582,-3.6582,-3.6582,0.0,-3.6484,-3.6309,-3.6309,-3.6191,-3.6016,-3.6016,-3.6016,-3.6016,-3.6016,-3.6016,-3.6016,0.0,0.0,0.0,0.0,0.0,0.0,0.0,0.0,0.0,0.0,0.0,0.0,0.0,0.0,0.0,0.0,0.0,0.0,0.0,0.0,-2.2859,-2.2859,-2.2859,-2.2859,-2.2859,-2.2859,-2.2859,-2.2859,-2.2859,-2.2859,-2.2859,-2.2859,-2.2859,-2.2859,-2.2859,-2.2859,-2.2859,-2.2859,-2.2859,-2.2859,-2.2859,-2.2859,-2.2859,0.0,-2.2859,-2.2859,-2.2859,-2.2859,-2.2859,-2.2859,-2.2859,-2.2859,-2.2859,-2.2859,-2.2859,-2.2859,-2.2859,-2.2859,-2.2859,-2.2859,-2.2859,-2.2859,-2.2859,-2.2859,-2.2859,-2.2859,-2.3393,-2.5113,-2.6706,-2.8427,-3.0125,-3.1707,-3.2237,-3.0642,0.0,-3.0915,-3.133,-3.2011,-3.3233,-3.5198,-3.5762,-3.6016,-3.6016,-3.6016,-3.6016,-3.6016,-3.6016,-3.6016,-3.6016,-3.6074,-3.6133,-3.6191,-3.6562,-3.6934,-3.7285,-3.7305,-3.7305,-3.7305,-3.7305,-3.7305,-3.7305,-3.7305,-3.7305,-3.7305,-3.7305,-3.709,-3.6758,-3.6758,-3.6523,-3.6191,-3.6191,-3.6152,-3.6113,-3.6113,-3.6074,-3.6016,0.0,0.0,0.0,0.0,0.0,0.0,0.0,0.0,0.0,0.0,-2.1109,-2.1336,0.0,0.0,0.0,0.0,0.0,0.0,0.0,0.0,0.0,-2.2859,-2.2859,-2.2859,-2.2859,-2.2859,-2.2859,-2.2859,-2.2859,-2.2859,-2.2859,-2.2859,-2.2859,-2.2859,-2.2859,-2.2859,-2.2859,-2.2859,-2.2859,-2.2859,-2.2859,-2.2859,-2.2859,-2.2859,0.0,0.0,-2.2859,-2.2859,-2.2859,-2.2859,-2.2859,-2.2859,-2.2859,-2.2859,-2.2859,-2.2859,-2.2859,-2.2859,-2.2859,-2.2859,-2.2859,-2.2859,-2.2859,-2.2859,-2.2859,-2.2859,0.0,-2.5113,-2.5786,-2.6573,-2.8295,-2.8952,-2.8952,-2.8689,0.0,0.0,0.0,0.0,-3.4599,0.0,0.0,0.0,0.0,0.0,0.0,0.0,0.0,-3.6016,-3.6016,-3.6367,-3.6719,-3.707,-3.7148,-3.7226,-3.7305,-3.7305,-3.7305,-3.7305,-3.7305,-3.7305,-3.7305,-3.7305,-3.7305,-3.7305,-3.7305,0.0,-3.7187,-3.7187,-3.7148,-3.707,-3.707,-3.6875,-3.6562,-3.6562,-3.6328,-3.6016,0.0,0.0,0.0,0.0,0.0,0.0,0.0,-2.1657,-2.1563,-2.1563,-2.1563,-2.167,-2.1951,-2.2124,-2.2378,0.0,0.0,0.0,0.0,0.0,0.0,0.0,-2.2859,-2.2859,-2.2859,-2.2859,-2.2859,-2.2859,0.0,-2.2859,-2.2859,-2.2859,-2.2859,-2.2859,-2.2859,-2.2859,-2.2859,-2.2859,-2.2859,-2.2859,-2.2859,-2.2859,-2.2859,0.0,0.0,0.0,0.0,-2.2859,-2.2859,-2.2859,-2.2859,-2.2859,-2.2859,-2.2859,-2.2859,-2.2859,-2.2859,-2.2859,-2.2859,-2.2859,-2.2859,-2.2859,-2.2859,-2.2859,-2.2859,0.0,0.0,-2.6573,-2.6839,-2.7768,-3.0401,-3.0125,0.0,-2.9605,0.0,0.0,0.0,0.0,0.0,0.0,0.0,0.0,0.0,0.0,0.0,0.0,0.0,-3.6113,-3.6348,-3.6758,-3.7187,-3.7617,-3.7617,-3.7734,-3.7949,-3.7969,-3.7969,-3.7969,-3.7969,-3.7969,-3.7969,-3.7969,-3.7969,-3.7969,-3.7969,0.0,-3.7617,-3.7617,-3.75,-3.7305,-3.7305,-3.7168,-3.6992,-3.6992,-3.6738,-3.6348,0.0,0.0,0.0,0.0,0.0,0.0,0.0,-2.2031,-2.1991,-2.1991,-2.2044,-2.2084,-2.2084,-2.2285,-2.2539,0.0,0.0,0.0,0.0,0.0,0.0,0.0,0.0,0.0,0.0,0.0,0.0,-2.2859,-2.2859,0.0,0.0,0.0,0.0,0.0,-2.2859,-2.2859,-2.2859,-2.2859,-2.2859,0.0,0.0,-2.2859,0.0,0.0,0.0,0.0,0.0,-2.2859,-2.2859,-2.2859,-2.2859,-2.2859,-2.2859,-2.2859,-2.2859,-2.2859,-2.2859,-2.2859,-2.2859,-2.2859,-2.2859,-2.2859,-2.2859,-2.2859,-2.2859,-2.3924,0.0,-2.7768,-2.7635,-2.8427,-3.2638,-3.1707,-3.0513,0.0,-3.2218,-3.2796,-3.2689,0.0,-3.4622,0.0,-3.6016,0.0,0.0,0.0,0.0,0.0,0.0,0.0,-3.6777,-3.7207,-3.7617,-3.8047,-3.8066,-3.8223,-3.8574,-3.8574,-3.8574,-3.8574,-3.8574,-3.8574,-3.8574,-3.8574,-3.8574,-3.8574,-3.8574,0.0,0.0,-3.8066,-3.7871,-3.7578,-3.7578,-3.7519,-3.7441,-3.7441,-3.7168,-3.6816,0.0,0.0,0.0,0.0,0.0,0.0,0.0,-2.2151,-2.1991,-2.1991,-2.2218,-2.2378,-2.2378,-2.2405,-2.2539,0.0,0.0,0.0,0.0,0.0,0.0,0.0,0.0,0.0,0.0,0.0,0.0,-2.2859,-2.2859,0.0,0.0,0.0,0.0,0.0,0.0,-2.2859,-2.2859,-2.2859,0.0,0.0,0.0,0.0,0.0,0.0,0.0,0.0,0.0,-2.2859,-2.2859,0.0,0.0,-2.2859,-2.2859,-2.2859,-2.2859,-2.2859,0.0,0.0,-2.2859,-2.2859,-2.2859,-2.2859,-2.2859,-2.2859,-2.2859,0.0,-2.406,-2.7503,-2.5651,-2.5383,-3.211,-3.066,-2.9474,-3.2638,-3.1963,-3.1857,-3.4158,-3.3217,-3.3248,-3.5782,0.0,0.0,0.0,0.0,0.0,0.0,0.0,0.0,-3.7246,-3.7637,-3.8066,-3.8496,-3.8516,-3.8535,-3.8574,-3.8574,-3.8574,-3.8574,-3.8574,-3.8574,-3.8574,-3.8574,-3.8574,-3.8574,-3.8574,0.0,0.0,-3.8516,-3.8496,-3.8457,-3.8457,-3.8223,-3.7871,-3.7871,-3.7598,-3.7246,0.0,0.0,0.0,0.0,0.0,0.0,-2.2686,-2.2592,-2.2512,-2.2512,-2.2619,-2.2686,-2.2686,-2.2686,-2.2726,-2.2846,0.0,0.0,0.0,0.0,0.0,0.0,0.0,0.0,0.0,0.0,-2.2859,-2.2859,-2.2859,0.0,0.0,0.0,0.0,0.0,0.0,0.0,-2.2859,-2.2859,0.0,0.0,0.0,0.0,0.0,0.0,0.0,0.0,0.0,0.0,-2.2859,0.0,0.0,0.0,-2.2859,-2.2859,0.0,0.0,-2.2859,-2.2859,-2.2859,-2.2859,-2.2859,-2.2859,-2.2859,-2.2859,-2.2859,-2.3665,-2.4858,-2.6306,-2.5517,-2.5905,-3.0936,-2.9882,-2.8952,-3.1433,-3.2091,-3.252,-3.3086,-3.3482,-3.4203,-3.5782,0.0,0.0,0.0,0.0,0.0,0.0,0.0,0.0,-3.7656,-3.8086,-3.8398,-3.8574,-3.8574,-3.8574,-3.8574,-3.8574,-3.8574,-3.8574,-3.8574,-3.8574,-3.8574,-3.8574,-3.8574,-3.8574,-3.8574,0.0,0.0,-3.8574,-3.8574,-3.8574,-3.8574,-3.8476,-3.832,-3.832,-3.8047,-3.7676,0.0,0.0,0.0,0.0,0.0,-2.2859,-2.2859,-2.2859,-2.2859,-2.2859,-2.2859,-2.2859,-2.2859,-2.2859,-2.2859,-2.2859,-2.2859,0.0,0.0,0.0,0.0,0.0,0.0,0.0,0.0,0.0,-2.2859,-2.2859,-2.2859,-2.2859,0.0,0.0,0.0,0.0,0.0,0.0,0.0,0.0,0.0,0.0,0.0,0.0,0.0,0.0,0.0,0.0,0.0,0.0,0.0,0.0,0.0,-2.2859,-2.2859,-2.2859,-2.2859,-2.2859,-2.2859,-2.2859,-2.2859,-2.2859,-2.2859,-2.2859,-2.2859,-2.2859,-2.2859,-2.3788,-2.4858,-2.5383,-2.5113,-2.5905,-3.0012,-2.9361,-2.8952,-3.1176,-3.2218,-3.2668,-3.2821,-3.3482,-3.4489,0.0,0.0,0.0,0.0,0.0,0.0,0.0,0.0,0.0,-3.8086,-3.8418,-3.8574,-3.8574,-3.8574,-3.8574,-3.8574,-3.8574,-3.8574,-3.8574,-3.8574,-3.8574,-3.8574,-3.8574,-3.8574,-3.8574,-3.8574,0.0,0.0,-3.8574,-3.8574,-3.8574,-3.8574,-3.8574,-3.8574,-3.8574,-3.8379,-3.8125,0.0,0.0,0.0,0.0,0.0,0.0,-2.2859,-2.2859,-2.2859,-2.2859,-2.2859,-2.2859,-2.2859,-2.2859,-2.2859,-2.2859,-2.2859,0.0,0.0,0.0,0.0,0.0,0.0,0.0,0.0,0.0,-2.2859,-2.2859,-2.2859,-2.2859,-2.2859,-2.2859,-2.2859,-2.2859,0.0,0.0,0.0,0.0,0.0,0.0,0.0,0.0,0.0,0.0,0.0,0.0,0.0,0.0,0.0,0.0,0.0,0.0,0.0,-2.2859,-2.2859,-2.2859,-2.2859,-2.2859,-2.2859,-2.2859,-2.2859,-2.2859,-2.2859,-2.2859,-2.2859,-2.2859,-2.3393,-2.5113,-2.4196,-2.4588,-2.9847,-2.9344,-2.9344,-3.2765,-3.1963,-3.1709,-3.4309,-3.3217,0.0,0.0,0.0,0.0,0.0,0.0,0.0,0.0,0.0,0.0,-3.8555,-3.8574,-3.8574,-3.8574,-3.8574,-3.8574,-3.8574,-3.8574,-3.8574,-3.8574,-3.8574,-3.8574,-3.8574,-3.8574,-3.8574,-3.8574,0.0,0.0,0.0,-3.8574,-3.8574,-3.8574,-3.8574,-3.8574,-3.8574,-3.8574,-3.8574,-3.8574,0.0,0.0,0.0,0.0,0.0,0.0,0.0,-2.2859,-2.2859,-2.2859,-2.2859,-2.2859,-2.2859,-2.2859,-2.2859,-2.2859,-2.2859,0.0,0.0,0.0,0.0,0.0,0.0,0.0,0.0,0.0,-2.2859,-2.2859,-2.2859,-2.2859,-2.2859,-2.2859,-2.2859,-2.2859,-2.2859,0.0,0.0,0.0,0.0,0.0,0.0,0.0,0.0,0.0,0.0,0.0,0.0,0.0,0.0,0.0,0.0,0.0,0.0,0.0,0.0,-2.2859,-2.2859,-2.2859,-2.2859,-2.2859,-2.2859,-2.2859,-2.2859,-2.2859,-2.2859,-2.2859,-2.2996,-2.3665,-2.3256,-2.3788,-2.669,-2.7768,-2.8952,-3.1304,-3.2091,-3.3053,-3.444,0.0,0.0,0.0,0.0,0.0,0.0,0.0,0.0,0.0,0.0,0.0,-3.8555,-3.8574,-3.8574,-3.8574,-3.8574,-3.8574,-3.8574,-3.8574,-3.8574,-3.8574,-3.8574,-3.8574,-3.8574,-3.8574,-3.8574,0.0,0.0,0.0,0.0,-3.8574,-3.8574,-3.8574,-3.8574,-3.8574,-3.8574,-3.8574,-3.8574,-3.8574,0.0,0.0,0.0,0.0,0.0,0.0,0.0,-2.2859,-2.2859,-2.2859,-2.2859,-2.2859,-2.2859,-2.2859,-2.2859,-2.2859,-2.2859,0.0,0.0,0.0,0.0,0.0,0.0,0.0,0.0,-2.2859,-2.2859,-2.2859,-2.2859,-2.2859,-2.2859,-2.2859,-2.2859,-2.2859,-2.2859,0.0,0.0,0.0,0.0,0.0,0.0,0.0,-2.2859,0.0,0.0,0.0,0.0,0.0,0.0,0.0,0.0,0.0,0.0,0.0,0.0,0.0,-2.2859,-2.2859,-2.2859,-2.2859,-2.2859,-2.2859,-2.2859,-2.2859,-2.2859,-2.2859,-2.2859,-2.2859,-2.2859,-2.3393,-2.5113,-2.6972,-2.8558,-2.9605,-3.1304,-3.252,-3.267,0.0,0.0,0.0,0.0,0.0,0.0,0.0,0.0,0.0,0.0,0.0,-3.8555,-3.8574,-3.8574,-3.8574,-3.8574,-3.8574,-3.8574,-3.8574,-3.8574,-3.8574,-3.8574,-3.8574,-3.8574,-3.8574,-3.8574,0.0,0.0,0.0,0.0,-3.8574,-3.8574,-3.8574,-3.8574,-3.8574,-3.8574,-3.8574,-3.8574,-3.8574,0.0,0.0,0.0,0.0,0.0,0.0,0.0,-2.2859,-2.2859,-2.2859,-2.2859,-2.2859,-2.2859,-2.2859,-2.2859,-2.2859,0.0,0.0,0.0,0.0,0.0,0.0,0.0,0.0,-2.2859,-2.2859,-2.2859,-2.2859,-2.2859,-2.2859,-2.2859,-2.2859,-2.2859,-2.2859,-2.2859,-2.2859,0.0,0.0,0.0,0.0,0.0,0.0,0.0,0.0,0.0,0.0,0.0,0.0,0.0,0.0,0.0,0.0,0.0,0.0,0.0,0.0,0.0,0.0,0.0,-2.2859,-2.2859,-2.2859,-2.2859,-2.2859,-2.2859,-2.2859,0.0,-2.2859,-2.2859,-2.3393,-2.4979,-2.6839,-2.8048,-2.8048,-2.9474,-3.0259,-2.9257,-3.0802,0.0,0.0,0.0,0.0,0.0,0.0,0.0,0.0,0.0,0.0,-3.8574,-3.8574,-3.8574,-3.8574,-3.8574,-3.8574,-3.8574,-3.8574,-3.8574,-3.8574,-3.8574,-3.8574,-3.8574,-3.8574,-3.8574,0.0,0.0,-3.8574,0.0,-3.8574,-3.8574,-3.8574,-3.8574,-3.8574,-3.8574,-3.8574,-3.8574,-3.8574,0.0,0.0,0.0,0.0,0.0,0.0,0.0,0.0,0.0,0.0,-2.2859,-2.2859,-2.2859,-2.2859,-2.2859,0.0,0.0,0.0,0.0,0.0,0.0,0.0,0.0,0.0,-2.2859,-2.2859,-2.2859,-2.2859,-2.2859,-2.2859,-2.2859,-2.2859,-2.2859,-2.2859,-2.2859,-2.2859,0.0,0.0,0.0,0.0,0.0,0.0,0.0,0.0,0.0,0.0,-2.2859,-2.2859,0.0,0.0,0.0,0.0,0.0,0.0,0.0,0.0,-2.2859,-2.2859,-2.2859,0.0,-2.2859,-2.2859,-2.2859,-2.2859,0.0,-2.2859,0.0,0.0,0.0,0.0,-2.3393,-2.4993,-2.6172,-2.6172,-2.7635,-2.8942,-2.9121,0.0,0.0,0.0,0.0,0.0,0.0,0.0,0.0,0.0,0.0,-3.8574,-3.8574,-3.8574,-3.8574,-3.8574,-3.8574,-3.8574,-3.8574,-3.8574,-3.8574,-3.8574,-3.8574,-3.8574,-3.8574,-3.8574,-3.8574,0.0,0.0,-3.8574,-3.8574,-3.8574,-3.8574,-3.8574,-3.8574,-3.8574,-3.8574,-3.8574,-3.8574,-3.8574,0.0,0.0,0.0,0.0,0.0,0.0,0.0,0.0,0.0,0.0,0.0,-2.2859,-2.2859,-2.2859,0.0,0.0,0.0,0.0,0.0,0.0,0.0,0.0,0.0,-2.2859,-2.2859,-2.2859,-2.2859,-2.2859,-2.2859,-2.2859,-2.2859,-2.2859,-2.2859,-2.2859,-2.2859,-2.2859,0.0,0.0,0.0,0.0,-2.2859,0.0,0.0,0.0,0.0,0.0,-2.2859,-2.2859,0.0,-2.2859,-2.2859,-2.2859,0.0,0.0,0.0,0.0,-2.2859,-2.2859,-2.2859,-2.2859,-2.2859,-2.2859,-2.2859,-2.2859,-2.2859,-2.2859,0.0,0.0,0.0,0.0,0.0,0.0,-2.5248,-2.4452,-2.5907,-2.7447,0.0,0.0,0.0,0.0,0.0,0.0,0.0,0.0,0.0,0.0,0.0,-3.8574,-3.8574,-3.8574,-3.8574,-3.8574,-3.8574,-3.8574,-3.8574,-3.8574,-3.8574,-3.8574,-3.8574,-3.8574,-3.8574,-3.8574,-3.8574,0.0,0.0,-3.8574,-3.8574,-3.8574,-3.8574,-3.8574,-3.8574,-3.8574,-3.8574,-3.8574,-3.8574,-3.8574,0.0,0.0,0.0,0.0,0.0,0.0,0.0,0.0,0.0,0.0,0.0,0.0,0.0,0.0,0.0,0.0,0.0,0.0,0.0,0.0,0.0,0.0,0.0,-2.2859,-2.2859,-2.2859,-2.2859,-2.2859,-2.2859,-2.2859,-2.2859,-2.2859,-2.2859,-2.2859,-2.2859,-2.2859,0.0,0.0,0.0,0.0,-2.2859,0.0,0.0,0.0,0.0,0.0,0.0,0.0,0.0,-2.2859,-2.2859,-2.2859,-2.2859,0.0,0.0,0.0,0.0,0.0,-2.2859,-2.2859,-2.2859,-2.2859,-2.2859,-2.2859,-2.2859,0.0,0.0,0.0,0.0,0.0,0.0,0.0,0.0,0.0,0.0,0.0,0.0,0.0,0.0,0.0,0.0,0.0,0.0,0.0,0.0,0.0,0.0,-3.8263,-3.8574,-3.8574,-3.8574,-3.8574,-3.8574,-3.8574,-3.8574,-3.8574,-3.8574,-3.8574,-3.8574,-3.8574,-3.8574,-3.8574,-3.8574,-3.8574,0.0,0.0,-3.8574,-3.8574,-3.8574,-3.8574,-3.8574,-3.8574,-3.8574,-3.8574,-3.8574,-3.8574,0.0,0.0,0.0,0.0,0.0,0.0,0.0,0.0,0.0,0.0,0.0,0.0,0.0,0.0,0.0,0.0,0.0,0.0,0.0,0.0,0.0,-2.2859,-2.2859,-2.2859,-2.2859,-2.2859,-2.2859,-2.2859,-2.2859,-2.2859,-2.2859,-2.2859,-2.2859,-2.2859,-2.2859,-2.2859,-2.2859,0.0,0.0,0.0,0.0,0.0,0.0,0.0,0.0,0.0,0.0,0.0,0.0,-2.2859,-2.2859,-2.2859,-2.2859,0.0,0.0,0.0,0.0,0.0,-2.2859,-2.2859,-2.2859,-2.2859,-2.2859,-2.2859,-2.2859,0.0,0.0,0.0,0.0,0.0,0.0,0.0,0.0,0.0,0.0,0.0,0.0,0.0,0.0,0.0,0.0,0.0,0.0,0.0,0.0,0.0,0.0,-3.6737,-3.8574,-3.8574,-3.8574,-3.8574,-3.8574,-3.8574,-3.8574,-3.8574,-3.8574,-3.8574,-3.8574,-3.8574,-3.8574,-3.8574,-3.8574,-3.8574,0.0,-3.8574,-3.8574,-3.8574,-3.8574,-3.8574,-3.8574,-3.8574,-3.8574,-3.8574,-3.8574,-3.8574,0.0,0.0,0.0,0.0,0.0,0.0,0.0,0.0,0.0,0.0,0.0,0.0,0.0,0.0,0.0,0.0,0.0,0.0,0.0,0.0,-2.2859,-2.2859,-2.2859,-2.2859,-2.2859,-2.2859,-2.2859,-2.2859,-2.2859,-2.2859,-2.2859,-2.2859,-2.2859,-2.2859,-2.2859,-2.2859,-2.2859,-2.2859,-2.2859,-2.2859,0.0,0.0,0.0,0.0,0.0,0.0,0.0,0.0,0.0,0.0,-2.2859,-2.2859,-2.2859,0.0,0.0,0.0,0.0,0.0,-2.2859,-2.2859,-2.2859,-2.2859,-2.2859,-2.2859,-2.2859,0.0,0.0,0.0,0.0,0.0,0.0,0.0,0.0,0.0,0.0,0.0,0.0,0.0,0.0,0.0,0.0,0.0,0.0,0.0,0.0,0.0,0.0,0.0,-3.6885,-3.797,-3.8574,-3.8574,-3.8574,-3.8574,-3.8574,-3.8574,-3.8574,-3.8574,-3.8574,-3.8574,-3.8574,-3.8574,-3.8574,-3.8574,0.0,-3.8574,-3.8574,-3.8574,-3.8574,-3.8574,-3.8574,-3.8574,-3.8574,-3.8574,-3.8574,-3.8574,0.0,0.0,0.0,0.0,0.0,0.0,0.0,0.0,0.0,0.0,0.0,0.0,0.0,0.0,0.0,0.0,0.0,0.0,0.0,0.0,-2.2859,-2.2859,-2.2859,-2.2859,-2.2859,-2.2859,-2.2859,-2.2859,-2.2859,-2.2859,-2.2859,-2.2859,-2.2859,-2.2859,-2.2859,-2.2859,-2.2859,-2.2859,-2.2859,-2.2859,0.0,0.0,0.0,0.0,0.0,0.0,0.0,0.0,0.0,0.0,0.0,0.0,0.0,0.0,0.0,-2.2859,-2.2859,-2.2859,-2.2859,-2.2859,-2.2859,-2.2859,0.0,-2.2859,0.0,0.0,0.0,0.0,0.0,0.0,0.0,0.0,0.0,0.0,0.0,0.0,0.0,0.0,0.0,0.0,0.0,0.0,0.0,0.0,0.0,0.0,0.0,0.0,-3.5497,-3.7492,-3.8574,-3.8574,-3.8574,-3.8574,-3.8574,-3.8574,-3.8574,-3.8574,-3.8574,-3.8574,-3.8574,-3.8574,-3.8574,-3.8574,-3.8574,-3.8574,-3.8574,-3.8574,-3.8574,-3.8574,-3.8574,-3.8574,-3.8574,-3.8574,-3.8574,-3.8574,0.0,0.0,0.0,0.0,0.0,0.0,0.0,0.0,0.0,0.0,0.0,0.0,0.0,0.0,0.0,0.0,0.0,0.0,0.0,0.0,-2.2859,-2.2859,-2.2859,-2.2859,-2.2859,-2.2859,-2.2859,-2.2859,-2.2859,-2.2859,-2.2859,-2.2859,-2.2859,-2.2859,-2.2859,-2.2859,-2.2859,-2.2859,-2.2859,-2.2859,-2.2859,0.0,0.0,0.0,0.0,0.0,0.0,0.0,0.0,0.0,0.0,0.0,0.0,0.0,-2.2859,-2.2859,-2.2859,-2.2859,-2.2859,-2.2859,-2.2859,-2.2859,0.0,0.0,0.0,0.0,0.0,0.0,0.0,0.0,0.0,0.0,0.0,0.0,0.0,0.0,0.0,0.0,0.0,0.0,0.0,0.0,0.0,0.0,0.0,0.0,0.0,0.0,-3.5348,-3.7492,-3.8574,-3.8574,-3.8574,-3.8574,-3.8574,-3.8574,-3.8574,-3.8574,-3.8574,-3.8574,-3.8574,-3.8574,-3.8574,-3.8574,-3.8574,-3.8574,-3.8574,-3.8574,-3.8574,-3.8574,-3.8574,-3.8574,-3.8574,-3.8574,-3.8574,-3.8574,0.0,0.0,0.0,0.0,0.0,0.0,0.0,0.0,0.0,0.0,0.0,0.0,0.0,0.0,0.0,0.0,0.0,0.0,0.0,-2.2859,-2.2859,-2.2859,-2.2859,-2.2859,-2.2859,-2.2859,-2.2859,-2.2859,-2.2859,-2.2859,-2.2859,-2.2859,-2.2859,-2.2859,-2.2859,-2.2859,-2.2859,-2.2859,-2.2859,-2.2859,-2.2859,-2.2859,0.0,0.0,0.0,0.0,0.0,0.0,0.0,0.0,-2.2859,-2.2859,-2.2859,-2.2859,-2.2859,-2.2859,-2.2859,-2.2859,-2.2859,-2.2859,0.0,0.0,0.0,0.0,0.0,0.0,0.0,0.0,0.0,0.0,0.0,0.0,0.0,0.0,0.0,0.0,0.0,0.0,0.0,0.0,0.0,0.0,0.0,0.0,0.0,0.0,0.0,0.0,-3.3549,-3.4319,-3.5384,-3.6571,-3.6737,-3.6737,-3.6719,-3.7951,-3.8574,-3.8574,-3.8574,-3.8574,-3.8574,-3.8574,-3.8574,-3.8574,-3.8574,-3.8574,-3.8574,-3.8574,-3.8574,-3.8574,-3.8574,-3.8574,-3.8574,-3.8574,-3.8574,-3.8574,0.0,0.0,0.0,0.0,0.0,0.0,0.0,0.0,0.0,0.0,0.0,0.0,0.0,0.0,0.0,0.0,0.0,0.0,-2.2859,-2.2859,-2.2859,-2.2859,-2.2859,-2.2859,-2.2859,-2.2859,-2.2859,-2.2859,-2.2859,-2.2859,-2.2859,-2.2859,-2.2859,-2.2859,-2.2859,-2.2859,-2.2859,-2.2859,-2.2859,-2.2859,-2.2859,-2.2859,0.0,0.0,0.0,0.0,0.0,0.0,0.0,0.0,-2.2859,-2.2859,-2.2859,-2.2859,-2.2859,-2.2859,-2.2859,-2.2859,-2.2859,-2.2859,-2.2859,0.0,0.0,0.0,0.0,0.0,0.0,0.0,0.0,0.0,0.0,0.0,0.0,0.0,0.0,0.0,0.0,0.0,0.0,0.0,0.0,0.0,0.0,0.0,0.0,0.0,0.0,0.0,0.0,-3.2201,-3.3398,-3.5497,-3.5515,-3.583,-3.6423,-3.7951,-3.8574,-3.8574,-3.8574,-3.8574,-3.8574,-3.8574,-3.8574,-3.8574,-3.8574,-3.8574,-3.8574,-3.8574,-3.8574,-3.8574,-3.8574,-3.8574,-3.8574,-3.8574,-3.8574,-3.8574,0.0,0.0,0.0,0.0,0.0,0.0,0.0,0.0,0.0,0.0,0.0,0.0,0.0,0.0,0.0,0.0,0.0,0.0,-2.2859,-2.2859,-2.2859,-2.2859,-2.2859,-2.2859,-2.2859,-2.2859,-2.2859,-2.2859,-2.2859,-2.2859,-2.2859,-2.2859,-2.2859,-2.2859,-2.2859,-2.2859,-2.2859,-2.2859,-2.2859,-2.2859,-2.2859,-2.2859,-2.2859,0.0,0.0,0.0,0.0,0.0,0.0,0.0,-2.2859,-2.2859,-2.2859,-2.2859,-2.2859,-2.2859,-2.2859,-2.2859,-2.2859,-2.2859,0.0,0.0,0.0,0.0,0.0,0.0,0.0,0.0,0.0,0.0,0.0,0.0,0.0,0.0,0.0,0.0,0.0,0.0,0.0,0.0,0.0,0.0,0.0,0.0,0.0,0.0,0.0,0.0,0.0,-3.1284,-3.3398,-3.5348,-3.5497,-3.6423,-3.8574,-3.8574,-3.8574,-3.8574,-3.8574,-3.8574,-3.8574,-3.8574,-3.8574,-3.8574,-3.8574,-3.8574,-3.8574,-3.8574,-3.8574,-3.8574,-3.8574,-3.8574,-3.8574,-3.8574,-3.8574,-3.8574,0.0,0.0,0.0,0.0,0.0,0.0,0.0,0.0,0.0,0.0,0.0,0.0,0.0,0.0,0.0,0.0,0.0,0.0,-2.2859,-2.2859,-2.2859,-2.2859,-2.2859,-2.2859,-2.2859,-2.2859,-2.2859,-2.2859,-2.2859,-2.2859,-2.2859,-2.2859,-2.2859,-2.2859,-2.2859,-2.2859,-2.2859,-2.2859,-2.2859,-2.2859,-2.2859,-2.2859,-2.2859,0.0,0.0,0.0,0.0,0.0,0.0,0.0,0.0,0.0,-2.2859,-2.2859,-2.2859,-2.2859,-2.2859,-2.2859,-2.2859,-2.2859,0.0,0.0,0.0,0.0,0.0,0.0,0.0,0.0,0.0,0.0,0.0,0.0,0.0,0.0,0.0,0.0,0.0,0.0,0.0,0.0,0.0,0.0,0.0,0.0,0.0,0.0,0.0,0.0,0.0,-2.8686,-2.9138,-3.1115,-3.2641,-3.37,-3.4319,-3.7198,-3.8574,-3.8574,-3.8574,-3.8574,-3.8574,-3.8574,-3.8574,-3.8574,-3.8574,-3.8574,-3.8574,-3.8574,-3.8574,-3.8574,-3.8574,-3.8574,-3.8574,-3.8574,-3.8574,-3.8574,0.0,0.0,0.0,0.0,0.0,0.0,0.0,0.0,0.0,0.0,0.0,0.0,0.0,0.0,0.0,0.0,0.0,0.0,0.0,-2.2859,-2.2859,-2.2859,-2.2859,-2.2859,-2.2859,-2.2859,-2.2859,-2.2859,-2.2859,-2.2859,-2.2859,-2.2859,-2.2859,-2.2859,-2.2859,-2.2859,-2.2859,-2.2859,-2.2859,-2.2859,-2.2859,-2.2859,-2.2859,0.0,0.0,0.0,0.0,0.0,0.0,0.0,0.0,0.0,-2.2859,-2.2859,-2.2859,-2.2859,-2.2859,-2.2859,-2.2859,0.0,0.0,0.0,0.0,0.0,0.0,0.0,0.0,0.0,0.0,0.0,0.0,0.0,0.0,0.0,0.0,0.0,0.0,0.0,0.0,0.0,0.0,0.0,0.0,0.0,0.0,0.0,0.0,0.0,0.0,-2.7004,-2.7305,-2.9293,-3.0669,-3.2032,-3.37,-3.6127,-3.7805,-3.8574,-3.8574,-3.8574,-3.8574,-3.8574,-3.8574,-3.8574,-3.8574,-3.8574,-3.8574,-3.8574,-3.8574,-3.8574,-3.8574,-3.8574,-3.8574,-3.8574,-3.8574,-3.8574,0.0,0.0,0.0,0.0,0.0,0.0,0.0,0.0,0.0,0.0,0.0,0.0,0.0,0.0,0.0,0.0,0.0,0.0,0.0,0.0,-2.2859,-2.2859,-2.2859,-2.2859,-2.2859,-2.2859,-2.2859,-2.2859,-2.2859,-2.2859,-2.2859,-2.2859,-2.2859,-2.2859,-2.2859,-2.2859,-2.2859,-2.2859,-2.2859,-2.2859,-2.2859,-2.2859,-2.2859,-2.2859,0.0,0.0,0.0,0.0,0.0,0.0,0.0,0.0,-2.2859,-2.2859,-2.2859,-2.2859,-2.2859,-2.2859,0.0,0.0,0.0,0.0,0.0,0.0,0.0,0.0,0.0,0.0,0.0,0.0,0.0,0.0,0.0,0.0,0.0,0.0,0.0,0.0,0.0,0.0,0.0,0.0,0.0,0.0,0.0,0.0,0.0,0.0,0.0,-2.6386,-2.7305,-2.9138,-2.9449,-3.1421,-3.5199,-3.5664,-3.6719,-3.8574,-3.8574,-3.8574,-3.8574,-3.8574,-3.8574,-3.8574,-3.8574,-3.8574,-3.8574,-3.8574,-3.8574,-3.8574,-3.8574,-3.8574,-3.8574,-3.8574,-3.8574,-3.8574,0.0,0.0,0.0,0.0,0.0,0.0,0.0,0.0,0.0,0.0,0.0,0.0,0.0,0.0,0.0,0.0,0.0,0.0,0.0,0.0,-2.2859,-2.2859,-2.2859,-2.2859,-2.2859,-2.2859,-2.2859,-2.2859,-2.2859,-2.2859,-2.2859,-2.2859,-2.2859,-2.2859,-2.2859,-2.2859,-2.2859,-2.2859,-2.2859,-2.2859,-2.2859,-2.2859,-2.2859,-2.2859,-2.2859,0.0,0.0,0.0,0.0,0.0,0.0,0.0,-2.2859,-2.2859,-2.2859,-2.2859,-2.2859,-2.2859,0.0,0.0,0.0,0.0,0.0,0.0,0.0,0.0,0.0,0.0,0.0,0.0,0.0,0.0,0.0,0.0,0.0,0.0,0.0,0.0,0.0,0.0,0.0,0.0,0.0,0.0,0.0,0.0,0.0,0.0,-2.6386,-2.6386,-2.6544,-2.7004,-3.0207,-3.2184,-3.3095,-3.6294,-3.8117,0.0,-3.8574,-3.8574,-3.8574,-3.8574,-3.8574,-3.8574,-3.8574,-3.8574,-3.8574,-3.8574,-3.8574,-3.8574,-3.8574,-3.8574,-3.8574,-3.8574,-3.8574,-3.8574,0.0,0.0,0.0,0.0,0.0,0.0,0.0,0.0,0.0,0.0,0.0,0.0,0.0,0.0,0.0,0.0,0.0,0.0,0.0,0.0,-2.2859,-2.2859,-2.2859,-2.2859,-2.2859,-2.2859,-2.2859,-2.2859,-2.2859,-2.2859,-2.2859,-2.2859,-2.2859,-2.2859,-2.2859,-2.2859,-2.2859,-2.2859,-2.2859,-2.2859,-2.2859,-2.2859,-2.2859,-2.2859,-2.2859,-2.2859,-2.2859,0.0,0.0,0.0,0.0,0.0,0.0,0.0,-2.2859,-2.2859,-2.2859,-2.2859,0.0,0.0,0.0,0.0,0.0,0.0,0.0,0.0,0.0,0.0,0.0,0.0,0.0,0.0,0.0,0.0,0.0,0.0,0.0,0.0,0.0,0.0,0.0,0.0,0.0,0.0,0.0,0.0,0.0,-2.6386,-2.6386,-2.6386,-2.6386,-2.6386,-2.9449,-3.1421,-3.2505,-3.5533,-3.7639,-3.8574,-3.8574,-3.8574,-3.8574,-3.8574,-3.8574,-3.8574,-3.8574,-3.8574,-3.8574,-3.8574,-3.8574,-3.8574,-3.8574,-3.8574,-3.8574,-3.8574,-3.8574,-3.8574,0.0,0.0,0.0,0.0,0.0,0.0,0.0,0.0,0.0,0.0,0.0,0.0,0.0,0.0,0.0,0.0,0.0,0.0,0.0,0.0,0.0,-2.2859,-2.2859,-2.2859,-2.2859,-2.2859,-2.2859,-2.2859,-2.2859,-2.2859,-2.2859,-2.2859,-2.2859,-2.2859,-2.2859,-2.2859,-2.2859,-2.2859,-2.2859,-2.2859,-2.2859,-2.2859,-2.2859,-2.2859,-2.2859,-2.2859,-2.2859,-2.2859,-2.2859,-2.2859,0.0,0.0,0.0,0.0,-2.2859,-2.2859,-2.2859,-2.2859,0.0,0.0,0.0,0.0,0.0,0.0,0.0,0.0,0.0,0.0,0.0,0.0,0.0,0.0,0.0,0.0,0.0,0.0,0.0,0.0,0.0,0.0,0.0,0.0,0.0,0.0,0.0,0.0,0.0,-2.6386,-2.6386,-2.6386,-2.6386,-2.6386,-2.8374,-3.0361,-3.2505,-3.4451,-3.6571,-3.8574,-3.8574,-3.8574,-3.8574,-3.8574,-3.8574,-3.8574,-3.8574,-3.8574,-3.8574,-3.8574,-3.8574,-3.8574,-3.8574,-3.8574,-3.8574,-3.8574,-3.8574,-3.8574,0.0,0.0,0.0,0.0,0.0,0.0,0.0,0.0,0.0,0.0,0.0,0.0,0.0,0.0,0.0,0.0,0.0,0.0,-2.2859,0.0,0.0,-2.2859,-2.2859,-2.2859,-2.2859,-2.2859,-2.2859,-2.2859,-2.2859,0.0,0.0,0.0,0.0,-2.2859,-2.2859,-2.2859,-2.2859,-2.2859,-2.2859,-2.2859,-2.2859,-2.2859,-2.2859,-2.2859,-2.2859,-2.2859,-2.2859,-2.2859,-2.2859,-2.2859,-2.2859,0.0,0.0,0.0,-2.2859,-2.2859,-2.2859,-2.2859,0.0,0.0,0.0,0.0,0.0,0.0,0.0,0.0,0.0,0.0,0.0,0.0,0.0,0.0,0.0,0.0,0.0,0.0,0.0,0.0,0.0,0.0,0.0,0.0,0.0,0.0,0.0,0.0,-2.6386,-2.6386,-2.6386,-2.6386,-2.6386,-2.6386,-2.8374,-3.0361,-3.2505,-3.4451,-3.6571,-3.8574,-3.8574,-3.8574,-3.8574,-3.8574,-3.8574,-3.8574,-3.8574,-3.8574,-3.8574,-3.8574,-3.8574,-3.8574,-3.8574,-3.8574,-3.8574,-3.8574,-3.8574,-3.8574,0.0,0.0,0.0,0.0,0.0,0.0,0.0,0.0,0.0,0.0,0.0,0.0,0.0,0.0,0.0,-2.2859,-2.2859,-2.2859,-2.2859,-2.2859,-2.2859,-2.2859,-2.2859,-2.2859,-2.2859,-2.2859,-2.2859,-2.2859,0.0,0.0,0.0,-2.2859,-2.2859,0.0,0.0,-2.2859,-2.2859,-2.2859,-2.2859,-2.2859,-2.2859,-2.2859,-2.2859,-2.2859,-2.2859,-2.2859,-2.2859,-2.2859,-2.2859,-2.2859,-2.2859,-2.2859,-2.2859,0.0,0.0,0.0,-2.2859,0.0,0.0,0.0,0.0,0.0,0.0,0.0,0.0,0.0,0.0,0.0,0.0,0.0,0.0,0.0,0.0,0.0,0.0,0.0,0.0,0.0,0.0,0.0,0.0,0.0,0.0,0.0,0.0,0.0,-2.6386,-2.6386,-2.6386,-2.6386,-2.6386,-2.6386,-2.8374,-3.0361,-3.2505,-3.4451,-3.6571,-3.8574,-3.8574,-3.8574,-3.8574,-3.8574,-3.8574,-3.8574,-3.8574,-3.8574,-3.8574,-3.8574,-3.8574,-3.8574,-3.8574,-3.8574,-3.8574,-3.8574,-3.8574,-3.8574,0.0,0.0,0.0,0.0,0.0,0.0,0.0,0.0,0.0,0.0,0.0,0.0,0.0,0.0,0.0,0.0,-2.2859,-2.2859,-2.2859,-2.2859,-2.2859,-2.2859,-2.2859,-2.2859,-2.2859,-2.2859,-2.2859,-2.2859,0.0,0.0,-2.2859,-2.2859,-2.2859,0.0,-2.2859,-2.2859,0.0,0.0,0.0,-2.2859,-2.2859,-2.2859,-2.2859,-2.2859,-2.2859,-2.2859,-2.2859,0.0,0.0,0.0,-2.2859,-2.2859,-2.2859,-2.2859,0.0,0.0,0.0,0.0,0.0,0.0,0.0,0.0,0.0,0.0,0.0,0.0,0.0,0.0,0.0,0.0,0.0,0.0,0.0,0.0,0.0,0.0,0.0,0.0,0.0,0.0,0.0,0.0,0.0,0.0,0.0,0.0,-2.6386,-2.6386,-2.6386,-2.6386,-2.6386,-2.6386,-2.7919,-2.9604,-3.1727,-3.4301,-3.5961,-3.7051,-3.8117,-3.8263,-3.7805,-3.8409,-3.8574,-3.8574,-3.8574,-3.8574,-3.8574,-3.8574,-3.8574,-3.8574,-3.8574,-3.8574,-3.8574,-3.8574,-3.8574,-3.8574,0.0,0.0,0.0,0.0,0.0,0.0,0.0,0.0,0.0,0.0,0.0,0.0,-2.2859,-2.2859,-2.2859,-2.2859,-2.2859,-2.2859,-2.2859,-2.2859,-2.2859,-2.2859,-2.2859,0.0,-2.2859,-2.2859,-2.2859,0.0,0.0,0.0,-2.2859,-2.2859,-2.2859,-2.2859,-2.2859,-2.2859,-2.2859,0.0,0.0,0.0,-2.2859,-2.2859,-2.2859,-2.2859,-2.2859,-2.2859,-2.2859,0.0,0.0,0.0,0.0,-2.2859,-2.2859,-2.2859,-2.2859,0.0,0.0,0.0,0.0,0.0,0.0,0.0,0.0,0.0,0.0,0.0,0.0,0.0,0.0,0.0,0.0,0.0,0.0,0.0,0.0,0.0,0.0,0.0,0.0,0.0,0.0,0.0,0.0,0.0,0.0,0.0,-2.6386,-2.6386,-2.6386,-2.6386,-2.6386,-2.6386,-2.6544,-2.7462,-2.9604,-3.3532,-3.4601,-3.2809,-3.6756,-3.7492,-3.5664,-3.7658,-3.8574,-3.8574,-3.8574,-3.8574,-3.8574,-3.8574,-3.8574,-3.8574,-3.8574,-3.8574,-3.8574,-3.8574,-3.8574,-3.8574,0.0,0.0,0.0,0.0,0.0,0.0,0.0,0.0,0.0,0.0,0.0,0.0,0.0,-2.2859,-2.2859,-2.2859,-2.2859,-2.2859,-2.2859,-2.2859,-2.2859,-2.2859,-2.2859,-2.2859,-2.2859,-2.2859,-2.2859,0.0,0.0,-2.2859,-2.2859,-2.2859,-2.2859,-2.2859,-2.2859,-2.2859,-2.2859,-2.2859,0.0,0.0,0.0,0.0,-2.2859,-2.2859,0.0,0.0,0.0,0.0,0.0,0.0,0.0,-2.2859,-2.2859,-2.2859,-2.2859,-2.2859,-2.2859,-2.2859,-2.2859,0.0,0.0,0.0,0.0,0.0,0.0,0.0,0.0,0.0,0.0,0.0,0.0,0.0,0.0,0.0,0.0,0.0,0.0,0.0,0.0,0.0,0.0,0.0,0.0,0.0,0.0,0.0,0.0,-2.6386,-2.6386,-2.6386,-2.6386,-2.6386,-2.6386,-2.7305,-2.9449,-3.2184,-3.3247,-3.2505,-3.4018,-3.4319,-3.37,-3.5664,-3.6571,-3.6719,-3.7951,-3.8574,-3.8574,-3.8574,-3.8574,-3.8574,-3.8574,-3.8574,-3.8574,-3.8574,-3.8574,-3.8574,0.0,0.0,0.0,0.0,0.0,0.0,0.0,0.0,0.0,-2.2859,0.0,0.0,0.0,0.0,-2.2859,-2.2859,-2.2859,-2.2859,-2.2859,-2.2859,-2.2859,-2.2859,-2.2859,-2.2859,-2.2859,-2.2859,-2.2859,0.0,0.0,0.0,0.0,-2.2859,-2.2859,-2.2859,-2.2859,-2.2859,0.0,0.0,0.0,-2.2859,0.0,0.0,-2.2859,0.0,0.0,0.0,0.0,0.0,0.0,0.0,0.0,-2.2859,-2.2859,-2.2859,-2.2859,-2.2859,-2.2859,-2.2859,-2.2859,-2.2859,0.0,0.0,0.0,0.0,0.0,0.0,0.0,0.0,0.0,0.0,0.0,0.0,0.0,0.0,0.0,0.0,0.0,0.0,0.0,0.0,0.0,0.0,0.0,0.0,0.0,0.0,0.0,0.0,-2.6386,-2.6386,-2.6386,-2.6386,-2.6386,-2.7004,-2.8374,-3.0361,-3.113,-3.0515,-3.1896,-3.2201,-3.159,-3.3549,-3.4451,-3.4601,-3.5979,-3.7345,-3.8574,-3.8574,-3.8574,-3.8574,-3.8574,-3.8574,-3.8574,-3.8574,-3.8574,-3.8574,0.0,0.0,0.0,0.0,0.0,0.0,0.0,0.0,-2.2859,-2.2859,0.0,0.0,0.0,0.0,0.0,-2.2859,-2.2859,-2.2859,-2.2859,-2.2859,-2.2859,-2.2859,-2.2859,-2.2859,-2.2859,-2.2859,-2.2859,-2.2859,-2.2859,-2.2859,-2.2859,0.0,-2.2859,-2.2859,-2.2859,-2.2859,-2.2859,0.0,-2.2859,-2.2859,0.0,-2.2859,-2.2859,0.0,0.0,0.0,-2.2859,-2.2859,0.0,0.0,0.0,0.0,0.0,-2.2859,-2.2859,-2.2859,-2.2859,-2.2859,0.0,0.0,0.0,0.0,0.0,0.0,0.0,0.0,0.0,0.0,0.0,0.0,0.0,0.0,0.0,0.0,0.0,0.0,0.0,0.0,0.0,0.0,0.0,0.0,0.0,0.0,0.0,0.0,-2.6386,-2.6386,-2.6386,-2.6386,-2.6386,-2.6386,-2.6386,-2.6386,-2.6386,-2.8374,-2.8374,-2.6386,-3.0361,-3.1284,-2.9449,-3.1437,-3.2353,-3.2353,-3.2505,-3.4769,-3.8428,-3.8428,-3.8428,-3.8428,-3.8428,-3.8428,-3.8428,-3.8428,-3.8428,-3.8428,0.0,0.0,0.0,0.0,0.0,-2.2859,-2.2859,-2.2859,-2.2859,0.0,0.0,0.0,-2.2859,-2.2859,-2.2859,-2.2859,-2.2859,-2.2859,-2.2859,-2.2859,-2.2859,-2.2859,-2.2859,-2.2859,-2.2859,-2.2859,-2.2859,-2.2859,-2.2859,-2.2859,-2.2859,-2.2859,-2.2859,0.0,-2.2859,-2.2859,-2.2859,-2.2859,0.0,0.0,-2.2859,-2.2859,0.0,0.0,0.0,0.0,0.0,-2.2859,0.0,0.0,-2.2859,-2.2859,0.0,0.0,-2.2859,-2.2859,-2.2859,-2.2859,-2.2859,0.0,0.0,0.0,0.0,0.0,-2.2859,-2.334,0.0,0.0,0.0,0.0,0.0,0.0,0.0,0.0,0.0,0.0,0.0,0.0,0.0,0.0,0.0,0.0,0.0,0.0,0.0,0.0,-2.6386,-2.6386,-2.6386,-2.6386,-2.6386,-2.6386,-2.6386,-2.6386,-2.6386,-2.7004,-2.7004,-2.6386,-2.7619,-2.7762,-2.7305,-2.9293,-3.0207,-3.0361,-3.1896,-3.3112,-3.4169,-3.4169,-3.4169,-3.4169,-3.4169,-3.4169,-3.4169,-3.4169,-3.4169,-3.4169,0.0,0.0,0.0,0.0,0.0,-2.0756,-2.1596,-2.1032,-2.0756,0.0,0.0,0.0,-2.2859,-2.2859,-2.2859,-2.2859,-2.2859,-2.2859,-2.2859,-2.2859,-2.2859,-2.2859,-2.2859,-2.2859,-2.2859,-2.2859,-2.2859,-2.2859,-2.2859,-2.2859,-2.2859,-2.2859,-2.2859,-2.2859,0.0,0.0,0.0,0.0,0.0,0.0,-2.2859,0.0,0.0,-2.2859,-2.2859,0.0,0.0,0.0,-2.2859,-2.2859,-2.2859,0.0,0.0,0.0,0.0,-2.2859,-2.2859,-2.2859,-2.2859,-2.2859,0.0,0.0,0.0,0.0,-2.3033,-2.3434,0.0,0.0,0.0,0.0,0.0,0.0,0.0,0.0,0.0,0.0,0.0,0.0,0.0,0.0,0.0,0.0,0.0,-2.6039,-2.6266,-2.6373,-2.6386,-2.6386,-2.6386,-2.6386,-2.6386,-2.6386,-2.6386,-2.6386,-2.6386,-2.6386,-2.6386,-2.6386,-2.6386,-2.6386,-2.6386,-2.7605,-2.8218,-2.8218,-2.9449,-2.9913,-2.9913,-2.9913,-3.0977,-3.2505,-3.2505,-3.2505,-3.2505,-3.2505,-3.2505,-3.2505,0.0,0.0,-1.7809,-1.9495,-1.8369,-1.7809,-1.9495,-1.8369,-1.7949,0.0,-2.034,-2.1032,-2.2722,-2.2859,-2.2859,-2.2859,-2.2859,-2.2859,-2.2859,-2.2859,-2.2859,-2.2859,-2.2859,-2.2859,-2.2859,-2.2859,-2.2859,-2.2859,-2.2859,-2.2859,-2.2859,-2.2859,-2.2859,-2.2859,0.0,0.0,0.0,0.0,0.0,-2.2859,-2.2859,-2.2859,0.0,0.0,-2.2859,0.0,-2.2859,-2.2859,-2.2859,-2.2859,-2.2859,0.0,0.0,0.0,0.0,0.0,-2.2859,0.0,-2.2859,-2.2859,-2.2859,0.0,0.0,0.0,-2.326,-2.3554,-2.3848,0.0,0.0,0.0,0.0,0.0,0.0,0.0,0.0,0.0,0.0,0.0,0.0,0.0,0.0,0.0,-2.5478,-2.5785,-2.6079,-2.6373,-2.6386,-2.6386,-2.6386,-2.6386,-2.6386,-2.6386,-2.6386,-2.6386,-2.6386,-2.6386,-2.6386,-2.6386,-2.6386,-2.6386,-2.6386,-2.6386,-2.6386,-2.6386,-2.6386,-2.6386,-2.6386,-2.6386,-2.853,-3.1896,-3.1896,-3.1896,-3.1896,-3.1896,-3.1896,-3.1896,-1.7248,-1.7248,-1.7248,-1.7669,-1.7388,-1.7388,-1.7669,-1.7388,-1.7949,-1.9912,-2.1459,-2.2448,-2.2859,-2.2859,-2.2859,-2.2859,-2.2859,-2.2859,-2.2859,-2.2859,-2.2859,-2.2859,-2.2859,-2.2859,-2.2859,-2.2859,-2.2859,-2.2859,-2.2859,-2.2859,-2.2859,-2.2859,-2.2859,-2.2859,-2.2859,0.0,0.0,0.0,0.0,-2.2859,-2.2859,0.0,-2.2859,-2.2859,-2.2859,-2.2859,-2.2859,-2.2859,-2.2859,0.0,-2.2859,-2.2859,0.0,0.0,0.0,0.0,0.0,0.0,0.0,0.0,0.0,0.0,0.0,0.0,-2.326,-2.3554,-2.3848,0.0,0.0,0.0,0.0,0.0,0.0,0.0,0.0,0.0,0.0,0.0,0.0,0.0,0.0,0.0,-2.5478,-2.5785,-2.6079,-2.6373,-2.6386,-2.6386,-2.6386,-2.6386,-2.6386,-2.6386,-2.6386,-2.6386,-2.6386,-2.6386,-2.6386,-2.6386,-2.6386,-2.6386,-2.6386,-2.6386,-2.6386,-2.6386,-2.6386,-2.6386,-2.6386,-2.6386,-2.6847,-2.7619,-2.7619,-2.7619,-2.7619,-2.7619,-2.7619,-2.7619,-1.4441,-1.4441,-1.4725,-1.5707,-1.5839,-1.6122,-1.7107,-1.7248,-1.7529,-1.8508,-1.9495,-2.0479,-2.1459,-2.1459,-2.1872,-2.2859,-2.2859,-2.2859,-2.2859,-2.2859,-2.2859,-2.2859,-2.2859,-2.2859,-2.2859,-2.2859,-2.2859,-2.2859,-2.2859,-2.2859,-2.2859,-2.2859,-2.2859,-2.2859,-2.2859,0.0,0.0,0.0,-2.2859,-2.2859,-2.2859,0.0,-2.2859,-2.2859,-2.2859,-2.2859,-2.2859,-2.2859,-2.2859,-2.2859,-2.2859,0.0,0.0,-2.2859,-2.2859,0.0,-2.2859,-2.2859,0.0,0.0,0.0,-2.2859,0.0,0.0,0.0,-2.3781,-2.4075,0.0,0.0,0.0,0.0,0.0,0.0,0.0,0.0,0.0,0.0,0.0,0.0,0.0,0.0,0.0,-2.5264,-2.5558,-2.5919,-2.636,-2.6386,-2.6386,-2.6386,-2.6386,-2.6386,-2.6386,-2.6386,-2.6386,-2.6386,-2.6386,-2.6386,-2.6386,-2.6386,-2.6386,-2.6386,-2.6386,-2.6386,-2.6386,-2.6386,-2.6386,-2.6386,-2.6386,-2.6386,-2.6386,-2.6386,-2.6386,-2.6386,-2.6386,-2.6386,-2.6386,-1.1619,-1.1619,-1.2043,-1.3587,-1.3872,-1.4432,-1.5849,-1.6131,-1.6272,-1.6545,-1.6967,-1.7949,-1.9912,-2.0063,-2.0894,-2.2722,-2.2859,-2.2859,-2.2859,0.0,-2.2859,-2.2859,-2.2859,-2.2859,-2.2859,-2.2859,-2.2859,-2.2859,-2.2859,-2.2859,-2.2859,-2.2859,-2.2859,-2.2859,-2.2859,-2.2859,0.0,0.0,0.0,-2.2859,0.0,-2.2859,-2.2859,-2.2859,-2.2859,-2.2859,-2.2859,-2.2859,-2.2859,-2.2859,0.0,-2.2859,-2.2859,-2.2859,0.0,0.0,0.0,0.0,0.0,0.0,0.0,0.0,0.0,-2.342,0.0,0.0,0.0,0.0,0.0,0.0,0.0,0.0,0.0,0.0,0.0,0.0,0.0,0.0,0.0,0.0,0.0,0.0,-2.505,-2.5398,-2.5798,-2.6266,-2.636,-2.6386,-2.6386,-2.6386,-2.6386,-2.6386,-2.6386,-2.6386,-2.6386,-2.6386,-2.6386,-2.6386,-2.6386,-2.6386,-2.6386,-2.6386,-2.6386,-2.6386,-2.6386,-2.6386,-2.6386,-2.6386,-2.6386,-2.6386,-2.6386,-2.6386,-2.6386,-2.6386,-2.6386,-2.6386,-1.1619,-1.1619,-1.1619,-1.19,-1.19,-1.2043,-1.2187,-1.2187,-1.2888,-1.4432,-1.6122,-1.7949,0.0,0.0,0.0,0.0,0.0,0.0,-2.2859,0.0,-2.2859,-2.2859,-2.2859,-2.2859,-2.2859,-2.2859,-2.2859,-2.2859,-2.2859,-2.2859,-2.2859,-2.2859,-2.2859,-2.2859,-2.2859,0.0,0.0,0.0,-2.2859,0.0,-2.2859,-2.2859,0.0,-2.2859,-2.2859,-2.2859,-2.2859,-2.2859,-2.2859,0.0,-2.2859,-2.2859,0.0,-2.2859,-2.2859,0.0,0.0,0.0,0.0,0.0,0.0,0.0,-2.33,0.0,0.0,0.0,0.0,0.0,0.0,0.0,0.0,0.0,0.0,0.0,0.0,0.0,0.0,0.0,0.0,-2.4636,-2.4636,-2.4756,-2.505,-2.5585,-2.5932,-2.5999,-2.6239,-2.6386,-2.6386,-2.6386,-2.6386,-2.6386,-2.6386,-2.6386,-2.6386,-2.6386,-2.6386,-2.6386,-2.6386,-2.6386,-2.6386,-2.6386,-2.6386,-2.6386,-2.6386,-2.6386,-2.6386,-2.6386,-2.6386,-2.6386,-2.6386,-2.6386,-2.6386,-2.6386,-2.6386,-2.6386,-1.1619,-1.1619,-1.1619,-1.1619,-1.2466,-1.3167,-1.3167,-1.3167,-1.3872,-1.5839,-1.5698,-1.6263,0.0,0.0,0.0,0.0,0.0,0.0,0.0,0.0,-2.2859,-2.2859,-2.2859,0.0,-2.2859,-2.2859,-2.2859,-2.2859,-2.2859,-2.2859,-2.2859,-2.2859,-2.2859,-2.2859,-2.2859,0.0,-2.2859,0.0,0.0,0.0,0.0,0.0,0.0,-2.2859,-2.2859,-2.2886,-2.3073,-2.3126,-2.3153,0.0,-2.3394,0.0,0.0,0.0,0.0,0.0,0.0,0.0,0.0,0.0,0.0,0.0,0.0,0.0,-2.4142,0.0,-2.4489,0.0,0.0,0.0,0.0,0.0,0.0,0.0,-2.4556,0.0,0.0,0.0,-2.4636,0.0,0.0,0.0,-2.505,-2.5304,-2.5585,-2.5932,-2.6066,-2.6213,-2.6386,-2.6386,-2.6386,-2.6386,-2.6386,-2.6386,-2.6386,-2.6386,-2.6386,-2.6386,-2.6386,-2.6386,-2.6386,-2.6386,-2.6386,-2.6386,-2.6386,-2.6386,-2.6386,-2.6386,-2.6386,-2.6386,-2.6386,-2.6386,-2.6386,-2.6386,-2.6386,-2.6386,-1.1619,0.0,0.0,0.0,-1.2745,-1.3587,-1.3587,-1.3587,-1.4156,0.0,0.0,0.0,-1.6263,-1.6404,0.0,0.0,0.0,-2.0063,0.0,0.0,-2.2859,0.0,0.0,0.0,0.0,-2.2859,-2.2859,-2.2859,-2.2859,-2.2859,-2.2859,-2.2859,-2.2859,-2.2859,0.0,-2.2859,-2.2859,0.0,0.0,-2.2873,-2.2953,-2.3033,-2.31,-2.302,-2.3046,-2.314,-2.3367,-2.3447,-2.3487,-2.3701,-2.3768,0.0,-2.3768,0.0,0.0,0.0,0.0,0.0,-2.3768,0.0,0.0,0.0,0.0,0.0,0.0,0.0,0.0,0.0,0.0,0.0,0.0,0.0,-2.4609,-2.4529,0.0,-2.4609,0.0,-2.4583,0.0,0.0,0.0,0.0,0.0,-2.5037,-2.5251,-2.5678,-2.5865,-2.6052,-2.6266,-2.6346,-2.6386,-2.6386,-2.6386,-2.6386,-2.6386,-2.6386,-2.6386,-2.6386,-2.6386,-2.6386,-2.6386,-2.6386,-2.6386,-2.6386,-2.6386,-2.6386,-2.6386,-2.6386,-2.6386,-2.6386,-2.6386,-2.6386,-2.6386,-2.6386,-2.6386,-2.6386,-1.1619,-1.1619,0.0,0.0,0.0,-1.1763,-1.1763,-1.1763,0.0,0.0,0.0,0.0,0.0,0.0,0.0,0.0,0.0,-2.0063,-2.0063,0.0,-2.2859,0.0,0.0,0.0,0.0,0.0,-2.2859,-2.2859,-2.2859,-2.2859,-2.2859,-2.2859,-2.2859,-2.2859,-2.2859,-2.2859,-2.2859,-2.2859,-2.2859,-2.2886,-2.3193,-2.3487,-2.3714,0.0,-2.3487,-2.3741,-2.3754,0.0,0.0,-2.3768,-2.3768,0.0,0.0,0.0,0.0,0.0,0.0,0.0,0.0,0.0,0.0,-2.4115,0.0,0.0,0.0,0.0,-2.4636,0.0,0.0,0.0,0.0,0.0,-2.4543,-2.4262,-2.4449,0.0,0.0,0.0,0.0,0.0,0.0,0.0,0.0,-2.4917,-2.509,-2.5104,-2.5638,-2.5959,-2.5972,-2.6239,-2.6386,-2.6386,-2.6386,-2.6386,-2.6386,-2.6386,-2.6386,-2.6386,-2.6386,-2.6386,-2.6386,-2.6386,-2.6386,-2.6386,-2.6386,-2.6386,-2.6386,-2.6386,-2.6386,-2.6386,-2.6386,-2.6386,-2.6386,-2.6386,-2.6386,-2.6386,0.0,0.0,0.0,0.0,0.0,0.0,0.0,-1.1619,0.0,0.0,0.0,0.0,0.0,0.0,-1.4716,0.0,0.0,-1.8798,-2.0051,-2.0756,0.0,0.0,0.0,-2.1596,0.0,0.0,0.0,0.0,0.0,-2.2859,-2.2859,-2.2859,-2.2859,-2.2859,0.0,-2.2859,0.0,0.0,0.0,0.0,0.0,-2.3794,-2.4022,0.0,0.0,-2.3794,-2.3981,-2.4062,0.0,-2.4275,-2.4342,-2.4342,-2.4342,-2.4342,-2.4342,-2.4342,-2.4342,0.0,0.0,0.0,-2.4369,-2.4462,0.0,0.0,0.0,0.0,0.0,0.0,0.0,0.0,0.0,-2.4636,-2.4609,-2.4502,-2.4569,-2.4596,0.0,0.0,0.0,0.0,0.0,0.0,0.0,0.0,-2.4863,-2.5064,-2.5438,-2.5745,-2.5945,-2.6226,-2.6386,-2.6386,-2.6386,-2.6386,-2.6386,-2.6386,-2.6386,-2.6386,-2.6386,-2.6386,-2.6386,-2.6386,-2.6386,-2.6386,-2.6386,-2.6386,-2.6386,-2.6386,-2.6386,-2.6386,-2.6386,-2.6386,-2.6386,-2.6386,-2.6386,-2.6386,-1.1619,0.0,0.0,0.0,0.0,0.0,0.0,0.0,0.0,0.0,-1.3452,0.0,-1.3452,0.0,-1.3452,0.0,-1.5707,-1.7429,-1.8065,-1.9959,0.0,-2.1887,-2.137,0.0,0.0,0.0,0.0,0.0,0.0,-2.2297,-2.2859,-2.2859,-2.2859,-2.2859,0.0,-2.3033,-2.3046,0.0,-2.3487,0.0,0.0,-2.4102,0.0,0.0,-2.4075,-2.4102,0.0,-2.4356,-2.4382,-2.4569,-2.4636,-2.4636,-2.4636,-2.4636,-2.4636,-2.4636,-2.4636,-2.4636,-2.4636,-2.4636,0.0,-2.4636,-2.4636,0.0,-2.4636,0.0,0.0,0.0,0.0,0.0,0.0,0.0,-2.4636,-2.4636,-2.4636,-2.4636,0.0,-2.4636,0.0,0.0,0.0,0.0,0.0,-2.4636,-2.4716,-2.4903,-2.5197,-2.5491,-2.5785,-2.6079,-2.6279,-2.6386,-2.6386,-2.6386,-2.6386,-2.6386,-2.6386,-2.6386,-2.6386,-2.6386,-2.6386,-2.6386,-2.6386,-2.6386,-2.6386,-2.6386,-2.6386,-2.6386,-2.6386,-2.6386,-2.6386,-2.6386,-2.6386,-2.6386,-2.6386,-2.6386,0.0,0.0,0.0,0.0,-1.1626,0.0,0.0,0.0,-1.1633,0.0,-1.164,-1.164,-1.164,-1.164,-1.164,-1.1784,-1.5035,0.0,-1.5009,-1.9655,0.0,0.0,-2.1634,-2.2487,-2.2625,0.0,0.0,0.0,0.0,0.0,-2.2886,-2.2886,-2.2899,-2.2926,-2.322,0.0,-2.3367,-2.3661,-2.3794,-2.3834,-2.4115,-2.4396,-2.4636,-2.4636,-2.4636,-2.4636,-2.4636,-2.4636,-2.4636,-2.4636,-2.4636,-2.4636,-2.4636,-2.4636,-2.4636,-2.4636,-2.4636,-2.4636,-2.4636,-2.4636,-2.4636,-2.4636,-2.4636,0.0,0.0,0.0,-2.4636,0.0,0.0,0.0,0.0,0.0,-2.4636,-2.4636,-2.4636,-2.4636,-2.4636,-2.4636,-2.4636,0.0,0.0,0.0,0.0,-2.4636,-2.4636,-2.4636,-2.4917,-2.5197,0.0,-2.5785,-2.6079,-2.636,-2.6386,-2.6386,-2.6386,-2.6386,-2.6386,-2.6386,-2.6386,-2.6386,-2.6386,-2.6386,-2.6386,-2.6386,-2.6386,-2.6386,-2.6386,-2.6386,-2.6386,-2.6386,-2.6386,-2.6386,-2.6386,-2.6386,-2.6386,-2.6386,-1.1619,-1.1619,-1.1653,0.0,-1.1687,-1.1619,0.0,0.0,0.0,0.0,-1.1877,-1.1952,-1.1952,-1.1952,-1.2529,-1.3976,-1.4992,0.0,0.0,0.0,0.0,-1.8259,-1.7474,-1.7589,-1.904,-2.0055,0.0,-2.0919,0.0,0.0,-2.3207,-2.3207,-2.3327,-2.3541,0.0,0.0,-2.3674,-2.3968,-2.4222,-2.4422,-2.4489,-2.4569,0.0,0.0,-2.4636,-2.4636,-2.4636,-2.4636,-2.4636,-2.4636,-2.4636,-2.4636,-2.4636,-2.4636,-2.4636,-2.4636,-2.4636,-2.4636,-2.4636,-2.4636,-2.4636,-2.4636,-2.4636,-2.4636,0.0,0.0,0.0,0.0,0.0,0.0,0.0,0.0,0.0,-2.4636,-2.4636,-2.4636,-2.4636,0.0,0.0,-2.4636,0.0,-2.4636,-2.4636,-2.4636,-2.4636,-2.4636,-2.4917,-2.5117,-2.5184,0.0,-2.5985,-2.6066,-2.6279,-2.6386,-2.6386,-2.6386,-2.6386,-2.6386,-2.6386,-2.6386,-2.6386,-2.6386,-2.6386,-2.6386,-2.6386,-2.6386,-2.6386,-2.6386,-2.6386,-2.6386,-2.6386,-2.6386,-2.6386,-2.6386,-2.6386,-2.6386,-1.1809,0.0,0.0,-1.1918,0.0,0.0,-1.1809,0.0,0.0,-1.1932,-1.2006,0.0,-1.206,-1.206,-1.2501,-1.3527,-1.4399,0.0,0.0,0.0,0.0,-1.6582,-1.6352,-1.659,-1.7623,-1.8051,0.0,-2.0472,0.0,0.0,-2.3514,-2.3514,-2.3607,-2.3781,0.0,-2.3955,0.0,-2.4262,-2.4489,-2.4636,-2.4636,-2.4636,0.0,-2.4636,-2.4636,-2.4636,-2.4636,-2.4636,-2.4636,-2.4636,-2.4636,-2.4636,-2.4636,-2.4636,-2.4636,-2.4636,-2.4636,-2.4636,-2.4636,-2.4636,-2.4636,-2.4636,-2.4636,-2.4636,-2.4636,-2.4636,-2.4636,0.0,-2.4636,-2.4636,0.0,0.0,0.0,-2.4636,-2.4636,-2.4636,0.0,0.0,0.0,0.0,-2.4636,-2.4636,-2.4636,-2.4636,-2.4636,-2.4636,-2.4796,-2.4943,-2.5077,0.0,-2.5825,-2.5959,-2.6239,-2.6386,-2.6386,-2.6386,-2.6386,-2.6386,-2.6386,-2.6386,-2.6386,-2.6386,-2.6386,-2.6386,-2.6386,-2.6386,-2.6386,-2.6386,-2.6386,-2.6386,-2.6386,-2.6386,-2.6386,-2.6386,-2.6386,-2.6386,0.0,0.0,0.0,0.0,0.0,0.0,0.0,-1.2101,0.0,-1.2094,0.0,-1.2121,-1.2121,-1.2121,-1.2121,-1.2121,0.0,-1.3948,-1.2457,-1.53,-1.6314,-1.4843,-1.6184,-1.6968,-1.6968,-1.5641,0.0,0.0,0.0,0.0,-2.3834,-2.3834,-2.3848,-2.3888,0.0,0.0,0.0,-2.4529,-2.4636,-2.4636,-2.4636,-2.4636,-2.4636,-2.4676,-2.469,-2.4703,-2.4743,-2.4703,-2.4636,-2.4636,-2.4636,-2.4636,-2.4636,-2.4636,-2.4636,-2.4636,-2.4636,-2.4636,-2.4636,-2.4636,-2.4636,-2.4636,-2.4636,-2.4636,-2.4636,-2.4636,-2.4636,-2.4636,-2.4636,-2.4636,0.0,0.0,0.0,-2.4636,0.0,0.0,0.0,0.0,0.0,0.0,0.0,0.0,-2.4636,-2.4636,-2.4636,-2.4636,-2.4636,-2.4756,-2.501,0.0,-2.5625,-2.5892,-2.6226,-2.6386,-2.6386,-2.6386,-2.6386,-2.6386,-2.6386,-2.6386,-2.6386,-2.6386,-2.6386,-2.6386,-2.6386,-2.6386,-2.6386,-2.6386,-2.6386,-2.6386,-2.6386,-2.6386,-2.6386,-2.6386,-2.6386,-2.6386,0.0,0.0,0.0,0.0,0.0,-1.2291,-1.2406,-1.2325,-1.225,-1.225,-1.2352,0.0,-1.2427,-1.2427,-1.2427,-1.2427,-1.2727,0.0,0.0,0.0,0.0,-1.2916,-1.3195,-1.3487,-1.3487,-1.4686,-1.6419,0.0,0.0,0.0,-2.4128,-2.4128,-2.4249,-2.4489,0.0,0.0,-2.4569,-2.4609,0.0,-2.4636,-2.4636,-2.4636,-2.4663,-2.4917,-2.4997,-2.5037,-2.5277,-2.505,-2.4636,-2.4636,-2.4636,-2.4636,-2.4636,-2.4636,-2.4636,-2.4636,-2.4636,-2.4636,-2.4636,-2.4636,-2.4636,-2.4636,-2.4636,-2.4636,-2.4636,-2.4636,-2.4636,-2.4636,-2.4636,-2.4636,-2.4636,0.0,0.0,0.0,0.0,0.0,0.0,0.0,0.0,0.0,0.0,-2.4636,0.0,-2.4636,-2.4636,-2.4636,-2.4636,-2.4663,-2.4716,0.0,-2.5531,0.0,-2.6106,-2.6386,0.0,0.0,-2.6386,-2.6386,-2.6386,-2.6386,-2.6386,-2.6386,-2.6386,-2.6386,-2.6386,-2.6386,-2.6386,-2.6386,-2.6386,-2.6386,-2.6386,-2.6386,-2.6386,-2.6386,-2.6386,-2.6386,0.0,0.0,0.0,0.0,0.0,0.0,0.0,-1.263,0.0,-1.242,-1.2461,-1.2528,-1.261,-1.2617,-1.2651,-1.2732,-1.2664,-1.2617,-1.2617,-1.2549,-1.2501,-1.2501,-1.2501,0.0,-1.2501,-1.3414,-1.4887,-1.6756,0.0,0.0,-2.2915,-2.397,-2.4502,-2.4636,0.0,-2.4031,0.0,0.0,0.0,-2.4863,-2.4863,-2.4957,-2.5104,-2.5251,-2.5304,-2.5317,-2.5464,-2.5331,-2.509,-2.509,-2.509,-2.509,-2.509,-2.509,-2.509,-2.509,-2.509,-2.509,-2.509,-2.509,-2.509,-2.509,-2.509,-2.509,-2.509,-2.497,-2.4863,-2.4863,-2.4743,-2.4636,-2.4636,-2.4636,0.0,0.0,0.0,0.0,0.0,0.0,0.0,0.0,0.0,0.0,0.0,0.0,0.0,0.0,0.0,0.0,0.0,0.0,-2.5518,0.0,0.0,0.0,-2.6386,0.0,-2.6386,-2.6386,-2.6386,-2.6386,-2.6386,-2.6386,-2.6386,-2.6386,-2.6386,-2.6386,-2.6386,-2.6386,-2.6386,-2.6386,-2.6386,-2.6386,-2.6386,-2.6386,-2.6386,-2.6386,0.0,-1.2596,0.0,0.0,-1.2698,0.0,-1.2779,-1.2881,-1.2874,-1.263,-1.2596,-1.2644,-1.2766,-1.2779,-1.2827,-1.2949,-1.2847,-1.2779,-1.2779,-1.2664,-1.2596,-1.2596,-1.2596,-1.2596,-1.2596,-1.2569,-1.3465,0.0,0.0,0.0,0.0,-2.2509,-2.3574,0.0,0.0,0.0,0.0,0.0,-2.4957,-2.517,-2.517,-2.5304,-2.5518,-2.5585,-2.5611,-2.5611,-2.5678,-2.5705,-2.5705,-2.5705,-2.5611,-2.5518,-2.5518,-2.5518,-2.5518,-2.5518,-2.5518,-2.5518,-2.5518,-2.5518,-2.5518,-2.5518,-2.5518,-2.5518,-2.5518,-2.5331,-2.517,-2.517,-2.4983,-2.481,-2.4743,-2.473,0.0,0.0,0.0,0.0,0.0,0.0,0.0,0.0,0.0,0.0,-2.4636,0.0,0.0,0.0,0.0,0.0,-2.4636,0.0,0.0,0.0,0.0,-2.6333,-2.6386,0.0,-2.6386,-2.6386,-2.6386,-2.6386,-2.6386,-2.6386,-2.6386,-2.6386,-2.6386,-2.6386,-2.6386,-2.6386,-2.6386,-2.6386,-2.6386,-2.6386,-2.6386,-2.6386,-2.6386,-2.6386,0.0,0.0,0.0,0.0,0.0,0.0,0.0,-1.2949,-1.2949,-1.2922,-1.2922,-1.2922,-1.2935,-1.2942,-1.2942,-1.2963,-1.2949,-1.2942,-1.2942,-1.2929,-1.2922,-1.2922,-1.2922,-1.2922,-1.2922,-1.2779,-1.364,0.0,0.0,0.0,0.0,-1.9025,-2.008,0.0,0.0,0.0,0.0,-2.5166,-2.5451,-2.5478,-2.5478,-2.5491,-2.5545,-2.5812,-2.5919,-2.5945,-2.6213,-2.6306,-2.6306,-2.6306,-2.5959,-2.5518,-2.5518,-2.5518,-2.5518,-2.5518,-2.5518,-2.5518,-2.5518,-2.5518,-2.5518,-2.5518,-2.5518,-2.5518,-2.5518,-2.5491,-2.5478,-2.5478,-2.5451,-2.5344,-2.509,-2.5037,-2.4957,0.0,0.0,0.0,0.0,0.0,0.0,0.0,0.0,0.0,0.0,-2.4636,0.0,0.0,-2.4636,0.0,0.0,0.0,0.0,-2.5504,-2.5825,-2.6119,-2.6386,-2.6386,-2.6386,-2.6386,-2.6386,-2.6386,-2.6386,-2.6386,-2.6386,-2.6386,-2.6386,-2.6386,-2.6386,-2.6386,-2.6386,-2.6386,-2.6386,-2.6386,-2.6386,-2.6386,-2.6386,-2.6386,0.0,0.0,0.0,0.0,0.0,0.0,0.0,-1.3166,-1.3227,-1.3227,-1.3071,-1.299,-1.3078,-1.3085,-1.3125,-1.3214,-1.3139,-1.3085,-1.3085,-1.301,-1.2963,-1.2963,-1.2963,-1.2963,-1.2963,-1.2901,-1.3338,0.0,0.0,0.0,0.0,0.0,0.0,0.0,0.0,-2.0648,-2.1597,-2.2959,-2.4508,-2.5785,-2.5785,-2.5879,-2.6052,-2.6172,-2.6213,-2.6226,-2.6346,-2.6386,-2.6386,-2.6386,-2.6226,-2.6039,-2.6039,-2.6039,-2.6039,-2.6039,-2.6039,-2.6039,-2.6039,-2.6039,-2.6039,-2.6039,-2.6039,-2.6039,-2.6039,-2.5905,-2.5785,-2.5785,-2.5638,-2.5478,-2.5358,-2.5344,-2.5304,-2.5184,0.0,0.0,0.0,0.0,0.0,0.0,0.0,-2.4636,0.0,-2.4636,0.0,0.0,0.0,0.0,0.0,0.0,0.0,-2.5504,0.0,-2.6266,-2.6386,-2.6386,-2.6386,-2.6386,-2.6386,-2.6386,-2.6386,-2.6386,-2.6386,-2.6386,-2.6386,-2.6386,-2.6386,-2.6386,-2.6386,-2.6386,-2.6386,-2.6386,-2.6386,-2.6386,-2.6386,-2.6386,-1.3091,0.0,-1.3091,0.0,-1.3173,-1.3241,-1.3241,-1.3329,-1.3403,-1.3403,-1.322,-1.3125,-1.3227,-1.3241,-1.3281,-1.339,-1.3302,-1.3241,-1.3241,-1.3146,-1.3091,-1.3091,-1.3091,0.0,-1.3091,-1.3044,-1.3024,-1.3024,-1.4396,0.0,0.0,0.0,0.0,0.0,-1.7566,-1.87,-1.9488,-2.1615,-2.3502,-2.527,-2.5923,-2.6199,-2.6386,-2.6386,-2.6386,-2.6386,-2.6386,-2.6386,-2.6386,-2.6386,-2.6386,-2.6386,-2.6386,-2.6386,-2.6386,-2.6386,-2.6386,-2.6386,-2.6386,-2.6386,-2.6386,-2.6386,-2.6386,-2.6386,-2.6386,-2.6226,-2.6079,-2.6079,-2.5919,-2.5745,-2.5665,-2.5638,-2.5611,-2.5531,0.0,0.0,0.0,-2.4957,0.0,0.0,-2.469,-2.4636,-2.4636,-2.4636,0.0,0.0,0.0,0.0,0.0,0.0,0.0,0.0,0.0,0.0,-2.6386,-2.6386,-2.6386,-2.6386,-2.6386,-2.6386,-2.6386,-2.6386,-2.6386,-2.6386,-2.6386,-2.6386,-2.6386,-2.6386,-2.6386,-2.6386,-2.6386,-2.6386,-2.6386,-2.6386,-2.6386,-2.6386,-1.3397,-1.3397,-1.3397,-1.3397,-1.3397,-1.3397,-1.3397,-1.3397,-1.3403,-1.3403,-1.3397,-1.3397,-1.3397,-1.3397,-1.3397,-1.3403,-1.3397,-1.3397,-1.3397,-1.3397,-1.3397,0.0,0.0,-1.3397,-1.3397,-1.3247,-1.3173,-1.3173,0.0,0.0,-1.2963,0.0,-1.4054,-1.5939,-1.6292,-1.7494,-1.9722,-2.2054,-2.3128,-2.33,-2.5568,-2.6386,-2.6386,-2.6386,-2.6386,-2.6386,-2.6386,-2.6386,-2.6386,-2.6386,-2.6386,-2.6386,-2.6386,-2.6386,-2.6386,-2.6386,-2.6386,-2.6386,-2.6386,-2.6386,-2.6386,-2.6386,-2.6386,-2.6386,-2.6386,-2.6386,-2.6386,-2.6386,-2.6386,-2.6293,-2.5999,-2.5959,-2.5852,-2.5558,0.0,0.0,0.0,0.0,0.0,-2.5077,-2.481,-2.4636,-2.4636,-2.4636,0.0,0.0,0.0,0.0,0.0,0.0,0.0,-2.5504,-2.5798,0.0,-2.6386,-2.6386,-2.6386,-2.6386,-2.6386,-2.6386,-2.6386,-2.6386,-2.6386,-2.6386,-2.6386,-2.6386,-2.6386,-2.6386,-2.6386,-2.6386,-2.6386,-2.6386,-2.6386,-2.6386,-2.6386,-2.6386,-1.3403,-1.3403,-1.3403,-1.3403,-1.3403,-1.3403,-1.3403,-1.3403,-1.3403,-1.3403,-1.3403,-1.3403,-1.3403,-1.3403,-1.3403,0.0,-1.3403,-1.3403,0.0,-1.3403,-1.3403,-1.3403,-1.3403,-1.3403,-1.3403,-1.3356,-1.3329,-1.3329,0.0,0.0,0.0,-1.3261,-1.3582,-1.4222,-1.4281,-1.5599,-1.7693,-2.0028,-2.1684,-2.33,-2.5568,-2.6386,-2.6386,-2.6386,-2.6386,-2.6386,-2.6386,-2.6386,-2.6386,-2.6386,-2.6386,-2.6386,-2.6386,-2.6386,-2.6386,-2.6386,-2.6386,-2.6386,-2.6386,-2.6386,-2.6386,-2.6386,-2.6386,-2.6386,-2.6386,-2.6386,-2.6386,-2.6386,-2.6386,-2.636,-2.6266,-2.6253,-2.6226,-2.6132,-2.5945,0.0,-2.5812,0.0,-2.5371,-2.5371,-2.5291,-2.5237,-2.5237,-2.5237,0.0,0.0,0.0,0.0,0.0,0.0,0.0,0.0,-2.6106,0.0,-2.6386,-2.6386,-2.6386,-2.6386,-2.6386,-2.6386,-2.6386,-2.6386,-2.6386,-2.6386,-2.6386,-2.6386,-2.6386,-2.6386,-2.6386,-2.6386,-2.6386,-2.6386,-2.6386,-2.6386,-2.6386,-2.6386,-1.3566,-1.3566,-1.3566,-1.3566,-1.3566,-1.3566,-1.3566,-1.3566,-1.3566,-1.3566,-1.3566,-1.3566,-1.3566,-1.3566,0.0,-1.341,-1.3403,-1.3403,-1.3403,-1.3403,-1.3403,-1.3403,-1.3403,-1.3403,-1.3403,-1.3403,0.0,-1.3403,-1.3403,-1.3403,-1.3403,-1.3403,-1.3403,-1.3403,-1.3403,-1.4217,-1.5679,-1.8607,-2.0716,-2.2166,-2.5251,-2.6386,-2.6386,-2.6386,-2.6386,-2.6386,-2.6386,-2.6386,-2.6386,-2.6386,-2.6386,-2.6386,-2.6386,-2.6386,-2.6386,-2.6386,-2.6386,-2.6386,-2.6386,-2.6386,-2.6386,-2.6386,-2.6386,-2.6386,-2.6386,-2.6386,-2.6386,-2.6386,-2.6386,-2.6386,-2.6386,-2.6386,-2.6386,-2.6386,-2.6239,-2.6119,-2.6119,0.0,-2.5678,0.0,0.0,0.0,0.0,-2.5518,-2.5438,0.0,0.0,0.0,0.0,0.0,-2.5651,-2.5945,-2.6239,-2.6386,-2.6386,-2.6386,-2.6386,-2.6386,-2.6386,-2.6386,-2.6386,-2.6386,-2.6386,-2.6386,-2.6386,-2.6386,-2.6386,-2.6386,-2.6386,-2.6386,-2.6386,-2.6386,-2.6386,-2.6386,-2.6386,-2.6386,-1.3838,-1.3838,0.0,0.0,-1.3838,0.0,-1.3838,-1.3838,-1.3838,-1.3838,-1.3838,-1.3838,-1.3838,-1.3838,-1.3729,-1.3458,0.0,0.0,0.0,-1.3417,-1.341,-1.3403,-1.3403,-1.3403,-1.3403,-1.3403,-1.3403,-1.3403,-1.3403,-1.3403,-1.3403,-1.3403,-1.3403,-1.3403,-1.3403,-1.3403,-1.3728,-1.8118,-1.9907,-2.0231,-2.4602,-2.6386,-2.6386,-2.6386,-2.6386,-2.6386,-2.6386,-2.6386,-2.6386,-2.6386,-2.6386,-2.6386,-2.6386,-2.6386,-2.6386,-2.6386,-2.6386,-2.6386,-2.6386,-2.6386,-2.6386,-2.6386,-2.6386,-2.6386,-2.6386,-2.6386,-2.6386,-2.6386,-2.6386,-2.6386,-2.6386,-2.6386,-2.6386,-2.6386,-2.6386,-2.6386,-2.6386,-2.6159,-2.5985,0.0,0.0,0.0,-2.5571,-2.5571,-2.5558,0.0,0.0,0.0,0.0,0.0,-2.5678,-2.5972,-2.6253,-2.6386,-2.6386,-2.6386,-2.6386,-2.6386,-2.6386,-2.6386,-2.6386,-2.6386,-2.6386,-2.6386,-2.6386,-2.6386,-2.6386,-2.6386,-2.6386,-2.6386,-2.6386,-2.6386,-2.6386,-2.6386,-2.6386,-2.6386,0.0,0.0,-1.3838,-1.3838,-1.3838,-1.3838,-1.3838,-1.3838,-1.3838,-1.3838,-1.3838,-1.3838,-1.3838,-1.3838,-1.381,-1.3743,-1.3736,-1.3688,-1.358,-1.3573,-1.3526,-1.3403,-1.3403,-1.3403,-1.3403,-1.3403,-1.3403,-1.3403,-1.3403,-1.3403,-1.3403,-1.3403,-1.3403,-1.3403,-1.3403,-1.3403,-1.3728,-1.8118,-1.9907,-2.0231,-2.4602,-2.6386,-2.6386,-2.6386,-2.6386,-2.6386,-2.6386,-2.6386,-2.6386,-2.6386,-2.6386,-2.6386,-2.6386,-2.6386,-2.6386,-2.6386,-2.6386,-2.6386,-2.6386,-2.6386,-2.6386,-2.6386,-2.6386,-2.6386,-2.6386,-2.6386,-2.6386,-2.6386,-2.6386,-2.6386,-2.6386,-2.6386,-2.6386,-2.6386,-2.6386,-2.6386,-2.6386,-2.6333,-2.6293,0.0,-2.6226,-2.6186,-2.6186,-2.6186,-2.6092,0.0,0.0,-2.5879,-2.5959,-2.5892,-2.5985,-2.6279,-2.636,-2.6386,-2.6386,-2.6386,-2.6386,-2.6386,-2.6386,-2.6386,-2.6386,-2.6386,-2.6386,-2.6386,-2.6386,-2.6386,-2.6386,-2.6386,-2.6386,-2.6386,-2.6386,-2.6386,-2.6386,-2.6386,-2.6386,-2.6386,-1.4048,-1.4048,-1.4048,-1.4048,-1.4048,-1.4048,-1.4048,-1.4048,-1.4048,-1.4048,-1.4048,-1.4048,-1.4048,-1.4048,-1.4048,-1.4048,-1.3919,-1.3804,-1.3729,-1.3729,-1.3688,-1.3607,-1.36,-1.3573,-1.3505,-1.3505,-1.3471,-1.3403,-1.3403,-1.3403,-1.3403,-1.3403,-1.3403,-1.3403,-1.3403,-1.3403,-1.3728,-1.8118,-1.9907,-2.0231,-2.4602,-2.6386,-2.6386,-2.6386,-2.6386,-2.6386,-2.6386,-2.6386,-2.6386,-2.6386,-2.6386,-2.6386,-2.6386,-2.6386,-2.6386,-2.6386,-2.6386,-2.6386,-2.6386,-2.6386,-2.6386,-2.6386,-2.6386,-2.6386,-2.6386,-2.6386,-2.6386,-2.6386,-2.6386,-2.6386,-2.6386,-2.6386,-2.6386,-2.6386,-2.6386,-2.6386,-2.6386,-2.6386,-2.6386,-2.6386,-2.6386,-2.6386,-2.6386,-2.6386,-2.6319,-2.6159,-2.6159,0.0,-2.6159,-2.6159,-2.6226,-2.6386,-2.6386,-2.6386,-2.6386,-2.6386,-2.6386,-2.6386,-2.6386,-2.6386,-2.6386,-2.6386,-2.6386,-2.6386,-2.6386,-2.6386,-2.6386,-2.6386,-2.6386,-2.6386,-2.6386,-2.6386,-2.6386,-2.6386,-2.6386,-2.6386,-1.4299,-1.4299,-1.4299,-1.4299,-1.4299,-1.4299,-1.4299,-1.4299,-1.4299,-1.4299,-1.4299,-1.4299,-1.4299,-1.4299,-1.4299,-1.4299,-1.4061,-1.3899,-1.3878,-1.3878,-1.3865,-1.3844,-1.3838,-1.3783,-1.3661,-1.3661,-1.36,-1.3464,-1.3464,-1.3458,-1.3437,-1.3437,-1.3424,-1.3403,-1.3403,-1.3403,-1.3728,-1.8118,-1.9907,-2.0231,-2.4602,-2.6386,-2.6386,-2.6386,-2.6386,-2.6386,-2.6386,-2.6386,-2.6386,-2.6386,-2.6386,-2.6386,-2.6386,-2.6386,-2.6386,-2.6386,-2.6386,-2.6386,-2.6386,-2.6386,-2.6386,-2.6386,-2.6386,-2.6386,-2.6386,-2.6386,-2.6386,-2.6386,-2.6386,-2.6386,-2.6386,-2.6386,-2.6386,-2.6386,-2.6386,-2.6386,-2.6386,0.0,-2.6386,-2.6386,-2.6386,-2.6386,-2.6386,-2.6386,-2.6386,-2.6386,-2.6386,-2.6386,-2.6386,-2.6386,-2.6386,-2.6386,-2.6386,-2.6386,-2.6386,-2.6386,-2.6386,-2.6386,-2.6386,-2.6386,-2.6386,-2.6386,-2.6386,-2.6386,-2.6386,-2.6386,-2.6386,-2.6386,-2.6386,-2.6386,-2.6386,-2.6386,-2.6386,-2.6386,-2.6386,-2.6386,-1.4299,-1.4299,-1.4299,-1.4299,-1.4299,-1.4299,-1.4299,-1.4299,-1.4299,-1.4299,-1.4299,-1.4299,-1.4299,-1.4299,-1.4299,-1.4299,-1.4258,-1.417,-1.4048,-1.4034,-1.398,-1.3844,-1.3838,-1.3831,-1.381,-1.3804,-1.3797,-1.377,-1.377,-1.3709,-1.3593,-1.3593,-1.3526,-1.3403,-1.3403,-1.3403,-1.3728,-1.8118,-1.9907,-2.0231,-2.4602,-2.6386,-2.6386,-2.6386,-2.6386,-2.6386,-2.6386,-2.6386,-2.6386,-2.6386,-2.6386,-2.6386,-2.6386,-2.6386,-2.6386,-2.6386,-2.6386,-2.6386,-2.6386,-2.6386,-2.6386,-2.6386,-2.6386,-2.6386,-2.6386,-2.6386,-2.6386,-2.6386,-2.6386,-2.6386,-2.6386,-2.6386,-2.6386,-2.6386,-2.6386,-2.6386,-2.6386,0.0,-2.6386,-2.6386,-2.6386,-2.6386,-2.6386,-2.6386,-2.6386,-2.6386,-2.6386,-2.6386,-2.6386,-2.6386,-2.6386,-2.6386,-2.6386,-2.6386,-2.6386,-2.6386,-2.6386,-2.6386,-2.6386,-2.6386,-2.6386,-2.6386,-2.6386,-2.6386,-2.6386,-2.6386,-2.6386,-2.6386,-2.6386,-2.6386,-2.6386,-2.6386,-2.6386,-2.6386,-2.6386,-2.6386,-1.4299,-1.4299,-1.4299,-1.4299,-1.4299,-1.4299,-1.4299,-1.4299,-1.4299,-1.4299,-1.4299,-1.4299,-1.4299,-1.4299,-1.4299,-1.4299,-1.4299,-1.4272,-1.4197,-1.4197,-1.4163,-1.4089,-1.4089,-1.4048,-1.3966,-1.3885,-1.3838,-1.3838,-1.3838,-1.3804,-1.3743,-1.3743,-1.3702,-1.3641,-1.3641,-1.3641,-1.3803,-1.696,-1.9104,-2.059,-2.3726,-2.5711,-2.6854,-2.6854,-2.6854,-2.6854,-2.6854,-2.6854,-2.6841,-2.668,-2.6627,-2.66,-2.644,-2.6386,-2.6386,-2.6386,-2.6386,-2.6386,-2.6386,-2.6386,-2.6386,-2.6386,-2.6386,-2.6386,-2.6386,-2.6386,-2.6386,-2.6386,-2.6386,-2.6386,-2.6386,-2.6386,-2.6386,-2.6386,-2.6386,-2.6386,-2.6386,-2.6386,-2.6386,-2.6386,-2.6386,-2.6386,-2.6386,-2.6386,-2.6386,-2.6386,-2.6386,-2.6386,-2.6386,-2.6386,-2.6386,-2.6386,-2.6386,-2.6386,-2.6386,-2.6386,-2.6386,-2.6386,-2.6386,-2.6386,-2.6386,-2.6386,-2.6386,-2.6386,-2.6386,-2.6386,-2.6386,-2.6386,-2.6386,-2.6386,-2.6386,-2.6386,-2.6386,-2.6386,-2.6386,-2.6386,-1.4299,-1.4299,-1.4299,-1.4299,-1.4299,-1.4299,-1.4299,-1.4299,-1.4299,-1.4299,-1.4299,-1.4299,-1.4299,-1.4299,-1.4299,-1.4299,-1.4299,-1.4299,-1.4299,-1.4299,-1.4299,-1.4299,-1.4299,-1.4245,-1.4129,-1.4007,-1.3946,-1.3946,-1.3946,-1.3926,-1.3892,-1.3892,-1.3871,-1.3838,-1.3838,-1.3838,-1.4009,-1.6204,-1.8388,-2.0721,-2.2909,-2.526,-2.7268,-2.7268,-2.7268,-2.7268,-2.7268,-2.7268,-2.7228,-2.7001,-2.6921,-2.6881,-2.6667,-2.6547,-2.6493,-2.6493,-2.644,-2.6386,-2.6386,-2.6386,-2.6386,-2.6386,-2.6386,-2.6386,-2.6386,-2.6386,-2.6386,-2.6386,-2.6386,-2.6386,-2.6386,-2.6386,-2.6386,-2.6386,0.0,-2.6386,-2.6386,-2.6386,-2.6386,-2.6386,-2.6386,-2.6386,-2.6386,-2.6386,-2.6386,-2.6386,-2.6386,-2.6386,-2.6386,-2.6386,-2.6386,-2.6386,-2.6386,-2.6386,-2.6386,-2.6386,-2.6386,-2.6386,-2.6386,-2.6386,-2.6386,-2.6386,-2.6386,-2.6386,-2.6386,-2.6386,-2.6386,-2.6386,-2.6386,-2.6386,-2.6386,-2.6386,-2.6386,-2.6386,-2.6386,-2.6386,-1.4299,-1.4299,-1.4299,-1.4299,-1.4299,-1.4299,-1.4299,-1.4299,-1.4299,-1.4299,-1.4299,-1.4299,-1.4299,-1.4299,-1.4299,-1.4299,-1.4299,-1.4299,-1.4299,-1.4299,-1.4299,-1.4299,-1.4299,-1.4292,-1.4285,-1.4272,-1.4265,-1.4265,-1.4265,-1.4197,-1.4055,-1.4055,-1.398,-1.3838,-1.3838,-1.3838,-1.4009,-1.6204,-1.8388,-2.0721,-2.2909,-2.526,-2.7268,-2.7268,-2.7268,-2.7268,-2.7268,-2.7268,-2.7268,-2.7241,-2.7228,-2.7228,-2.7201,-2.7014,-2.6787,-2.6787,-2.66,-2.6386,-2.6386,-2.6386,-2.6386,-2.6386,-2.6386,-2.6386,-2.6386,-2.6386,-2.6386,-2.6386,-2.6386,-2.6386,-2.6386,-2.6386,-2.6386,-2.6386,0.0,0.0,-2.6386,-2.6386,-2.6386,-2.6386,-2.6386,-2.6386,-2.6386,-2.6386,-2.6386,-2.6386,-2.6386,-2.6386,-2.6386,-2.6386,-2.6386,-2.6386,-2.6386,-2.6386,-2.6386,-2.6386,-2.6386,-2.6386,-2.6386,-2.6386,-2.6386,-2.6386,-2.6386,-2.6386,-2.6386,-2.6386,-2.6386,-2.6386,-2.6386,-2.6386,-2.6386,-2.6386,-2.6386,-2.6386,-2.6386,-2.6386,-1.4319,-1.4299,-1.4299,-1.4299,-1.4299,-1.4299,-1.4299,-1.4299,-1.4299,-1.4299,-1.4299,-1.4299,-1.4299,-1.4299,-1.4299,-1.4299,-1.4299,-1.4299,-1.4299,-1.4299,-1.4299,-1.4299,-1.4299,-1.4299,-1.4299,-1.4299,-1.4299,-1.4299,-1.4299,-1.4272,-1.4211,-1.4211,-1.4183,-1.4122,-1.4122,-1.4122,-1.4122,-1.4988,-1.6703,-1.8913,-1.9771,-2.148,-2.3698,-2.5071,-2.4734,-2.3867,-2.6774,-2.5924,-2.3844,-2.6581,-2.6517,-2.5637,-2.6816,-2.7188,-2.7068,-2.6881,-2.6613,-2.6386,-2.6386,-2.6386,-2.6386,-2.6386,-2.6386,-2.6386,-2.6386,-2.6386,-2.6386,-2.6386,-2.6386,-2.6386,-2.6386,-2.6386,-2.6386,-2.6386,0.0,-2.6386,-2.6386,-2.6386,-2.6386,-2.6386,-2.6386,-2.6386,-2.6386,-2.6386,-2.6386,-2.6386,-2.6386,-2.6386,-2.6386,-2.6386,-2.6386,-2.6386,-2.6386,-2.6386,-2.6386,-2.6386,-2.6386,-2.6386,-2.6386,-2.6386,-2.6386,-2.6386,-2.6386,-2.6386,-2.6386,-2.6386,-2.6386,-2.6386,-2.6386,-2.6386,-2.6386,-2.6386,-2.6386,-2.6386,-2.6386,-2.6386,-1.4387,-1.4333,-1.4299,-1.4299,-1.4299,-1.4299,-1.4299,-1.4299,-1.4299,-1.4299,-1.4299,-1.4299,-1.4299,-1.4299,-1.4299,-1.4299,-1.4299,-1.4299,-1.4299,-1.4299,-1.4299,-1.4299,-1.4299,-1.4299,-1.4299,-1.4299,-1.4299,-1.4299,-1.4299,-1.4299,-1.4299,-1.4299,-1.4299,-1.4299,-1.4299,-1.4299,-1.4299,-1.4299,-1.569,-1.7763,-1.7763,-1.915,-2.1394,-2.2955,-2.2611,-2.1739,-2.5714,-2.502,-2.2922,-2.6529,-2.6297,-2.4734,-2.6926,-2.7482,-2.7321,-2.6934,-2.668,-2.6507,-2.6413,-2.6386,-2.6386,-2.6386,-2.6386,-2.6386,-2.6386,-2.6386,-2.6386,-2.6386,-2.6386,-2.6386,-2.6386,-2.6386,-2.6386,-2.6386,-2.6386,-2.6386,-2.6386,-2.6386,-2.6386,-2.6386,-2.6386,-2.6386,-2.6386,-2.6386,-2.6386,-2.6386,-2.6386,-2.6386,-2.6386,-2.6386,-2.6386,-2.6386,-2.6386,-2.6386,-2.6386,-2.6386,-2.6386,-2.6386,-2.6386,-2.6386,-2.6386,-2.6386,-2.6386,-2.6386,-2.6386,-2.6386,-2.6386,-2.6386,-2.6386,-2.6386,-2.6386,-2.6386,-2.6386,-2.6386,-2.6386,-2.6386,-1.4516,-1.4401,-1.4299,-1.4299,-1.4299,-1.4299,-1.4299,-1.4299,-1.4299,-1.4299,-1.4299,-1.4299,-1.4299,-1.4299,-1.4299,-1.4299,-1.4299,-1.4299,-1.4299,-1.4299,-1.4299,-1.4299,-1.4299,-1.4299,-1.4299,-1.4299,-1.4299,-1.4299,-1.4299,-1.4299,-1.4299,-1.4299,-1.4299,-1.4299,-1.4299,-1.4299,-1.4299,-1.4299,-1.569,-1.7763,-1.7763,-1.915,-2.1221,-2.1221,-2.1221,-2.1394,-2.3824,-2.4691,-2.5032,-2.7279,-2.6588,-2.5032,-2.7448,-2.7936,-2.7589,-2.7001,-2.6827,-2.676,-2.6466,-2.6386,-2.6386,-2.6386,-2.6386,-2.6386,-2.6386,-2.6386,-2.6386,-2.6386,-2.6386,-2.6386,-2.6386,-2.6386,-2.6386,-2.6386,-2.6386,-2.6386,-2.6386,-2.6386,-2.6386,-2.6386,-2.6386,-2.6386,-2.6386,-2.6386,-2.6386,-2.6386,-2.6386,-2.6386,-2.6386,-2.6386,-2.6386,-2.6386,-2.6386,-2.6386,-2.6386,-2.6386,-2.6386,-2.6386,-2.6386,-2.6386,-2.6386,-2.6386,-2.6386,-2.6386,-2.6386,-2.6386,-2.6386,-2.6386,-2.6386,-2.6386,-2.6386,-2.6386,-2.6386,-2.6386,-2.6386,-2.6386,-1.4692,-1.455,-1.4448,-1.4448,-1.4367,-1.4299,-1.4299,-1.4299,-1.4299,-1.4299,-1.4299,-1.4299,-1.4299,-1.4299,-1.4299,-1.4299,-1.4299,-1.4299,-1.4299,-1.4299,-1.4299,-1.4299,-1.4299,-1.4299,-1.4299,-1.4299,-1.4299,-1.4299,-1.4299,-1.4299,-1.4299,-1.4299,-1.4299,-1.4299,-1.4299,-1.4299,-1.4299,-1.4299,-1.4646,-1.5337,-1.5337,-1.569,-1.6553,-1.8113,-1.7763,-1.6904,-2.0875,-2.0192,-1.7947,-2.1911,-2.1739,-2.0529,-2.4508,-2.5542,-2.5453,-2.6987,-2.7148,-2.68,-2.672,-2.6547,-2.6386,-2.6386,-2.6386,-2.6386,-2.6386,-2.6386,-2.6386,-2.6386,-2.6386,-2.6386,-2.6386,-2.6386,-2.6386,-2.6386,-2.6386,-2.6386,-2.6386,-2.6386,-2.6386,-2.6386,-2.6386,-2.6386,-2.6386,-2.6386,-2.6386,-2.6386,-2.6386,-2.6386,-2.6386,-2.6386,-2.6386,-2.6386,-2.6386,-2.6386,-2.6386,-2.6386,-2.6386,-2.6386,-2.6386,-2.6386,-2.6386,-2.6386,-2.6386,-2.6386,-2.6386,-2.6386,-2.6386,-2.6386,-2.6386,-2.6386,-2.6386,-2.6386,-2.6386,-2.6386,-2.6386,-2.6386,-1.4848,-1.4706,-1.4584,-1.4523,-1.4441,-1.4367,-1.4306,-1.4299,-1.4299,-1.4299,-1.4299,-1.4299,-1.4299,-1.4299,-1.4299,-1.4299,-1.4299,-1.4299,-1.4299,-1.4299,-1.4299,-1.4299,-1.4299,-1.4299,-1.4299,-1.4299,-1.4299,-1.4299,-1.4299,-1.4299,-1.4299,-1.4299,-1.4299,-1.4299,-1.4299,-1.4299,-1.4299,-1.4299,-1.4299,-1.4299,-1.4299,-1.4299,-1.4476,-1.5858,-1.5513,-1.4822,-1.8453,-1.8113,-1.621,-2.0009,-2.0875,-2.0875,-2.2783,-2.4403,-2.5974,-2.739,-2.7362,-2.6974,-2.6854,-2.6613,-2.6386,-2.6386,-2.6386,-2.6386,-2.6386,-2.6386,-2.6386,-2.6386,-2.6386,-2.6386,-2.6386,-2.6386,-2.6386,-2.6386,-2.6386,-2.6386,-2.6386,-2.6386,-2.6386,-2.6386,-2.6386,-2.6386,-2.6386,-2.6386,-2.6386,-2.6386,-2.6386,-2.6386,-2.6386,-2.6386,-2.6386,-2.6386,-2.6386,-2.6386,-2.6386,-2.6386,-2.6386,-2.6386,-2.6386,-2.6386,-2.6386,-2.6386,-2.6386,-2.6386,-2.6386,-2.6386,-2.6386,-2.6386,-2.6386,-2.6386,-2.6386,-2.6386,-2.6386,-2.6386,-2.6386,-2.6386,-1.4991,-1.4869,-1.4719,-1.4577,-1.4529,-1.4468,-1.434,-1.4306,-1.4299,-1.4299,-1.4299,-1.4299,-1.4299,-1.4299,-1.4299,-1.4299,-1.4299,-1.4299,-1.4299,-1.4299,-1.4299,-1.4299,-1.4299,-1.4299,-1.4299,-1.4299,-1.4299,-1.4299,-1.4299,-1.4299,-1.4299,-1.4299,-1.4299,-1.4299,-1.4299,-1.4299,-1.4299,-1.4299,-1.4299,-1.4299,-1.4299,-1.4299,-1.4299,-1.4299,-1.4299,-1.4646,-1.6729,-1.7413,-1.7763,-1.9836,-2.1911,-2.3481,-2.1566,-2.3984,-2.7564,-2.7469,-2.7344,-2.7201,-2.6934,-2.6627,-2.6386,-2.6386,-2.6386,-2.6386,-2.6386,-2.6386,-2.6386,-2.6386,-2.6386,-2.6386,-2.6386,-2.6386,-2.6386,-2.6386,-2.6386,-2.6386,-2.6386,-2.6386,-2.6386,-2.6386,-2.6386,-2.6386,-2.6386,-2.6386,-2.6386,-2.6386,-2.6386,-2.6386,-2.6386,-2.6386,-2.6386,-2.6386,-2.6386,-2.6386,-2.6386,-2.6386,-2.6386,-2.6386,-2.6386,-2.6386,-2.6386,-2.6386,-2.6386,-2.6386,-2.6386,-2.6386,-2.6386,-2.6386,-2.6386,-2.6386,-2.6386,-2.6386,-2.6386,-2.6386,-2.6386,-2.6386,-1.514,-1.5018,-1.4909,-1.4875,-1.4672,-1.4502,-1.4468,-1.4373,-1.4299,-1.4299,-1.4299,-1.4299,-1.4299,-1.4299,-1.4299,-1.4299,-1.4299,-1.4299,-1.4299,-1.4299,-1.4299,-1.4299,-1.4299,-1.4299,-1.4299,-1.4299,-1.4299,-1.4299,-1.4299,-1.4299,-1.4299,-1.4299,-1.4299,-1.4299,-1.4299,-1.4299,-1.4299,-1.4299,-1.4299,-1.4299,-1.4299,-1.4299,-1.4299,-1.4299,-1.4299,-1.4299,-1.4822,-1.4992,-1.5168,-1.569,-1.621,-1.6729,-1.8113,-2.0529,-2.3104,-2.4791,-2.6312,-2.7255,-2.7188,-2.6787,-2.6386,-2.6386,-2.6386,-2.6386,-2.6386,-2.6386,-2.6386,-2.6386,-2.6386,-2.6386,-2.6386,-2.6386,-2.6386,-2.6386,-2.6386,-2.6386,-2.6386,-2.6386,-2.6386,-2.6386,-2.6386,-2.6386,-2.6386,-2.6386,-2.6386,-2.6386,-2.6386,-2.6386,-2.6386,-2.6386,-2.6386,-2.6386,-2.6386,-2.6386,-2.6386,-2.6386,-2.6386,-2.6386,-2.6386,-2.6386,-2.6386,-2.6386,-2.6386,-2.6386,-2.6386,-2.6386,-2.6386,-2.6386,-2.6386,-2.6386,-2.6386,-2.6386,-2.6386,-2.6386,-2.6386,-2.6386,-1.5181,-1.512,-1.5052,-1.4984,-1.4841,-1.4679,-1.4536,-1.4448,-1.4373,-1.4306,-1.4299,-1.4299,-1.4299,-1.4299,-1.4299,-1.4299,-1.4299,-1.4299,-1.4299,-1.4299,-1.4299,-1.4299,-1.4299,-1.4299,-1.4299,-1.4299,-1.4299,-1.4299,-1.4299,-1.4299,-1.4299,-1.4299,-1.4299,-1.4299,-1.4299,-1.4299,-1.4299,-1.4299,-1.4299,-1.4299,-1.4299,-1.4299,-1.4299,-1.4299,-1.4299,-1.4299,-1.4299,-1.4299,-1.4476,-1.5513,-1.6729,-1.7938,-2.0356,-2.26,-2.485,-2.6066,-2.6968,-2.7442,-2.7308,-2.6934,-2.656,-2.6426,-2.6386,-2.6386,-2.6386,-2.6386,-2.6386,-2.6386,-2.6386,-2.6386,-2.6386,-2.6386,-2.6386,-2.6386,-2.6386,-2.6386,-2.6386,-2.6386,-2.6386,-2.6386,-2.6386,-2.6386,-2.6386,-2.6386,-2.6386,-2.6386,-2.6386,-2.6386,-2.6386,-2.6386,-2.6386,-2.6386,-2.6386,-2.6386,-2.6386,-2.6386,-2.6386,-2.6386,-2.6386,-2.6386,-2.6386,-2.6386,-2.6386,-2.6386,-2.6386,-2.6386,-2.6386,-2.6386,-2.6386,-2.6386,-2.6386,-2.6386,-2.6386,-2.6386,-2.6386,-2.6386,-1.5181,-1.5181,-1.5147,-1.5025,-1.4984,-1.4882,-1.4631,-1.4543,-1.4468,-1.4353,-1.4319,-1.4299,-1.4299,-1.4299,-1.4299,-1.4299,-1.4299,-1.4299,-1.4299,-1.4299,-1.4299,-1.4299,-1.4299,-1.4299,-1.4299,-1.4299,-1.4299,-1.4299,-1.4299,-1.4299,-1.4299,-1.4299,-1.4299,-1.4299,-1.4299,-1.4299,-1.4299,-1.4299,-1.4299,-1.4299,-1.4299,-1.4299,-1.4299,-1.4299,-1.4299,-1.4299,-1.4299,-1.4299,-1.4646,-1.7071,-1.915,-2.1048,-2.3298,-2.5714,-2.7617,-2.7617,-2.7588,-2.7629,-2.7348,-2.7054,-2.6747,-2.6466,-2.6386,-2.6386,-2.6386,-2.6386,-2.6386,-2.6386,-2.6386,-2.6386,-2.6386,-2.6386,-2.6386,-2.6386,-2.6386,-2.6386,-2.6386,-2.6386,-2.6386,-2.6386,-2.6386,-2.6386,-2.6386,-2.6386,-2.6386,-2.6386,-2.6386,-2.6386,-2.6386,-2.6386,-2.6386,-2.6386,-2.6386,-2.6386,-2.6386,-2.6386,-2.6386,-2.6386,-2.6386,-2.6386,-2.6386,-2.6386,-2.6386,-2.6386,-2.6386,-2.6386,-2.6386,-2.6386,-2.6386,-2.6386,-2.6386,-2.6386,-2.6386,-2.6386,-2.6386,-2.6386,-1.5181,-1.5181,-1.5174,-1.516,-1.5052,-1.4957,-1.4916,-1.4685,-1.4502,-1.4482,-1.4373,-1.4299,-1.4299,-1.4299,-1.4299,-1.4299,-1.4299,-1.4299,-1.4299,-1.4299,-1.4299,-1.4299,-1.4299,-1.4299,-1.4299,-1.4299,-1.4299,-1.4299,-1.4299,-1.4299,-1.4299,-1.4299,-1.4299,-1.4299,-1.4299,-1.4299,-1.4299,-1.4299,-1.4299,-1.4299,-1.4299,-1.4299,-1.4299,-1.4299,-1.4299,-1.4299,-1.4299,-1.4299,-1.4646,-1.7071,-1.7929,-1.8627,-2.0875,-2.3298,-2.5203,-2.5203,-2.6386,-2.7629,-2.7348,-2.7054,-2.6747,-2.6466,-2.6386,-2.6386,-2.6386,-2.6386,-2.6386,-2.6386,-2.6386,-2.6386,-2.6386,-2.6386,-2.6386,-2.6386,-2.6386,-2.6386,-2.6386,-2.6386,-2.6386,-2.6386,-2.6386,-2.6386,-2.6386,-2.6386,-2.6386,-2.6386,-2.6386,-2.6386,-2.6386,-2.6386,-2.6386,-2.6386,-2.6386,-2.6386,-2.6386,-2.6386,-2.6386,-2.6386,-2.6386,-2.6386,-2.6386,-2.6386,-2.6386,-2.6386,-2.6386,-2.6386,-2.6386,-2.6386,-2.6386,-2.6386,-2.6386,-2.6386,-2.6386,-2.6386,-2.6386,-2.6386,-1.5181,-1.5181,-1.5181,-1.5181,-1.5133,-1.5065,-1.4984,-1.4855,-1.4706,-1.4536,-1.4455,-1.4387,-1.4306,-1.4299,-1.4299,-1.4299,-1.4299,-1.4299,-1.4299,-1.4299,-1.4299,-1.4299,-1.4299,-1.4299,-1.4299,-1.4299,-1.4299,-1.4299,-1.4299,-1.4299,-1.4299,-1.4299,-1.4299,-1.4299,-1.4299,-1.4299,-1.4299,-1.4299,-1.4299,-1.4299,-1.4299,-1.4299,-1.4299,-1.4299,-1.4299,-1.4299,-1.4299,-1.4299,-1.4822,-1.8453,-1.9662,-2.0183,-2.2439,-2.3824,-2.4691,-2.4691,-2.5301,-2.6142,-2.7046,-2.7175,-2.6961,-2.6507,-2.6386,-2.6386,-2.6386,-2.6386,-2.6386,-2.6386,-2.6386,-2.6386,-2.6386,-2.6386,-2.6386,-2.6386,-2.6386,-2.6386,-2.6386,-2.6386,-2.6386,-2.6386,-2.6386,-2.6386,-2.6386,-2.6386,-2.6386,-2.6386,-2.6386,-2.6386,-2.6386,-2.6386,-2.6386,-2.6386,-2.6386,-2.6386,-2.6386,-2.6386,-2.6386,-2.6386,-2.6386,-2.6386,-2.6386,-2.6386,-2.6386,-2.6386,-2.6386,-2.6386,-2.6386,-2.6386,-2.6386,-2.6386,-2.6386,-2.6386,-2.6386,-2.6386,-2.6386,-2.6386]}]]